<?xml version="1.0" encoding="UTF-8" standalone="no" ?>
<gpx xmlns="http://www.topografix.com/GPX/1/1" xmlns:xsi="http://www.w3.org/2001/XMLSchema-instance" xsi:schemaLocation="http://www.topografix.com/GPX/1/1 http://www.topografix.com/GPX/1/1/gpx.xsd" version="1.1" creator="VisuGPX - https://www.visugpx.com">
  <metadata>
    <name>Nuit blanche du pilat 2011</name>
    <desc><![CDATA[Nuit blanche du pilat 2011, bon c'etait pas terrible... 10 minutes de plus par rapport à mon meilleur temps.]]></desc>
  </metadata>
  <trk>
    <name><![CDATA[2011-02-19 18:37]]></name>
    <desc><![CDATA[]]></desc>
    <trkseg>
      <trkpt lat="45.3626" lon="4.51787">
        <ele>1216</ele>
        <time>2011-02-19T17:33:54Z</time>
      </trkpt>
      <trkpt lat="45.36255" lon="4.51793">
        <ele>1216</ele>
        <time>2011-02-19T17:33:56Z</time>
      </trkpt>
      <trkpt lat="45.36251" lon="4.51798">
        <ele>1216</ele>
        <time>2011-02-19T17:33:58Z</time>
      </trkpt>
      <trkpt lat="45.36245" lon="4.51804">
        <ele>1216</ele>
        <time>2011-02-19T17:34:00Z</time>
      </trkpt>
      <trkpt lat="45.3624" lon="4.51808">
        <ele>1216</ele>
        <time>2011-02-19T17:34:02Z</time>
      </trkpt>
      <trkpt lat="45.36234" lon="4.51815">
        <ele>1216</ele>
        <time>2011-02-19T17:34:04Z</time>
      </trkpt>
      <trkpt lat="45.3623" lon="4.51821">
        <ele>1216</ele>
        <time>2011-02-19T17:34:06Z</time>
      </trkpt>
      <trkpt lat="45.36226" lon="4.5183">
        <ele>1216</ele>
        <time>2011-02-19T17:34:08Z</time>
      </trkpt>
      <trkpt lat="45.36222" lon="4.51836">
        <ele>1216</ele>
        <time>2011-02-19T17:34:10Z</time>
      </trkpt>
      <trkpt lat="45.36218" lon="4.51845">
        <ele>1216</ele>
        <time>2011-02-19T17:34:12Z</time>
      </trkpt>
      <trkpt lat="45.36215" lon="4.51854">
        <ele>1216</ele>
        <time>2011-02-19T17:34:14Z</time>
      </trkpt>
      <trkpt lat="45.36212" lon="4.5186">
        <ele>1216</ele>
        <time>2011-02-19T17:34:16Z</time>
      </trkpt>
      <trkpt lat="45.36208" lon="4.51869">
        <ele>1216</ele>
        <time>2011-02-19T17:34:18Z</time>
      </trkpt>
      <trkpt lat="45.36204" lon="4.51875">
        <ele>1217</ele>
        <time>2011-02-19T17:34:20Z</time>
      </trkpt>
      <trkpt lat="45.36201" lon="4.51884">
        <ele>1217</ele>
        <time>2011-02-19T17:34:22Z</time>
      </trkpt>
      <trkpt lat="45.36198" lon="4.5189">
        <ele>1217</ele>
        <time>2011-02-19T17:34:24Z</time>
      </trkpt>
      <trkpt lat="45.36196" lon="4.51896">
        <ele>1217</ele>
        <time>2011-02-19T17:34:26Z</time>
      </trkpt>
      <trkpt lat="45.36194" lon="4.51903">
        <ele>1217</ele>
        <time>2011-02-19T17:34:28Z</time>
      </trkpt>
      <trkpt lat="45.36192" lon="4.51909">
        <ele>1217</ele>
        <time>2011-02-19T17:34:30Z</time>
      </trkpt>
      <trkpt lat="45.36189" lon="4.51916">
        <ele>1217</ele>
        <time>2011-02-19T17:34:32Z</time>
      </trkpt>
      <trkpt lat="45.36186" lon="4.51922">
        <ele>1217</ele>
        <time>2011-02-19T17:34:34Z</time>
      </trkpt>
      <trkpt lat="45.36184" lon="4.51929">
        <ele>1217</ele>
        <time>2011-02-19T17:34:36Z</time>
      </trkpt>
      <trkpt lat="45.36182" lon="4.51935">
        <ele>1217</ele>
        <time>2011-02-19T17:34:38Z</time>
      </trkpt>
      <trkpt lat="45.3618" lon="4.51941">
        <ele>1217</ele>
        <time>2011-02-19T17:34:40Z</time>
      </trkpt>
      <trkpt lat="45.36177" lon="4.51948">
        <ele>1217</ele>
        <time>2011-02-19T17:34:42Z</time>
      </trkpt>
      <trkpt lat="45.36172" lon="4.51957">
        <ele>1217</ele>
        <time>2011-02-19T17:34:45Z</time>
      </trkpt>
      <trkpt lat="45.36167" lon="4.51963">
        <ele>1217</ele>
        <time>2011-02-19T17:34:48Z</time>
      </trkpt>
      <trkpt lat="45.36162" lon="4.51967">
        <ele>1217</ele>
        <time>2011-02-19T17:34:51Z</time>
      </trkpt>
      <trkpt lat="45.36155" lon="4.51967">
        <ele>1217</ele>
        <time>2011-02-19T17:34:54Z</time>
      </trkpt>
      <trkpt lat="45.3615" lon="4.51961">
        <ele>1217</ele>
        <time>2011-02-19T17:34:56Z</time>
      </trkpt>
      <trkpt lat="45.36144" lon="4.51954">
        <ele>1218</ele>
        <time>2011-02-19T17:34:58Z</time>
      </trkpt>
      <trkpt lat="45.36142" lon="4.51948">
        <ele>1218</ele>
        <time>2011-02-19T17:34:59Z</time>
      </trkpt>
      <trkpt lat="45.36138" lon="4.51939">
        <ele>1218</ele>
        <time>2011-02-19T17:35:01Z</time>
      </trkpt>
      <trkpt lat="45.36134" lon="4.51931">
        <ele>1218</ele>
        <time>2011-02-19T17:35:03Z</time>
      </trkpt>
      <trkpt lat="45.36132" lon="4.51922">
        <ele>1219</ele>
        <time>2011-02-19T17:35:05Z</time>
      </trkpt>
      <trkpt lat="45.36129" lon="4.51911">
        <ele>1219</ele>
        <time>2011-02-19T17:35:07Z</time>
      </trkpt>
      <trkpt lat="45.36128" lon="4.51903">
        <ele>1219</ele>
        <time>2011-02-19T17:35:09Z</time>
      </trkpt>
      <trkpt lat="45.36127" lon="4.51894">
        <ele>1219</ele>
        <time>2011-02-19T17:35:11Z</time>
      </trkpt>
      <trkpt lat="45.36128" lon="4.51888">
        <ele>1220</ele>
        <time>2011-02-19T17:35:13Z</time>
      </trkpt>
      <trkpt lat="45.3613" lon="4.51879">
        <ele>1220</ele>
        <time>2011-02-19T17:35:15Z</time>
      </trkpt>
      <trkpt lat="45.36134" lon="4.51871">
        <ele>1220</ele>
        <time>2011-02-19T17:35:17Z</time>
      </trkpt>
      <trkpt lat="45.36138" lon="4.51864">
        <ele>1220</ele>
        <time>2011-02-19T17:35:19Z</time>
      </trkpt>
      <trkpt lat="45.36143" lon="4.5186">
        <ele>1220</ele>
        <time>2011-02-19T17:35:21Z</time>
      </trkpt>
      <trkpt lat="45.36148" lon="4.51858">
        <ele>1220</ele>
        <time>2011-02-19T17:35:23Z</time>
      </trkpt>
      <trkpt lat="45.36153" lon="4.51856">
        <ele>1220</ele>
        <time>2011-02-19T17:35:25Z</time>
      </trkpt>
      <trkpt lat="45.36158" lon="4.51851">
        <ele>1220</ele>
        <time>2011-02-19T17:35:27Z</time>
      </trkpt>
      <trkpt lat="45.36163" lon="4.51849">
        <ele>1221</ele>
        <time>2011-02-19T17:35:29Z</time>
      </trkpt>
      <trkpt lat="45.36169" lon="4.51847">
        <ele>1221</ele>
        <time>2011-02-19T17:35:31Z</time>
      </trkpt>
      <trkpt lat="45.36175" lon="4.51845">
        <ele>1221</ele>
        <time>2011-02-19T17:35:33Z</time>
      </trkpt>
      <trkpt lat="45.36182" lon="4.51843">
        <ele>1221</ele>
        <time>2011-02-19T17:35:35Z</time>
      </trkpt>
      <trkpt lat="45.36187" lon="4.51841">
        <ele>1221</ele>
        <time>2011-02-19T17:35:37Z</time>
      </trkpt>
      <trkpt lat="45.36194" lon="4.51838">
        <ele>1221</ele>
        <time>2011-02-19T17:35:39Z</time>
      </trkpt>
      <trkpt lat="45.36198" lon="4.51836">
        <ele>1221</ele>
        <time>2011-02-19T17:35:41Z</time>
      </trkpt>
      <trkpt lat="45.36203" lon="4.51834">
        <ele>1221</ele>
        <time>2011-02-19T17:35:43Z</time>
      </trkpt>
      <trkpt lat="45.3621" lon="4.5183">
        <ele>1221</ele>
        <time>2011-02-19T17:35:45Z</time>
      </trkpt>
      <trkpt lat="45.36215" lon="4.51826">
        <ele>1221</ele>
        <time>2011-02-19T17:35:47Z</time>
      </trkpt>
      <trkpt lat="45.36222" lon="4.51819">
        <ele>1221</ele>
        <time>2011-02-19T17:35:49Z</time>
      </trkpt>
      <trkpt lat="45.36227" lon="4.51815">
        <ele>1221</ele>
        <time>2011-02-19T17:35:51Z</time>
      </trkpt>
      <trkpt lat="45.36232" lon="4.51808">
        <ele>1221</ele>
        <time>2011-02-19T17:35:53Z</time>
      </trkpt>
      <trkpt lat="45.36238" lon="4.51802">
        <ele>1221</ele>
        <time>2011-02-19T17:35:55Z</time>
      </trkpt>
      <trkpt lat="45.36244" lon="4.51798">
        <ele>1221</ele>
        <time>2011-02-19T17:35:57Z</time>
      </trkpt>
      <trkpt lat="45.3625" lon="4.51793">
        <ele>1220</ele>
        <time>2011-02-19T17:35:59Z</time>
      </trkpt>
      <trkpt lat="45.36256" lon="4.51789">
        <ele>1220</ele>
        <time>2011-02-19T17:36:01Z</time>
      </trkpt>
      <trkpt lat="45.36262" lon="4.51787">
        <ele>1220</ele>
        <time>2011-02-19T17:36:03Z</time>
      </trkpt>
      <trkpt lat="45.36268" lon="4.51783">
        <ele>1220</ele>
        <time>2011-02-19T17:36:05Z</time>
      </trkpt>
      <trkpt lat="45.36274" lon="4.51778">
        <ele>1220</ele>
        <time>2011-02-19T17:36:07Z</time>
      </trkpt>
      <trkpt lat="45.36281" lon="4.51774">
        <ele>1220</ele>
        <time>2011-02-19T17:36:09Z</time>
      </trkpt>
      <trkpt lat="45.36287" lon="4.51772">
        <ele>1220</ele>
        <time>2011-02-19T17:36:11Z</time>
      </trkpt>
      <trkpt lat="45.36292" lon="4.5177">
        <ele>1220</ele>
        <time>2011-02-19T17:36:13Z</time>
      </trkpt>
      <trkpt lat="45.36298" lon="4.51763">
        <ele>1220</ele>
        <time>2011-02-19T17:36:15Z</time>
      </trkpt>
      <trkpt lat="45.36302" lon="4.51757">
        <ele>1220</ele>
        <time>2011-02-19T17:36:17Z</time>
      </trkpt>
      <trkpt lat="45.36303" lon="4.51748">
        <ele>1219</ele>
        <time>2011-02-19T17:36:19Z</time>
      </trkpt>
      <trkpt lat="45.36303" lon="4.5174">
        <ele>1219</ele>
        <time>2011-02-19T17:36:21Z</time>
      </trkpt>
      <trkpt lat="45.36302" lon="4.51731">
        <ele>1219</ele>
        <time>2011-02-19T17:36:23Z</time>
      </trkpt>
      <trkpt lat="45.36301" lon="4.51723">
        <ele>1219</ele>
        <time>2011-02-19T17:36:25Z</time>
      </trkpt>
      <trkpt lat="45.36299" lon="4.51714">
        <ele>1218</ele>
        <time>2011-02-19T17:36:27Z</time>
      </trkpt>
      <trkpt lat="45.36298" lon="4.51705">
        <ele>1218</ele>
        <time>2011-02-19T17:36:29Z</time>
      </trkpt>
      <trkpt lat="45.36298" lon="4.51695">
        <ele>1218</ele>
        <time>2011-02-19T17:36:31Z</time>
      </trkpt>
      <trkpt lat="45.36298" lon="4.51686">
        <ele>1217</ele>
        <time>2011-02-19T17:36:33Z</time>
      </trkpt>
      <trkpt lat="45.36298" lon="4.51678">
        <ele>1217</ele>
        <time>2011-02-19T17:36:35Z</time>
      </trkpt>
      <trkpt lat="45.36298" lon="4.51669">
        <ele>1217</ele>
        <time>2011-02-19T17:36:37Z</time>
      </trkpt>
      <trkpt lat="45.36298" lon="4.5166">
        <ele>1216</ele>
        <time>2011-02-19T17:36:39Z</time>
      </trkpt>
      <trkpt lat="45.36298" lon="4.51652">
        <ele>1216</ele>
        <time>2011-02-19T17:36:41Z</time>
      </trkpt>
      <trkpt lat="45.36298" lon="4.51643">
        <ele>1216</ele>
        <time>2011-02-19T17:36:43Z</time>
      </trkpt>
      <trkpt lat="45.36297" lon="4.51635">
        <ele>1215</ele>
        <time>2011-02-19T17:36:45Z</time>
      </trkpt>
      <trkpt lat="45.36297" lon="4.51626">
        <ele>1215</ele>
        <time>2011-02-19T17:36:47Z</time>
      </trkpt>
      <trkpt lat="45.36296" lon="4.51615">
        <ele>1214</ele>
        <time>2011-02-19T17:36:50Z</time>
      </trkpt>
      <trkpt lat="45.36294" lon="4.51609">
        <ele>1214</ele>
        <time>2011-02-19T17:36:52Z</time>
      </trkpt>
      <trkpt lat="45.36292" lon="4.51602">
        <ele>1214</ele>
        <time>2011-02-19T17:36:54Z</time>
      </trkpt>
      <trkpt lat="45.3629" lon="4.51596">
        <ele>1214</ele>
        <time>2011-02-19T17:36:56Z</time>
      </trkpt>
      <trkpt lat="45.36288" lon="4.5159">
        <ele>1213</ele>
        <time>2011-02-19T17:36:58Z</time>
      </trkpt>
      <trkpt lat="45.36287" lon="4.51583">
        <ele>1213</ele>
        <time>2011-02-19T17:37:00Z</time>
      </trkpt>
      <trkpt lat="45.36285" lon="4.51577">
        <ele>1213</ele>
        <time>2011-02-19T17:37:02Z</time>
      </trkpt>
      <trkpt lat="45.36282" lon="4.51568">
        <ele>1212</ele>
        <time>2011-02-19T17:37:05Z</time>
      </trkpt>
      <trkpt lat="45.3628" lon="4.5156">
        <ele>1212</ele>
        <time>2011-02-19T17:37:08Z</time>
      </trkpt>
      <trkpt lat="45.36278" lon="4.51551">
        <ele>1212</ele>
        <time>2011-02-19T17:37:11Z</time>
      </trkpt>
      <trkpt lat="45.36277" lon="4.51542">
        <ele>1212</ele>
        <time>2011-02-19T17:37:14Z</time>
      </trkpt>
      <trkpt lat="45.36276" lon="4.51534">
        <ele>1211</ele>
        <time>2011-02-19T17:37:17Z</time>
      </trkpt>
      <trkpt lat="45.36276" lon="4.51525">
        <ele>1211</ele>
        <time>2011-02-19T17:37:20Z</time>
      </trkpt>
      <trkpt lat="45.36277" lon="4.51519">
        <ele>1211</ele>
        <time>2011-02-19T17:37:22Z</time>
      </trkpt>
      <trkpt lat="45.36277" lon="4.51508">
        <ele>1211</ele>
        <time>2011-02-19T17:37:25Z</time>
      </trkpt>
      <trkpt lat="45.36277" lon="4.51502">
        <ele>1211</ele>
        <time>2011-02-19T17:37:27Z</time>
      </trkpt>
      <trkpt lat="45.36278" lon="4.51495">
        <ele>1211</ele>
        <time>2011-02-19T17:37:29Z</time>
      </trkpt>
      <trkpt lat="45.36278" lon="4.51487">
        <ele>1211</ele>
        <time>2011-02-19T17:37:32Z</time>
      </trkpt>
      <trkpt lat="45.3628" lon="4.5148">
        <ele>1211</ele>
        <time>2011-02-19T17:37:34Z</time>
      </trkpt>
      <trkpt lat="45.3628" lon="4.51474">
        <ele>1211</ele>
        <time>2011-02-19T17:37:36Z</time>
      </trkpt>
      <trkpt lat="45.3628" lon="4.51467">
        <ele>1211</ele>
        <time>2011-02-19T17:37:38Z</time>
      </trkpt>
      <trkpt lat="45.36281" lon="4.51461">
        <ele>1211</ele>
        <time>2011-02-19T17:37:40Z</time>
      </trkpt>
      <trkpt lat="45.36282" lon="4.51454">
        <ele>1211</ele>
        <time>2011-02-19T17:37:42Z</time>
      </trkpt>
      <trkpt lat="45.36283" lon="4.51448">
        <ele>1211</ele>
        <time>2011-02-19T17:37:44Z</time>
      </trkpt>
      <trkpt lat="45.36284" lon="4.51442">
        <ele>1211</ele>
        <time>2011-02-19T17:37:46Z</time>
      </trkpt>
      <trkpt lat="45.36284" lon="4.51435">
        <ele>1211</ele>
        <time>2011-02-19T17:37:48Z</time>
      </trkpt>
      <trkpt lat="45.36284" lon="4.51424">
        <ele>1211</ele>
        <time>2011-02-19T17:37:51Z</time>
      </trkpt>
      <trkpt lat="45.36284" lon="4.51416">
        <ele>1212</ele>
        <time>2011-02-19T17:37:53Z</time>
      </trkpt>
      <trkpt lat="45.36283" lon="4.51409">
        <ele>1212</ele>
        <time>2011-02-19T17:37:55Z</time>
      </trkpt>
      <trkpt lat="45.36283" lon="4.51401">
        <ele>1212</ele>
        <time>2011-02-19T17:37:57Z</time>
      </trkpt>
      <trkpt lat="45.36283" lon="4.5139">
        <ele>1212</ele>
        <time>2011-02-19T17:38:00Z</time>
      </trkpt>
      <trkpt lat="45.36282" lon="4.51384">
        <ele>1212</ele>
        <time>2011-02-19T17:38:02Z</time>
      </trkpt>
      <trkpt lat="45.36281" lon="4.51373">
        <ele>1212</ele>
        <time>2011-02-19T17:38:05Z</time>
      </trkpt>
      <trkpt lat="45.36281" lon="4.51362">
        <ele>1212</ele>
        <time>2011-02-19T17:38:08Z</time>
      </trkpt>
      <trkpt lat="45.3628" lon="4.51356">
        <ele>1213</ele>
        <time>2011-02-19T17:38:10Z</time>
      </trkpt>
      <trkpt lat="45.3628" lon="4.51345">
        <ele>1213</ele>
        <time>2011-02-19T17:38:13Z</time>
      </trkpt>
      <trkpt lat="45.3628" lon="4.51334">
        <ele>1213</ele>
        <time>2011-02-19T17:38:16Z</time>
      </trkpt>
      <trkpt lat="45.36278" lon="4.51328">
        <ele>1213</ele>
        <time>2011-02-19T17:38:18Z</time>
      </trkpt>
      <trkpt lat="45.36277" lon="4.51321">
        <ele>1213</ele>
        <time>2011-02-19T17:38:20Z</time>
      </trkpt>
      <trkpt lat="45.36276" lon="4.51313">
        <ele>1213</ele>
        <time>2011-02-19T17:38:22Z</time>
      </trkpt>
      <trkpt lat="45.36275" lon="4.51306">
        <ele>1214</ele>
        <time>2011-02-19T17:38:24Z</time>
      </trkpt>
      <trkpt lat="45.36274" lon="4.513">
        <ele>1214</ele>
        <time>2011-02-19T17:38:26Z</time>
      </trkpt>
      <trkpt lat="45.36272" lon="4.51291">
        <ele>1214</ele>
        <time>2011-02-19T17:38:28Z</time>
      </trkpt>
      <trkpt lat="45.36271" lon="4.51285">
        <ele>1214</ele>
        <time>2011-02-19T17:38:30Z</time>
      </trkpt>
      <trkpt lat="45.36269" lon="4.51278">
        <ele>1215</ele>
        <time>2011-02-19T17:38:32Z</time>
      </trkpt>
      <trkpt lat="45.36267" lon="4.5127">
        <ele>1215</ele>
        <time>2011-02-19T17:38:34Z</time>
      </trkpt>
      <trkpt lat="45.36265" lon="4.51263">
        <ele>1215</ele>
        <time>2011-02-19T17:38:36Z</time>
      </trkpt>
      <trkpt lat="45.36262" lon="4.51255">
        <ele>1215</ele>
        <time>2011-02-19T17:38:38Z</time>
      </trkpt>
      <trkpt lat="45.3626" lon="4.51248">
        <ele>1216</ele>
        <time>2011-02-19T17:38:40Z</time>
      </trkpt>
      <trkpt lat="45.36258" lon="4.51242">
        <ele>1216</ele>
        <time>2011-02-19T17:38:42Z</time>
      </trkpt>
      <trkpt lat="45.36256" lon="4.51233">
        <ele>1216</ele>
        <time>2011-02-19T17:38:44Z</time>
      </trkpt>
      <trkpt lat="45.36252" lon="4.51225">
        <ele>1216</ele>
        <time>2011-02-19T17:38:47Z</time>
      </trkpt>
      <trkpt lat="45.36247" lon="4.51216">
        <ele>1217</ele>
        <time>2011-02-19T17:38:50Z</time>
      </trkpt>
      <trkpt lat="45.36241" lon="4.51212">
        <ele>1217</ele>
        <time>2011-02-19T17:38:53Z</time>
      </trkpt>
      <trkpt lat="45.36236" lon="4.51208">
        <ele>1218</ele>
        <time>2011-02-19T17:38:55Z</time>
      </trkpt>
      <trkpt lat="45.36229" lon="4.51203">
        <ele>1218</ele>
        <time>2011-02-19T17:38:58Z</time>
      </trkpt>
      <trkpt lat="45.36224" lon="4.51199">
        <ele>1218</ele>
        <time>2011-02-19T17:39:00Z</time>
      </trkpt>
      <trkpt lat="45.36217" lon="4.51195">
        <ele>1218</ele>
        <time>2011-02-19T17:39:03Z</time>
      </trkpt>
      <trkpt lat="45.36213" lon="4.5119">
        <ele>1219</ele>
        <time>2011-02-19T17:39:05Z</time>
      </trkpt>
      <trkpt lat="45.36207" lon="4.51186">
        <ele>1219</ele>
        <time>2011-02-19T17:39:08Z</time>
      </trkpt>
      <trkpt lat="45.36202" lon="4.51184">
        <ele>1219</ele>
        <time>2011-02-19T17:39:10Z</time>
      </trkpt>
      <trkpt lat="45.36197" lon="4.51182">
        <ele>1219</ele>
        <time>2011-02-19T17:39:12Z</time>
      </trkpt>
      <trkpt lat="45.36192" lon="4.5118">
        <ele>1220</ele>
        <time>2011-02-19T17:39:14Z</time>
      </trkpt>
      <trkpt lat="45.36184" lon="4.51175">
        <ele>1220</ele>
        <time>2011-02-19T17:39:17Z</time>
      </trkpt>
      <trkpt lat="45.3618" lon="4.51171">
        <ele>1220</ele>
        <time>2011-02-19T17:39:19Z</time>
      </trkpt>
      <trkpt lat="45.36173" lon="4.51169">
        <ele>1220</ele>
        <time>2011-02-19T17:39:21Z</time>
      </trkpt>
      <trkpt lat="45.36168" lon="4.51167">
        <ele>1220</ele>
        <time>2011-02-19T17:39:23Z</time>
      </trkpt>
      <trkpt lat="45.36163" lon="4.51163">
        <ele>1221</ele>
        <time>2011-02-19T17:39:25Z</time>
      </trkpt>
      <trkpt lat="45.36156" lon="4.5116">
        <ele>1221</ele>
        <time>2011-02-19T17:39:27Z</time>
      </trkpt>
      <trkpt lat="45.36151" lon="4.51156">
        <ele>1221</ele>
        <time>2011-02-19T17:39:29Z</time>
      </trkpt>
      <trkpt lat="45.36145" lon="4.51154">
        <ele>1221</ele>
        <time>2011-02-19T17:39:31Z</time>
      </trkpt>
      <trkpt lat="45.36139" lon="4.5115">
        <ele>1222</ele>
        <time>2011-02-19T17:39:33Z</time>
      </trkpt>
      <trkpt lat="45.36134" lon="4.51143">
        <ele>1222</ele>
        <time>2011-02-19T17:39:35Z</time>
      </trkpt>
      <trkpt lat="45.36128" lon="4.51139">
        <ele>1222</ele>
        <time>2011-02-19T17:39:37Z</time>
      </trkpt>
      <trkpt lat="45.36123" lon="4.51133">
        <ele>1222</ele>
        <time>2011-02-19T17:39:39Z</time>
      </trkpt>
      <trkpt lat="45.36118" lon="4.51128">
        <ele>1222</ele>
        <time>2011-02-19T17:39:41Z</time>
      </trkpt>
      <trkpt lat="45.36112" lon="4.51122">
        <ele>1222</ele>
        <time>2011-02-19T17:39:43Z</time>
      </trkpt>
      <trkpt lat="45.36107" lon="4.51118">
        <ele>1222</ele>
        <time>2011-02-19T17:39:45Z</time>
      </trkpt>
      <trkpt lat="45.36101" lon="4.51111">
        <ele>1223</ele>
        <time>2011-02-19T17:39:47Z</time>
      </trkpt>
      <trkpt lat="45.36095" lon="4.51107">
        <ele>1223</ele>
        <time>2011-02-19T17:39:49Z</time>
      </trkpt>
      <trkpt lat="45.3609" lon="4.511">
        <ele>1223</ele>
        <time>2011-02-19T17:39:51Z</time>
      </trkpt>
      <trkpt lat="45.36083" lon="4.51096">
        <ele>1223</ele>
        <time>2011-02-19T17:39:53Z</time>
      </trkpt>
      <trkpt lat="45.36078" lon="4.51092">
        <ele>1223</ele>
        <time>2011-02-19T17:39:55Z</time>
      </trkpt>
      <trkpt lat="45.36071" lon="4.51087">
        <ele>1223</ele>
        <time>2011-02-19T17:39:57Z</time>
      </trkpt>
      <trkpt lat="45.36065" lon="4.51085">
        <ele>1223</ele>
        <time>2011-02-19T17:39:59Z</time>
      </trkpt>
      <trkpt lat="45.36059" lon="4.51083">
        <ele>1223</ele>
        <time>2011-02-19T17:40:01Z</time>
      </trkpt>
      <trkpt lat="45.36052" lon="4.51081">
        <ele>1223</ele>
        <time>2011-02-19T17:40:03Z</time>
      </trkpt>
      <trkpt lat="45.36046" lon="4.51079">
        <ele>1223</ele>
        <time>2011-02-19T17:40:05Z</time>
      </trkpt>
      <trkpt lat="45.36039" lon="4.51075">
        <ele>1223</ele>
        <time>2011-02-19T17:40:07Z</time>
      </trkpt>
      <trkpt lat="45.36033" lon="4.51072">
        <ele>1223</ele>
        <time>2011-02-19T17:40:09Z</time>
      </trkpt>
      <trkpt lat="45.36027" lon="4.51068">
        <ele>1223</ele>
        <time>2011-02-19T17:40:11Z</time>
      </trkpt>
      <trkpt lat="45.36021" lon="4.51068">
        <ele>1223</ele>
        <time>2011-02-19T17:40:13Z</time>
      </trkpt>
      <trkpt lat="45.36015" lon="4.51068">
        <ele>1223</ele>
        <time>2011-02-19T17:40:15Z</time>
      </trkpt>
      <trkpt lat="45.36009" lon="4.51066">
        <ele>1223</ele>
        <time>2011-02-19T17:40:17Z</time>
      </trkpt>
      <trkpt lat="45.36003" lon="4.51064">
        <ele>1223</ele>
        <time>2011-02-19T17:40:19Z</time>
      </trkpt>
      <trkpt lat="45.35996" lon="4.51062">
        <ele>1223</ele>
        <time>2011-02-19T17:40:21Z</time>
      </trkpt>
      <trkpt lat="45.3599" lon="4.51062">
        <ele>1223</ele>
        <time>2011-02-19T17:40:23Z</time>
      </trkpt>
      <trkpt lat="45.35983" lon="4.5106">
        <ele>1223</ele>
        <time>2011-02-19T17:40:25Z</time>
      </trkpt>
      <trkpt lat="45.35977" lon="4.5106">
        <ele>1223</ele>
        <time>2011-02-19T17:40:27Z</time>
      </trkpt>
      <trkpt lat="45.35971" lon="4.5106">
        <ele>1223</ele>
        <time>2011-02-19T17:40:29Z</time>
      </trkpt>
      <trkpt lat="45.35964" lon="4.51057">
        <ele>1223</ele>
        <time>2011-02-19T17:40:31Z</time>
      </trkpt>
      <trkpt lat="45.35959" lon="4.51055">
        <ele>1222</ele>
        <time>2011-02-19T17:40:33Z</time>
      </trkpt>
      <trkpt lat="45.35952" lon="4.51055">
        <ele>1222</ele>
        <time>2011-02-19T17:40:35Z</time>
      </trkpt>
      <trkpt lat="45.35946" lon="4.51053">
        <ele>1222</ele>
        <time>2011-02-19T17:40:37Z</time>
      </trkpt>
      <trkpt lat="45.35941" lon="4.51051">
        <ele>1222</ele>
        <time>2011-02-19T17:40:39Z</time>
      </trkpt>
      <trkpt lat="45.35934" lon="4.51049">
        <ele>1221</ele>
        <time>2011-02-19T17:40:41Z</time>
      </trkpt>
      <trkpt lat="45.35929" lon="4.51047">
        <ele>1221</ele>
        <time>2011-02-19T17:40:43Z</time>
      </trkpt>
      <trkpt lat="45.35922" lon="4.51042">
        <ele>1221</ele>
        <time>2011-02-19T17:40:45Z</time>
      </trkpt>
      <trkpt lat="45.35915" lon="4.5104">
        <ele>1220</ele>
        <time>2011-02-19T17:40:47Z</time>
      </trkpt>
      <trkpt lat="45.35907" lon="4.51038">
        <ele>1220</ele>
        <time>2011-02-19T17:40:49Z</time>
      </trkpt>
      <trkpt lat="45.35901" lon="4.51036">
        <ele>1220</ele>
        <time>2011-02-19T17:40:51Z</time>
      </trkpt>
      <trkpt lat="45.35897" lon="4.51034">
        <ele>1219</ele>
        <time>2011-02-19T17:40:52Z</time>
      </trkpt>
      <trkpt lat="45.35889" lon="4.51032">
        <ele>1219</ele>
        <time>2011-02-19T17:40:54Z</time>
      </trkpt>
      <trkpt lat="45.35885" lon="4.5103">
        <ele>1219</ele>
        <time>2011-02-19T17:40:55Z</time>
      </trkpt>
      <trkpt lat="45.35877" lon="4.51027">
        <ele>1218</ele>
        <time>2011-02-19T17:40:57Z</time>
      </trkpt>
      <trkpt lat="45.35871" lon="4.51025">
        <ele>1218</ele>
        <time>2011-02-19T17:40:59Z</time>
      </trkpt>
      <trkpt lat="45.35863" lon="4.51023">
        <ele>1218</ele>
        <time>2011-02-19T17:41:01Z</time>
      </trkpt>
      <trkpt lat="45.35857" lon="4.51023">
        <ele>1217</ele>
        <time>2011-02-19T17:41:03Z</time>
      </trkpt>
      <trkpt lat="45.3585" lon="4.51023">
        <ele>1217</ele>
        <time>2011-02-19T17:41:05Z</time>
      </trkpt>
      <trkpt lat="45.35843" lon="4.51021">
        <ele>1217</ele>
        <time>2011-02-19T17:41:07Z</time>
      </trkpt>
      <trkpt lat="45.35838" lon="4.51021">
        <ele>1217</ele>
        <time>2011-02-19T17:41:09Z</time>
      </trkpt>
      <trkpt lat="45.35831" lon="4.51021">
        <ele>1216</ele>
        <time>2011-02-19T17:41:11Z</time>
      </trkpt>
      <trkpt lat="45.35825" lon="4.51021">
        <ele>1216</ele>
        <time>2011-02-19T17:41:13Z</time>
      </trkpt>
      <trkpt lat="45.35818" lon="4.51021">
        <ele>1216</ele>
        <time>2011-02-19T17:41:15Z</time>
      </trkpt>
      <trkpt lat="45.35813" lon="4.51023">
        <ele>1216</ele>
        <time>2011-02-19T17:41:17Z</time>
      </trkpt>
      <trkpt lat="45.35807" lon="4.51023">
        <ele>1216</ele>
        <time>2011-02-19T17:41:19Z</time>
      </trkpt>
      <trkpt lat="45.35802" lon="4.51025">
        <ele>1215</ele>
        <time>2011-02-19T17:41:21Z</time>
      </trkpt>
      <trkpt lat="45.35796" lon="4.51025">
        <ele>1215</ele>
        <time>2011-02-19T17:41:23Z</time>
      </trkpt>
      <trkpt lat="45.35789" lon="4.51027">
        <ele>1215</ele>
        <time>2011-02-19T17:41:25Z</time>
      </trkpt>
      <trkpt lat="45.35783" lon="4.5103">
        <ele>1215</ele>
        <time>2011-02-19T17:41:27Z</time>
      </trkpt>
      <trkpt lat="45.35775" lon="4.5103">
        <ele>1214</ele>
        <time>2011-02-19T17:41:29Z</time>
      </trkpt>
      <trkpt lat="45.35769" lon="4.51032">
        <ele>1214</ele>
        <time>2011-02-19T17:41:31Z</time>
      </trkpt>
      <trkpt lat="45.35762" lon="4.51034">
        <ele>1214</ele>
        <time>2011-02-19T17:41:33Z</time>
      </trkpt>
      <trkpt lat="45.35757" lon="4.51034">
        <ele>1214</ele>
        <time>2011-02-19T17:41:35Z</time>
      </trkpt>
      <trkpt lat="45.35751" lon="4.51038">
        <ele>1214</ele>
        <time>2011-02-19T17:41:37Z</time>
      </trkpt>
      <trkpt lat="45.35745" lon="4.5104">
        <ele>1214</ele>
        <time>2011-02-19T17:41:39Z</time>
      </trkpt>
      <trkpt lat="45.3574" lon="4.51042">
        <ele>1214</ele>
        <time>2011-02-19T17:41:41Z</time>
      </trkpt>
      <trkpt lat="45.35735" lon="4.51045">
        <ele>1214</ele>
        <time>2011-02-19T17:41:43Z</time>
      </trkpt>
      <trkpt lat="45.35729" lon="4.51047">
        <ele>1214</ele>
        <time>2011-02-19T17:41:45Z</time>
      </trkpt>
      <trkpt lat="45.35724" lon="4.51051">
        <ele>1214</ele>
        <time>2011-02-19T17:41:47Z</time>
      </trkpt>
      <trkpt lat="45.35718" lon="4.51053">
        <ele>1214</ele>
        <time>2011-02-19T17:41:49Z</time>
      </trkpt>
      <trkpt lat="45.35713" lon="4.51055">
        <ele>1214</ele>
        <time>2011-02-19T17:41:51Z</time>
      </trkpt>
      <trkpt lat="45.35708" lon="4.51057">
        <ele>1214</ele>
        <time>2011-02-19T17:41:53Z</time>
      </trkpt>
      <trkpt lat="45.35702" lon="4.51062">
        <ele>1215</ele>
        <time>2011-02-19T17:41:55Z</time>
      </trkpt>
      <trkpt lat="45.35697" lon="4.51066">
        <ele>1215</ele>
        <time>2011-02-19T17:41:57Z</time>
      </trkpt>
      <trkpt lat="45.35691" lon="4.5107">
        <ele>1215</ele>
        <time>2011-02-19T17:41:59Z</time>
      </trkpt>
      <trkpt lat="45.35685" lon="4.51077">
        <ele>1215</ele>
        <time>2011-02-19T17:42:01Z</time>
      </trkpt>
      <trkpt lat="45.35679" lon="4.51083">
        <ele>1215</ele>
        <time>2011-02-19T17:42:03Z</time>
      </trkpt>
      <trkpt lat="45.35672" lon="4.5109">
        <ele>1215</ele>
        <time>2011-02-19T17:42:05Z</time>
      </trkpt>
      <trkpt lat="45.35666" lon="4.51096">
        <ele>1215</ele>
        <time>2011-02-19T17:42:07Z</time>
      </trkpt>
      <trkpt lat="45.35659" lon="4.51102">
        <ele>1215</ele>
        <time>2011-02-19T17:42:09Z</time>
      </trkpt>
      <trkpt lat="45.35654" lon="4.51109">
        <ele>1215</ele>
        <time>2011-02-19T17:42:11Z</time>
      </trkpt>
      <trkpt lat="45.35648" lon="4.51113">
        <ele>1215</ele>
        <time>2011-02-19T17:42:13Z</time>
      </trkpt>
      <trkpt lat="45.35642" lon="4.5112">
        <ele>1215</ele>
        <time>2011-02-19T17:42:15Z</time>
      </trkpt>
      <trkpt lat="45.35637" lon="4.51126">
        <ele>1215</ele>
        <time>2011-02-19T17:42:17Z</time>
      </trkpt>
      <trkpt lat="45.35632" lon="4.51133">
        <ele>1215</ele>
        <time>2011-02-19T17:42:19Z</time>
      </trkpt>
      <trkpt lat="45.35626" lon="4.51139">
        <ele>1215</ele>
        <time>2011-02-19T17:42:21Z</time>
      </trkpt>
      <trkpt lat="45.35621" lon="4.51143">
        <ele>1215</ele>
        <time>2011-02-19T17:42:23Z</time>
      </trkpt>
      <trkpt lat="45.35617" lon="4.51148">
        <ele>1215</ele>
        <time>2011-02-19T17:42:25Z</time>
      </trkpt>
      <trkpt lat="45.35611" lon="4.51152">
        <ele>1215</ele>
        <time>2011-02-19T17:42:27Z</time>
      </trkpt>
      <trkpt lat="45.35606" lon="4.51156">
        <ele>1215</ele>
        <time>2011-02-19T17:42:29Z</time>
      </trkpt>
      <trkpt lat="45.356" lon="4.51158">
        <ele>1215</ele>
        <time>2011-02-19T17:42:31Z</time>
      </trkpt>
      <trkpt lat="45.35595" lon="4.5116">
        <ele>1215</ele>
        <time>2011-02-19T17:42:33Z</time>
      </trkpt>
      <trkpt lat="45.3559" lon="4.51165">
        <ele>1214</ele>
        <time>2011-02-19T17:42:35Z</time>
      </trkpt>
      <trkpt lat="45.35584" lon="4.51167">
        <ele>1214</ele>
        <time>2011-02-19T17:42:37Z</time>
      </trkpt>
      <trkpt lat="45.3558" lon="4.51169">
        <ele>1214</ele>
        <time>2011-02-19T17:42:39Z</time>
      </trkpt>
      <trkpt lat="45.35575" lon="4.51173">
        <ele>1214</ele>
        <time>2011-02-19T17:42:41Z</time>
      </trkpt>
      <trkpt lat="45.3557" lon="4.51178">
        <ele>1214</ele>
        <time>2011-02-19T17:42:43Z</time>
      </trkpt>
      <trkpt lat="45.35565" lon="4.51184">
        <ele>1214</ele>
        <time>2011-02-19T17:42:46Z</time>
      </trkpt>
      <trkpt lat="45.3556" lon="4.5119">
        <ele>1214</ele>
        <time>2011-02-19T17:42:49Z</time>
      </trkpt>
      <trkpt lat="45.35555" lon="4.51197">
        <ele>1214</ele>
        <time>2011-02-19T17:42:51Z</time>
      </trkpt>
      <trkpt lat="45.35551" lon="4.51203">
        <ele>1214</ele>
        <time>2011-02-19T17:42:54Z</time>
      </trkpt>
      <trkpt lat="45.35547" lon="4.5121">
        <ele>1214</ele>
        <time>2011-02-19T17:42:56Z</time>
      </trkpt>
      <trkpt lat="45.35542" lon="4.51218">
        <ele>1214</ele>
        <time>2011-02-19T17:42:59Z</time>
      </trkpt>
      <trkpt lat="45.35538" lon="4.51223">
        <ele>1214</ele>
        <time>2011-02-19T17:43:01Z</time>
      </trkpt>
      <trkpt lat="45.35535" lon="4.51229">
        <ele>1214</ele>
        <time>2011-02-19T17:43:03Z</time>
      </trkpt>
      <trkpt lat="45.35531" lon="4.51233">
        <ele>1215</ele>
        <time>2011-02-19T17:43:05Z</time>
      </trkpt>
      <trkpt lat="45.35526" lon="4.51238">
        <ele>1215</ele>
        <time>2011-02-19T17:43:07Z</time>
      </trkpt>
      <trkpt lat="45.35522" lon="4.51242">
        <ele>1215</ele>
        <time>2011-02-19T17:43:09Z</time>
      </trkpt>
      <trkpt lat="45.35518" lon="4.51246">
        <ele>1216</ele>
        <time>2011-02-19T17:43:11Z</time>
      </trkpt>
      <trkpt lat="45.35514" lon="4.51251">
        <ele>1216</ele>
        <time>2011-02-19T17:43:13Z</time>
      </trkpt>
      <trkpt lat="45.35509" lon="4.51255">
        <ele>1216</ele>
        <time>2011-02-19T17:43:15Z</time>
      </trkpt>
      <trkpt lat="45.35505" lon="4.51261">
        <ele>1217</ele>
        <time>2011-02-19T17:43:18Z</time>
      </trkpt>
      <trkpt lat="45.35502" lon="4.51268">
        <ele>1217</ele>
        <time>2011-02-19T17:43:20Z</time>
      </trkpt>
      <trkpt lat="45.35496" lon="4.51276">
        <ele>1217</ele>
        <time>2011-02-19T17:43:23Z</time>
      </trkpt>
      <trkpt lat="45.35491" lon="4.51283">
        <ele>1217</ele>
        <time>2011-02-19T17:43:26Z</time>
      </trkpt>
      <trkpt lat="45.35488" lon="4.51289">
        <ele>1217</ele>
        <time>2011-02-19T17:43:28Z</time>
      </trkpt>
      <trkpt lat="45.35482" lon="4.51296">
        <ele>1218</ele>
        <time>2011-02-19T17:43:31Z</time>
      </trkpt>
      <trkpt lat="45.35478" lon="4.51302">
        <ele>1218</ele>
        <time>2011-02-19T17:43:34Z</time>
      </trkpt>
      <trkpt lat="45.35474" lon="4.51306">
        <ele>1218</ele>
        <time>2011-02-19T17:43:36Z</time>
      </trkpt>
      <trkpt lat="45.3547" lon="4.51313">
        <ele>1219</ele>
        <time>2011-02-19T17:43:39Z</time>
      </trkpt>
      <trkpt lat="45.35465" lon="4.51317">
        <ele>1219</ele>
        <time>2011-02-19T17:43:41Z</time>
      </trkpt>
      <trkpt lat="45.35461" lon="4.51324">
        <ele>1219</ele>
        <time>2011-02-19T17:43:44Z</time>
      </trkpt>
      <trkpt lat="45.35457" lon="4.5133">
        <ele>1219</ele>
        <time>2011-02-19T17:43:47Z</time>
      </trkpt>
      <trkpt lat="45.35451" lon="4.51336">
        <ele>1219</ele>
        <time>2011-02-19T17:43:50Z</time>
      </trkpt>
      <trkpt lat="45.35447" lon="4.51343">
        <ele>1219</ele>
        <time>2011-02-19T17:43:53Z</time>
      </trkpt>
      <trkpt lat="45.35443" lon="4.51349">
        <ele>1219</ele>
        <time>2011-02-19T17:43:56Z</time>
      </trkpt>
      <trkpt lat="45.35439" lon="4.51356">
        <ele>1219</ele>
        <time>2011-02-19T17:43:58Z</time>
      </trkpt>
      <trkpt lat="45.35434" lon="4.51362">
        <ele>1219</ele>
        <time>2011-02-19T17:44:01Z</time>
      </trkpt>
      <trkpt lat="45.35431" lon="4.51369">
        <ele>1218</ele>
        <time>2011-02-19T17:44:03Z</time>
      </trkpt>
      <trkpt lat="45.35427" lon="4.51375">
        <ele>1218</ele>
        <time>2011-02-19T17:44:05Z</time>
      </trkpt>
      <trkpt lat="45.35422" lon="4.51384">
        <ele>1217</ele>
        <time>2011-02-19T17:44:08Z</time>
      </trkpt>
      <trkpt lat="45.35419" lon="4.5139">
        <ele>1217</ele>
        <time>2011-02-19T17:44:10Z</time>
      </trkpt>
      <trkpt lat="45.35416" lon="4.51396">
        <ele>1217</ele>
        <time>2011-02-19T17:44:12Z</time>
      </trkpt>
      <trkpt lat="45.35413" lon="4.51403">
        <ele>1217</ele>
        <time>2011-02-19T17:44:14Z</time>
      </trkpt>
      <trkpt lat="45.35409" lon="4.51409">
        <ele>1216</ele>
        <time>2011-02-19T17:44:16Z</time>
      </trkpt>
      <trkpt lat="45.35407" lon="4.51416">
        <ele>1216</ele>
        <time>2011-02-19T17:44:18Z</time>
      </trkpt>
      <trkpt lat="45.35404" lon="4.51424">
        <ele>1216</ele>
        <time>2011-02-19T17:44:20Z</time>
      </trkpt>
      <trkpt lat="45.35402" lon="4.51431">
        <ele>1216</ele>
        <time>2011-02-19T17:44:22Z</time>
      </trkpt>
      <trkpt lat="45.354" lon="4.51437">
        <ele>1216</ele>
        <time>2011-02-19T17:44:24Z</time>
      </trkpt>
      <trkpt lat="45.35397" lon="4.51444">
        <ele>1216</ele>
        <time>2011-02-19T17:44:26Z</time>
      </trkpt>
      <trkpt lat="45.35394" lon="4.5145">
        <ele>1216</ele>
        <time>2011-02-19T17:44:28Z</time>
      </trkpt>
      <trkpt lat="45.35393" lon="4.51457">
        <ele>1216</ele>
        <time>2011-02-19T17:44:30Z</time>
      </trkpt>
      <trkpt lat="45.35391" lon="4.51463">
        <ele>1216</ele>
        <time>2011-02-19T17:44:32Z</time>
      </trkpt>
      <trkpt lat="45.3539" lon="4.51469">
        <ele>1216</ele>
        <time>2011-02-19T17:44:34Z</time>
      </trkpt>
      <trkpt lat="45.35388" lon="4.51476">
        <ele>1216</ele>
        <time>2011-02-19T17:44:36Z</time>
      </trkpt>
      <trkpt lat="45.35387" lon="4.51482">
        <ele>1216</ele>
        <time>2011-02-19T17:44:39Z</time>
      </trkpt>
      <trkpt lat="45.35387" lon="4.51489">
        <ele>1216</ele>
        <time>2011-02-19T17:44:41Z</time>
      </trkpt>
      <trkpt lat="45.35387" lon="4.51495">
        <ele>1216</ele>
        <time>2011-02-19T17:44:44Z</time>
      </trkpt>
      <trkpt lat="45.35388" lon="4.51502">
        <ele>1216</ele>
        <time>2011-02-19T17:44:47Z</time>
      </trkpt>
      <trkpt lat="45.35391" lon="4.51508">
        <ele>1216</ele>
        <time>2011-02-19T17:44:51Z</time>
      </trkpt>
      <trkpt lat="45.35392" lon="4.51514">
        <ele>1216</ele>
        <time>2011-02-19T17:44:54Z</time>
      </trkpt>
      <trkpt lat="45.35393" lon="4.51523">
        <ele>1216</ele>
        <time>2011-02-19T17:44:57Z</time>
      </trkpt>
      <trkpt lat="45.35392" lon="4.5153">
        <ele>1216</ele>
        <time>2011-02-19T17:44:59Z</time>
      </trkpt>
      <trkpt lat="45.35391" lon="4.51538">
        <ele>1215</ele>
        <time>2011-02-19T17:45:01Z</time>
      </trkpt>
      <trkpt lat="45.35388" lon="4.51547">
        <ele>1215</ele>
        <time>2011-02-19T17:45:03Z</time>
      </trkpt>
      <trkpt lat="45.35386" lon="4.51553">
        <ele>1215</ele>
        <time>2011-02-19T17:45:04Z</time>
      </trkpt>
      <trkpt lat="45.35384" lon="4.5156">
        <ele>1215</ele>
        <time>2011-02-19T17:45:05Z</time>
      </trkpt>
      <trkpt lat="45.35379" lon="4.5157">
        <ele>1215</ele>
        <time>2011-02-19T17:45:07Z</time>
      </trkpt>
      <trkpt lat="45.35375" lon="4.51579">
        <ele>1215</ele>
        <time>2011-02-19T17:45:09Z</time>
      </trkpt>
      <trkpt lat="45.35371" lon="4.51585">
        <ele>1215</ele>
        <time>2011-02-19T17:45:11Z</time>
      </trkpt>
      <trkpt lat="45.35365" lon="4.51594">
        <ele>1215</ele>
        <time>2011-02-19T17:45:13Z</time>
      </trkpt>
      <trkpt lat="45.35362" lon="4.516">
        <ele>1215</ele>
        <time>2011-02-19T17:45:15Z</time>
      </trkpt>
      <trkpt lat="45.35358" lon="4.51605">
        <ele>1215</ele>
        <time>2011-02-19T17:45:17Z</time>
      </trkpt>
      <trkpt lat="45.35354" lon="4.51609">
        <ele>1215</ele>
        <time>2011-02-19T17:45:19Z</time>
      </trkpt>
      <trkpt lat="45.35349" lon="4.51613">
        <ele>1216</ele>
        <time>2011-02-19T17:45:21Z</time>
      </trkpt>
      <trkpt lat="45.35345" lon="4.51615">
        <ele>1216</ele>
        <time>2011-02-19T17:45:23Z</time>
      </trkpt>
      <trkpt lat="45.3534" lon="4.51617">
        <ele>1216</ele>
        <time>2011-02-19T17:45:26Z</time>
      </trkpt>
      <trkpt lat="45.35333" lon="4.5162">
        <ele>1217</ele>
        <time>2011-02-19T17:45:29Z</time>
      </trkpt>
      <trkpt lat="45.35327" lon="4.5162">
        <ele>1217</ele>
        <time>2011-02-19T17:45:32Z</time>
      </trkpt>
      <trkpt lat="45.35323" lon="4.51617">
        <ele>1217</ele>
        <time>2011-02-19T17:45:34Z</time>
      </trkpt>
      <trkpt lat="45.35316" lon="4.51615">
        <ele>1218</ele>
        <time>2011-02-19T17:45:37Z</time>
      </trkpt>
      <trkpt lat="45.35312" lon="4.51613">
        <ele>1218</ele>
        <time>2011-02-19T17:45:39Z</time>
      </trkpt>
      <trkpt lat="45.35308" lon="4.51611">
        <ele>1218</ele>
        <time>2011-02-19T17:45:41Z</time>
      </trkpt>
      <trkpt lat="45.35302" lon="4.51611">
        <ele>1219</ele>
        <time>2011-02-19T17:45:44Z</time>
      </trkpt>
      <trkpt lat="45.35296" lon="4.51609">
        <ele>1219</ele>
        <time>2011-02-19T17:45:47Z</time>
      </trkpt>
      <trkpt lat="45.3529" lon="4.51607">
        <ele>1220</ele>
        <time>2011-02-19T17:45:50Z</time>
      </trkpt>
      <trkpt lat="45.35285" lon="4.51605">
        <ele>1220</ele>
        <time>2011-02-19T17:45:52Z</time>
      </trkpt>
      <trkpt lat="45.35279" lon="4.51602">
        <ele>1221</ele>
        <time>2011-02-19T17:45:55Z</time>
      </trkpt>
      <trkpt lat="45.35271" lon="4.516">
        <ele>1221</ele>
        <time>2011-02-19T17:45:58Z</time>
      </trkpt>
      <trkpt lat="45.35266" lon="4.51596">
        <ele>1222</ele>
        <time>2011-02-19T17:46:00Z</time>
      </trkpt>
      <trkpt lat="45.35258" lon="4.51594">
        <ele>1222</ele>
        <time>2011-02-19T17:46:03Z</time>
      </trkpt>
      <trkpt lat="45.35253" lon="4.51592">
        <ele>1223</ele>
        <time>2011-02-19T17:46:05Z</time>
      </trkpt>
      <trkpt lat="45.35249" lon="4.5159">
        <ele>1223</ele>
        <time>2011-02-19T17:46:07Z</time>
      </trkpt>
      <trkpt lat="45.35242" lon="4.5159">
        <ele>1223</ele>
        <time>2011-02-19T17:46:09Z</time>
      </trkpt>
      <trkpt lat="45.35237" lon="4.5159">
        <ele>1223</ele>
        <time>2011-02-19T17:46:11Z</time>
      </trkpt>
      <trkpt lat="45.35231" lon="4.5159">
        <ele>1224</ele>
        <time>2011-02-19T17:46:13Z</time>
      </trkpt>
      <trkpt lat="45.35226" lon="4.5159">
        <ele>1224</ele>
        <time>2011-02-19T17:46:15Z</time>
      </trkpt>
      <trkpt lat="45.35221" lon="4.51587">
        <ele>1224</ele>
        <time>2011-02-19T17:46:17Z</time>
      </trkpt>
      <trkpt lat="45.35215" lon="4.51587">
        <ele>1225</ele>
        <time>2011-02-19T17:46:19Z</time>
      </trkpt>
      <trkpt lat="45.3521" lon="4.51585">
        <ele>1225</ele>
        <time>2011-02-19T17:46:21Z</time>
      </trkpt>
      <trkpt lat="45.35202" lon="4.51583">
        <ele>1225</ele>
        <time>2011-02-19T17:46:24Z</time>
      </trkpt>
      <trkpt lat="45.35195" lon="4.51583">
        <ele>1226</ele>
        <time>2011-02-19T17:46:27Z</time>
      </trkpt>
      <trkpt lat="45.35188" lon="4.51581">
        <ele>1226</ele>
        <time>2011-02-19T17:46:30Z</time>
      </trkpt>
      <trkpt lat="45.35183" lon="4.51579">
        <ele>1226</ele>
        <time>2011-02-19T17:46:32Z</time>
      </trkpt>
      <trkpt lat="45.35178" lon="4.51579">
        <ele>1227</ele>
        <time>2011-02-19T17:46:34Z</time>
      </trkpt>
      <trkpt lat="45.3517" lon="4.51579">
        <ele>1227</ele>
        <time>2011-02-19T17:46:37Z</time>
      </trkpt>
      <trkpt lat="45.35165" lon="4.51579">
        <ele>1227</ele>
        <time>2011-02-19T17:46:39Z</time>
      </trkpt>
      <trkpt lat="45.35159" lon="4.51579">
        <ele>1227</ele>
        <time>2011-02-19T17:46:41Z</time>
      </trkpt>
      <trkpt lat="45.35154" lon="4.51579">
        <ele>1227</ele>
        <time>2011-02-19T17:46:43Z</time>
      </trkpt>
      <trkpt lat="45.35147" lon="4.51579">
        <ele>1227</ele>
        <time>2011-02-19T17:46:46Z</time>
      </trkpt>
      <trkpt lat="45.35141" lon="4.51579">
        <ele>1228</ele>
        <time>2011-02-19T17:46:48Z</time>
      </trkpt>
      <trkpt lat="45.35136" lon="4.51579">
        <ele>1228</ele>
        <time>2011-02-19T17:46:50Z</time>
      </trkpt>
      <trkpt lat="45.35129" lon="4.51579">
        <ele>1228</ele>
        <time>2011-02-19T17:46:52Z</time>
      </trkpt>
      <trkpt lat="45.35124" lon="4.51581">
        <ele>1228</ele>
        <time>2011-02-19T17:46:54Z</time>
      </trkpt>
      <trkpt lat="45.35118" lon="4.51583">
        <ele>1228</ele>
        <time>2011-02-19T17:46:56Z</time>
      </trkpt>
      <trkpt lat="45.35112" lon="4.51583">
        <ele>1228</ele>
        <time>2011-02-19T17:46:58Z</time>
      </trkpt>
      <trkpt lat="45.35106" lon="4.51583">
        <ele>1228</ele>
        <time>2011-02-19T17:47:00Z</time>
      </trkpt>
      <trkpt lat="45.351" lon="4.51583">
        <ele>1228</ele>
        <time>2011-02-19T17:47:02Z</time>
      </trkpt>
      <trkpt lat="45.35095" lon="4.51585">
        <ele>1229</ele>
        <time>2011-02-19T17:47:04Z</time>
      </trkpt>
      <trkpt lat="45.35089" lon="4.51587">
        <ele>1229</ele>
        <time>2011-02-19T17:47:07Z</time>
      </trkpt>
      <trkpt lat="45.35083" lon="4.5159">
        <ele>1229</ele>
        <time>2011-02-19T17:47:09Z</time>
      </trkpt>
      <trkpt lat="45.35076" lon="4.51592">
        <ele>1230</ele>
        <time>2011-02-19T17:47:12Z</time>
      </trkpt>
      <trkpt lat="45.35068" lon="4.51594">
        <ele>1230</ele>
        <time>2011-02-19T17:47:15Z</time>
      </trkpt>
      <trkpt lat="45.35061" lon="4.51594">
        <ele>1231</ele>
        <time>2011-02-19T17:47:18Z</time>
      </trkpt>
      <trkpt lat="45.35053" lon="4.51592">
        <ele>1231</ele>
        <time>2011-02-19T17:47:21Z</time>
      </trkpt>
      <trkpt lat="45.35046" lon="4.5159">
        <ele>1232</ele>
        <time>2011-02-19T17:47:24Z</time>
      </trkpt>
      <trkpt lat="45.3504" lon="4.51587">
        <ele>1232</ele>
        <time>2011-02-19T17:47:26Z</time>
      </trkpt>
      <trkpt lat="45.35034" lon="4.51585">
        <ele>1232</ele>
        <time>2011-02-19T17:47:28Z</time>
      </trkpt>
      <trkpt lat="45.35028" lon="4.51585">
        <ele>1232</ele>
        <time>2011-02-19T17:47:30Z</time>
      </trkpt>
      <trkpt lat="45.35021" lon="4.51583">
        <ele>1233</ele>
        <time>2011-02-19T17:47:32Z</time>
      </trkpt>
      <trkpt lat="45.35015" lon="4.51581">
        <ele>1233</ele>
        <time>2011-02-19T17:47:34Z</time>
      </trkpt>
      <trkpt lat="45.35008" lon="4.51581">
        <ele>1233</ele>
        <time>2011-02-19T17:47:36Z</time>
      </trkpt>
      <trkpt lat="45.35002" lon="4.51579">
        <ele>1233</ele>
        <time>2011-02-19T17:47:38Z</time>
      </trkpt>
      <trkpt lat="45.34995" lon="4.51579">
        <ele>1233</ele>
        <time>2011-02-19T17:47:40Z</time>
      </trkpt>
      <trkpt lat="45.3499" lon="4.51577">
        <ele>1233</ele>
        <time>2011-02-19T17:47:42Z</time>
      </trkpt>
      <trkpt lat="45.34985" lon="4.51577">
        <ele>1233</ele>
        <time>2011-02-19T17:47:44Z</time>
      </trkpt>
      <trkpt lat="45.34979" lon="4.51575">
        <ele>1233</ele>
        <time>2011-02-19T17:47:46Z</time>
      </trkpt>
      <trkpt lat="45.34974" lon="4.51575">
        <ele>1233</ele>
        <time>2011-02-19T17:47:48Z</time>
      </trkpt>
      <trkpt lat="45.34968" lon="4.51572">
        <ele>1233</ele>
        <time>2011-02-19T17:47:50Z</time>
      </trkpt>
      <trkpt lat="45.34963" lon="4.5157">
        <ele>1234</ele>
        <time>2011-02-19T17:47:52Z</time>
      </trkpt>
      <trkpt lat="45.34957" lon="4.5157">
        <ele>1234</ele>
        <time>2011-02-19T17:47:54Z</time>
      </trkpt>
      <trkpt lat="45.34951" lon="4.51566">
        <ele>1234</ele>
        <time>2011-02-19T17:47:56Z</time>
      </trkpt>
      <trkpt lat="45.34946" lon="4.51566">
        <ele>1234</ele>
        <time>2011-02-19T17:47:58Z</time>
      </trkpt>
      <trkpt lat="45.34941" lon="4.51564">
        <ele>1234</ele>
        <time>2011-02-19T17:48:00Z</time>
      </trkpt>
      <trkpt lat="45.34935" lon="4.51564">
        <ele>1235</ele>
        <time>2011-02-19T17:48:02Z</time>
      </trkpt>
      <trkpt lat="45.34931" lon="4.51562">
        <ele>1235</ele>
        <time>2011-02-19T17:48:04Z</time>
      </trkpt>
      <trkpt lat="45.34927" lon="4.51557">
        <ele>1235</ele>
        <time>2011-02-19T17:48:06Z</time>
      </trkpt>
      <trkpt lat="45.34921" lon="4.51551">
        <ele>1235</ele>
        <time>2011-02-19T17:48:09Z</time>
      </trkpt>
      <trkpt lat="45.34918" lon="4.51545">
        <ele>1235</ele>
        <time>2011-02-19T17:48:11Z</time>
      </trkpt>
      <trkpt lat="45.34916" lon="4.51538">
        <ele>1236</ele>
        <time>2011-02-19T17:48:13Z</time>
      </trkpt>
      <trkpt lat="45.34914" lon="4.51532">
        <ele>1236</ele>
        <time>2011-02-19T17:48:15Z</time>
      </trkpt>
      <trkpt lat="45.34914" lon="4.51523">
        <ele>1236</ele>
        <time>2011-02-19T17:48:17Z</time>
      </trkpt>
      <trkpt lat="45.34914" lon="4.51512">
        <ele>1236</ele>
        <time>2011-02-19T17:48:20Z</time>
      </trkpt>
      <trkpt lat="45.34915" lon="4.51504">
        <ele>1236</ele>
        <time>2011-02-19T17:48:22Z</time>
      </trkpt>
      <trkpt lat="45.34916" lon="4.51495">
        <ele>1236</ele>
        <time>2011-02-19T17:48:24Z</time>
      </trkpt>
      <trkpt lat="45.34917" lon="4.51487">
        <ele>1236</ele>
        <time>2011-02-19T17:48:26Z</time>
      </trkpt>
      <trkpt lat="45.34918" lon="4.51478">
        <ele>1236</ele>
        <time>2011-02-19T17:48:28Z</time>
      </trkpt>
      <trkpt lat="45.34918" lon="4.51472">
        <ele>1235</ele>
        <time>2011-02-19T17:48:30Z</time>
      </trkpt>
      <trkpt lat="45.34918" lon="4.51463">
        <ele>1235</ele>
        <time>2011-02-19T17:48:32Z</time>
      </trkpt>
      <trkpt lat="45.34918" lon="4.51454">
        <ele>1235</ele>
        <time>2011-02-19T17:48:34Z</time>
      </trkpt>
      <trkpt lat="45.34918" lon="4.51448">
        <ele>1235</ele>
        <time>2011-02-19T17:48:36Z</time>
      </trkpt>
      <trkpt lat="45.34918" lon="4.51437">
        <ele>1235</ele>
        <time>2011-02-19T17:48:39Z</time>
      </trkpt>
      <trkpt lat="45.34918" lon="4.51431">
        <ele>1235</ele>
        <time>2011-02-19T17:48:41Z</time>
      </trkpt>
      <trkpt lat="45.34919" lon="4.51422">
        <ele>1235</ele>
        <time>2011-02-19T17:48:43Z</time>
      </trkpt>
      <trkpt lat="45.34921" lon="4.51416">
        <ele>1234</ele>
        <time>2011-02-19T17:48:45Z</time>
      </trkpt>
      <trkpt lat="45.34923" lon="4.51409">
        <ele>1234</ele>
        <time>2011-02-19T17:48:47Z</time>
      </trkpt>
      <trkpt lat="45.34926" lon="4.51403">
        <ele>1234</ele>
        <time>2011-02-19T17:48:49Z</time>
      </trkpt>
      <trkpt lat="45.34929" lon="4.51396">
        <ele>1233</ele>
        <time>2011-02-19T17:48:52Z</time>
      </trkpt>
      <trkpt lat="45.34934" lon="4.5139">
        <ele>1232</ele>
        <time>2011-02-19T17:48:55Z</time>
      </trkpt>
      <trkpt lat="45.34941" lon="4.51384">
        <ele>1232</ele>
        <time>2011-02-19T17:48:58Z</time>
      </trkpt>
      <trkpt lat="45.34945" lon="4.51379">
        <ele>1231</ele>
        <time>2011-02-19T17:49:00Z</time>
      </trkpt>
      <trkpt lat="45.34949" lon="4.51373">
        <ele>1231</ele>
        <time>2011-02-19T17:49:02Z</time>
      </trkpt>
      <trkpt lat="45.34955" lon="4.51369">
        <ele>1230</ele>
        <time>2011-02-19T17:49:04Z</time>
      </trkpt>
      <trkpt lat="45.3496" lon="4.51364">
        <ele>1230</ele>
        <time>2011-02-19T17:49:06Z</time>
      </trkpt>
      <trkpt lat="45.34964" lon="4.51358">
        <ele>1229</ele>
        <time>2011-02-19T17:49:08Z</time>
      </trkpt>
      <trkpt lat="45.34968" lon="4.51354">
        <ele>1228</ele>
        <time>2011-02-19T17:49:10Z</time>
      </trkpt>
      <trkpt lat="45.34974" lon="4.51347">
        <ele>1228</ele>
        <time>2011-02-19T17:49:12Z</time>
      </trkpt>
      <trkpt lat="45.34978" lon="4.51343">
        <ele>1227</ele>
        <time>2011-02-19T17:49:14Z</time>
      </trkpt>
      <trkpt lat="45.34982" lon="4.51339">
        <ele>1227</ele>
        <time>2011-02-19T17:49:16Z</time>
      </trkpt>
      <trkpt lat="45.34988" lon="4.51334">
        <ele>1226</ele>
        <time>2011-02-19T17:49:18Z</time>
      </trkpt>
      <trkpt lat="45.34992" lon="4.5133">
        <ele>1226</ele>
        <time>2011-02-19T17:49:20Z</time>
      </trkpt>
      <trkpt lat="45.34996" lon="4.51326">
        <ele>1225</ele>
        <time>2011-02-19T17:49:22Z</time>
      </trkpt>
      <trkpt lat="45.35002" lon="4.51324">
        <ele>1224</ele>
        <time>2011-02-19T17:49:24Z</time>
      </trkpt>
      <trkpt lat="45.35006" lon="4.51319">
        <ele>1224</ele>
        <time>2011-02-19T17:49:26Z</time>
      </trkpt>
      <trkpt lat="45.3501" lon="4.51317">
        <ele>1223</ele>
        <time>2011-02-19T17:49:28Z</time>
      </trkpt>
      <trkpt lat="45.35016" lon="4.51313">
        <ele>1223</ele>
        <time>2011-02-19T17:49:30Z</time>
      </trkpt>
      <trkpt lat="45.3502" lon="4.51311">
        <ele>1223</ele>
        <time>2011-02-19T17:49:32Z</time>
      </trkpt>
      <trkpt lat="45.35025" lon="4.51306">
        <ele>1222</ele>
        <time>2011-02-19T17:49:34Z</time>
      </trkpt>
      <trkpt lat="45.35031" lon="4.513">
        <ele>1222</ele>
        <time>2011-02-19T17:49:36Z</time>
      </trkpt>
      <trkpt lat="45.35036" lon="4.51291">
        <ele>1221</ele>
        <time>2011-02-19T17:49:38Z</time>
      </trkpt>
      <trkpt lat="45.35041" lon="4.51283">
        <ele>1221</ele>
        <time>2011-02-19T17:49:40Z</time>
      </trkpt>
      <trkpt lat="45.35046" lon="4.51274">
        <ele>1220</ele>
        <time>2011-02-19T17:49:42Z</time>
      </trkpt>
      <trkpt lat="45.35051" lon="4.51266">
        <ele>1220</ele>
        <time>2011-02-19T17:49:44Z</time>
      </trkpt>
      <trkpt lat="45.35055" lon="4.51257">
        <ele>1219</ele>
        <time>2011-02-19T17:49:46Z</time>
      </trkpt>
      <trkpt lat="45.3506" lon="4.51248">
        <ele>1219</ele>
        <time>2011-02-19T17:49:48Z</time>
      </trkpt>
      <trkpt lat="45.35063" lon="4.5124">
        <ele>1218</ele>
        <time>2011-02-19T17:49:50Z</time>
      </trkpt>
      <trkpt lat="45.35065" lon="4.51231">
        <ele>1217</ele>
        <time>2011-02-19T17:49:52Z</time>
      </trkpt>
      <trkpt lat="45.35068" lon="4.51225">
        <ele>1217</ele>
        <time>2011-02-19T17:49:54Z</time>
      </trkpt>
      <trkpt lat="45.3507" lon="4.51216">
        <ele>1216</ele>
        <time>2011-02-19T17:49:56Z</time>
      </trkpt>
      <trkpt lat="45.35071" lon="4.5121">
        <ele>1215</ele>
        <time>2011-02-19T17:49:58Z</time>
      </trkpt>
      <trkpt lat="45.35073" lon="4.51201">
        <ele>1215</ele>
        <time>2011-02-19T17:50:00Z</time>
      </trkpt>
      <trkpt lat="45.35073" lon="4.51195">
        <ele>1214</ele>
        <time>2011-02-19T17:50:02Z</time>
      </trkpt>
      <trkpt lat="45.35073" lon="4.51186">
        <ele>1214</ele>
        <time>2011-02-19T17:50:04Z</time>
      </trkpt>
      <trkpt lat="45.35073" lon="4.51175">
        <ele>1213</ele>
        <time>2011-02-19T17:50:07Z</time>
      </trkpt>
      <trkpt lat="45.35071" lon="4.51167">
        <ele>1212</ele>
        <time>2011-02-19T17:50:09Z</time>
      </trkpt>
      <trkpt lat="45.3507" lon="4.51156">
        <ele>1212</ele>
        <time>2011-02-19T17:50:12Z</time>
      </trkpt>
      <trkpt lat="45.3507" lon="4.51148">
        <ele>1212</ele>
        <time>2011-02-19T17:50:14Z</time>
      </trkpt>
      <trkpt lat="45.3507" lon="4.51141">
        <ele>1211</ele>
        <time>2011-02-19T17:50:16Z</time>
      </trkpt>
      <trkpt lat="45.35069" lon="4.51133">
        <ele>1211</ele>
        <time>2011-02-19T17:50:18Z</time>
      </trkpt>
      <trkpt lat="45.35068" lon="4.51124">
        <ele>1211</ele>
        <time>2011-02-19T17:50:20Z</time>
      </trkpt>
      <trkpt lat="45.35068" lon="4.51118">
        <ele>1211</ele>
        <time>2011-02-19T17:50:22Z</time>
      </trkpt>
      <trkpt lat="45.35066" lon="4.51109">
        <ele>1210</ele>
        <time>2011-02-19T17:50:24Z</time>
      </trkpt>
      <trkpt lat="45.35065" lon="4.511">
        <ele>1210</ele>
        <time>2011-02-19T17:50:26Z</time>
      </trkpt>
      <trkpt lat="45.35064" lon="4.5109">
        <ele>1209</ele>
        <time>2011-02-19T17:50:28Z</time>
      </trkpt>
      <trkpt lat="45.35064" lon="4.51081">
        <ele>1209</ele>
        <time>2011-02-19T17:50:30Z</time>
      </trkpt>
      <trkpt lat="45.35064" lon="4.51075">
        <ele>1209</ele>
        <time>2011-02-19T17:50:31Z</time>
      </trkpt>
      <trkpt lat="45.35065" lon="4.51064">
        <ele>1208</ele>
        <time>2011-02-19T17:50:33Z</time>
      </trkpt>
      <trkpt lat="45.35066" lon="4.51053">
        <ele>1208</ele>
        <time>2011-02-19T17:50:35Z</time>
      </trkpt>
      <trkpt lat="45.35067" lon="4.51045">
        <ele>1208</ele>
        <time>2011-02-19T17:50:37Z</time>
      </trkpt>
      <trkpt lat="45.35069" lon="4.51038">
        <ele>1207</ele>
        <time>2011-02-19T17:50:38Z</time>
      </trkpt>
      <trkpt lat="45.35071" lon="4.5103">
        <ele>1207</ele>
        <time>2011-02-19T17:50:40Z</time>
      </trkpt>
      <trkpt lat="45.35075" lon="4.51021">
        <ele>1207</ele>
        <time>2011-02-19T17:50:42Z</time>
      </trkpt>
      <trkpt lat="45.35078" lon="4.51012">
        <ele>1206</ele>
        <time>2011-02-19T17:50:44Z</time>
      </trkpt>
      <trkpt lat="45.35081" lon="4.51004">
        <ele>1206</ele>
        <time>2011-02-19T17:50:46Z</time>
      </trkpt>
      <trkpt lat="45.35084" lon="4.50997">
        <ele>1206</ele>
        <time>2011-02-19T17:50:48Z</time>
      </trkpt>
      <trkpt lat="45.35087" lon="4.50991">
        <ele>1206</ele>
        <time>2011-02-19T17:50:49Z</time>
      </trkpt>
      <trkpt lat="45.3509" lon="4.50982">
        <ele>1205</ele>
        <time>2011-02-19T17:50:51Z</time>
      </trkpt>
      <trkpt lat="45.35093" lon="4.50972">
        <ele>1205</ele>
        <time>2011-02-19T17:50:53Z</time>
      </trkpt>
      <trkpt lat="45.35095" lon="4.50963">
        <ele>1205</ele>
        <time>2011-02-19T17:50:55Z</time>
      </trkpt>
      <trkpt lat="45.35098" lon="4.50954">
        <ele>1204</ele>
        <time>2011-02-19T17:50:57Z</time>
      </trkpt>
      <trkpt lat="45.35102" lon="4.50946">
        <ele>1204</ele>
        <time>2011-02-19T17:50:59Z</time>
      </trkpt>
      <trkpt lat="45.35105" lon="4.50937">
        <ele>1204</ele>
        <time>2011-02-19T17:51:01Z</time>
      </trkpt>
      <trkpt lat="45.35107" lon="4.50931">
        <ele>1203</ele>
        <time>2011-02-19T17:51:03Z</time>
      </trkpt>
      <trkpt lat="45.35108" lon="4.50922">
        <ele>1203</ele>
        <time>2011-02-19T17:51:05Z</time>
      </trkpt>
      <trkpt lat="45.3511" lon="4.50914">
        <ele>1203</ele>
        <time>2011-02-19T17:51:07Z</time>
      </trkpt>
      <trkpt lat="45.35112" lon="4.50907">
        <ele>1202</ele>
        <time>2011-02-19T17:51:09Z</time>
      </trkpt>
      <trkpt lat="45.35113" lon="4.50901">
        <ele>1202</ele>
        <time>2011-02-19T17:51:11Z</time>
      </trkpt>
      <trkpt lat="45.35115" lon="4.50892">
        <ele>1202</ele>
        <time>2011-02-19T17:51:13Z</time>
      </trkpt>
      <trkpt lat="45.35118" lon="4.50886">
        <ele>1201</ele>
        <time>2011-02-19T17:51:15Z</time>
      </trkpt>
      <trkpt lat="45.35119" lon="4.50879">
        <ele>1201</ele>
        <time>2011-02-19T17:51:17Z</time>
      </trkpt>
      <trkpt lat="45.3512" lon="4.50871">
        <ele>1201</ele>
        <time>2011-02-19T17:51:19Z</time>
      </trkpt>
      <trkpt lat="45.35121" lon="4.5086">
        <ele>1200</ele>
        <time>2011-02-19T17:51:21Z</time>
      </trkpt>
      <trkpt lat="45.35122" lon="4.50854">
        <ele>1200</ele>
        <time>2011-02-19T17:51:23Z</time>
      </trkpt>
      <trkpt lat="45.35122" lon="4.50845">
        <ele>1200</ele>
        <time>2011-02-19T17:51:25Z</time>
      </trkpt>
      <trkpt lat="45.35121" lon="4.50836">
        <ele>1199</ele>
        <time>2011-02-19T17:51:27Z</time>
      </trkpt>
      <trkpt lat="45.35119" lon="4.50828">
        <ele>1199</ele>
        <time>2011-02-19T17:51:29Z</time>
      </trkpt>
      <trkpt lat="45.35115" lon="4.50819">
        <ele>1199</ele>
        <time>2011-02-19T17:51:31Z</time>
      </trkpt>
      <trkpt lat="45.35113" lon="4.50811">
        <ele>1198</ele>
        <time>2011-02-19T17:51:33Z</time>
      </trkpt>
      <trkpt lat="45.3511" lon="4.50802">
        <ele>1198</ele>
        <time>2011-02-19T17:51:35Z</time>
      </trkpt>
      <trkpt lat="45.35107" lon="4.50794">
        <ele>1198</ele>
        <time>2011-02-19T17:51:37Z</time>
      </trkpt>
      <trkpt lat="45.35104" lon="4.50785">
        <ele>1198</ele>
        <time>2011-02-19T17:51:39Z</time>
      </trkpt>
      <trkpt lat="45.35102" lon="4.50774">
        <ele>1197</ele>
        <time>2011-02-19T17:51:41Z</time>
      </trkpt>
      <trkpt lat="45.35098" lon="4.50766">
        <ele>1197</ele>
        <time>2011-02-19T17:51:43Z</time>
      </trkpt>
      <trkpt lat="45.35097" lon="4.50757">
        <ele>1197</ele>
        <time>2011-02-19T17:51:45Z</time>
      </trkpt>
      <trkpt lat="45.35096" lon="4.50748">
        <ele>1196</ele>
        <time>2011-02-19T17:51:47Z</time>
      </trkpt>
      <trkpt lat="45.35096" lon="4.50738">
        <ele>1196</ele>
        <time>2011-02-19T17:51:49Z</time>
      </trkpt>
      <trkpt lat="45.35096" lon="4.50729">
        <ele>1196</ele>
        <time>2011-02-19T17:51:51Z</time>
      </trkpt>
      <trkpt lat="45.35097" lon="4.50721">
        <ele>1196</ele>
        <time>2011-02-19T17:51:53Z</time>
      </trkpt>
      <trkpt lat="45.35097" lon="4.50714">
        <ele>1195</ele>
        <time>2011-02-19T17:51:54Z</time>
      </trkpt>
      <trkpt lat="45.35098" lon="4.50708">
        <ele>1195</ele>
        <time>2011-02-19T17:51:56Z</time>
      </trkpt>
      <trkpt lat="45.351" lon="4.50699">
        <ele>1195</ele>
        <time>2011-02-19T17:51:58Z</time>
      </trkpt>
      <trkpt lat="45.35103" lon="4.50691">
        <ele>1195</ele>
        <time>2011-02-19T17:52:00Z</time>
      </trkpt>
      <trkpt lat="45.35106" lon="4.5068">
        <ele>1194</ele>
        <time>2011-02-19T17:52:02Z</time>
      </trkpt>
      <trkpt lat="45.35109" lon="4.50671">
        <ele>1194</ele>
        <time>2011-02-19T17:52:04Z</time>
      </trkpt>
      <trkpt lat="45.35112" lon="4.50663">
        <ele>1194</ele>
        <time>2011-02-19T17:52:06Z</time>
      </trkpt>
      <trkpt lat="45.35114" lon="4.50654">
        <ele>1193</ele>
        <time>2011-02-19T17:52:08Z</time>
      </trkpt>
      <trkpt lat="45.35118" lon="4.50645">
        <ele>1193</ele>
        <time>2011-02-19T17:52:10Z</time>
      </trkpt>
      <trkpt lat="45.3512" lon="4.50639">
        <ele>1193</ele>
        <time>2011-02-19T17:52:12Z</time>
      </trkpt>
      <trkpt lat="45.35123" lon="4.50633">
        <ele>1193</ele>
        <time>2011-02-19T17:52:14Z</time>
      </trkpt>
      <trkpt lat="45.35126" lon="4.50624">
        <ele>1192</ele>
        <time>2011-02-19T17:52:16Z</time>
      </trkpt>
      <trkpt lat="45.35131" lon="4.50615">
        <ele>1192</ele>
        <time>2011-02-19T17:52:18Z</time>
      </trkpt>
      <trkpt lat="45.35135" lon="4.50609">
        <ele>1191</ele>
        <time>2011-02-19T17:52:20Z</time>
      </trkpt>
      <trkpt lat="45.35138" lon="4.506">
        <ele>1191</ele>
        <time>2011-02-19T17:52:22Z</time>
      </trkpt>
      <trkpt lat="45.35142" lon="4.50594">
        <ele>1191</ele>
        <time>2011-02-19T17:52:24Z</time>
      </trkpt>
      <trkpt lat="45.35147" lon="4.50588">
        <ele>1190</ele>
        <time>2011-02-19T17:52:26Z</time>
      </trkpt>
      <trkpt lat="45.35151" lon="4.50581">
        <ele>1190</ele>
        <time>2011-02-19T17:52:28Z</time>
      </trkpt>
      <trkpt lat="45.35154" lon="4.50575">
        <ele>1190</ele>
        <time>2011-02-19T17:52:30Z</time>
      </trkpt>
      <trkpt lat="45.35158" lon="4.50568">
        <ele>1189</ele>
        <time>2011-02-19T17:52:32Z</time>
      </trkpt>
      <trkpt lat="45.35161" lon="4.50562">
        <ele>1189</ele>
        <time>2011-02-19T17:52:34Z</time>
      </trkpt>
      <trkpt lat="45.35163" lon="4.50553">
        <ele>1188</ele>
        <time>2011-02-19T17:52:36Z</time>
      </trkpt>
      <trkpt lat="45.35165" lon="4.50547">
        <ele>1188</ele>
        <time>2011-02-19T17:52:38Z</time>
      </trkpt>
      <trkpt lat="45.35167" lon="4.5054">
        <ele>1188</ele>
        <time>2011-02-19T17:52:40Z</time>
      </trkpt>
      <trkpt lat="45.35169" lon="4.50532">
        <ele>1187</ele>
        <time>2011-02-19T17:52:42Z</time>
      </trkpt>
      <trkpt lat="45.35171" lon="4.50525">
        <ele>1186</ele>
        <time>2011-02-19T17:52:44Z</time>
      </trkpt>
      <trkpt lat="45.35173" lon="4.50517">
        <ele>1186</ele>
        <time>2011-02-19T17:52:46Z</time>
      </trkpt>
      <trkpt lat="45.35177" lon="4.50508">
        <ele>1186</ele>
        <time>2011-02-19T17:52:48Z</time>
      </trkpt>
      <trkpt lat="45.35179" lon="4.50502">
        <ele>1185</ele>
        <time>2011-02-19T17:52:50Z</time>
      </trkpt>
      <trkpt lat="45.35181" lon="4.50493">
        <ele>1185</ele>
        <time>2011-02-19T17:52:52Z</time>
      </trkpt>
      <trkpt lat="45.35183" lon="4.50485">
        <ele>1184</ele>
        <time>2011-02-19T17:52:54Z</time>
      </trkpt>
      <trkpt lat="45.35185" lon="4.50478">
        <ele>1184</ele>
        <time>2011-02-19T17:52:56Z</time>
      </trkpt>
      <trkpt lat="45.35187" lon="4.50472">
        <ele>1184</ele>
        <time>2011-02-19T17:52:58Z</time>
      </trkpt>
      <trkpt lat="45.35188" lon="4.50465">
        <ele>1183</ele>
        <time>2011-02-19T17:53:00Z</time>
      </trkpt>
      <trkpt lat="45.3519" lon="4.50457">
        <ele>1183</ele>
        <time>2011-02-19T17:53:02Z</time>
      </trkpt>
      <trkpt lat="45.35191" lon="4.5045">
        <ele>1182</ele>
        <time>2011-02-19T17:53:04Z</time>
      </trkpt>
      <trkpt lat="45.35191" lon="4.50442">
        <ele>1182</ele>
        <time>2011-02-19T17:53:07Z</time>
      </trkpt>
      <trkpt lat="45.3519" lon="4.50435">
        <ele>1181</ele>
        <time>2011-02-19T17:53:10Z</time>
      </trkpt>
      <trkpt lat="45.35188" lon="4.50429">
        <ele>1181</ele>
        <time>2011-02-19T17:53:13Z</time>
      </trkpt>
      <trkpt lat="45.35186" lon="4.50422">
        <ele>1181</ele>
        <time>2011-02-19T17:53:15Z</time>
      </trkpt>
      <trkpt lat="45.35184" lon="4.50414">
        <ele>1180</ele>
        <time>2011-02-19T17:53:18Z</time>
      </trkpt>
      <trkpt lat="45.3518" lon="4.50407">
        <ele>1180</ele>
        <time>2011-02-19T17:53:21Z</time>
      </trkpt>
      <trkpt lat="45.35177" lon="4.50401">
        <ele>1180</ele>
        <time>2011-02-19T17:53:23Z</time>
      </trkpt>
      <trkpt lat="45.35172" lon="4.50392">
        <ele>1179</ele>
        <time>2011-02-19T17:53:25Z</time>
      </trkpt>
      <trkpt lat="45.35168" lon="4.50384">
        <ele>1179</ele>
        <time>2011-02-19T17:53:27Z</time>
      </trkpt>
      <trkpt lat="45.35165" lon="4.50375">
        <ele>1179</ele>
        <time>2011-02-19T17:53:29Z</time>
      </trkpt>
      <trkpt lat="45.35162" lon="4.50366">
        <ele>1179</ele>
        <time>2011-02-19T17:53:31Z</time>
      </trkpt>
      <trkpt lat="45.35158" lon="4.5036">
        <ele>1179</ele>
        <time>2011-02-19T17:53:33Z</time>
      </trkpt>
      <trkpt lat="45.35156" lon="4.50349">
        <ele>1179</ele>
        <time>2011-02-19T17:53:35Z</time>
      </trkpt>
      <trkpt lat="45.35154" lon="4.50339">
        <ele>1179</ele>
        <time>2011-02-19T17:53:37Z</time>
      </trkpt>
      <trkpt lat="45.35153" lon="4.50332">
        <ele>1179</ele>
        <time>2011-02-19T17:53:38Z</time>
      </trkpt>
      <trkpt lat="45.35152" lon="4.50326">
        <ele>1179</ele>
        <time>2011-02-19T17:53:39Z</time>
      </trkpt>
      <trkpt lat="45.35151" lon="4.50315">
        <ele>1179</ele>
        <time>2011-02-19T17:53:41Z</time>
      </trkpt>
      <trkpt lat="45.35151" lon="4.50304">
        <ele>1179</ele>
        <time>2011-02-19T17:53:43Z</time>
      </trkpt>
      <trkpt lat="45.3515" lon="4.50294">
        <ele>1178</ele>
        <time>2011-02-19T17:53:45Z</time>
      </trkpt>
      <trkpt lat="45.3515" lon="4.50285">
        <ele>1178</ele>
        <time>2011-02-19T17:53:47Z</time>
      </trkpt>
      <trkpt lat="45.35149" lon="4.50279">
        <ele>1178</ele>
        <time>2011-02-19T17:53:48Z</time>
      </trkpt>
      <trkpt lat="45.35149" lon="4.5027">
        <ele>1178</ele>
        <time>2011-02-19T17:53:50Z</time>
      </trkpt>
      <trkpt lat="45.3515" lon="4.50261">
        <ele>1177</ele>
        <time>2011-02-19T17:53:52Z</time>
      </trkpt>
      <trkpt lat="45.3515" lon="4.50255">
        <ele>1177</ele>
        <time>2011-02-19T17:53:54Z</time>
      </trkpt>
      <trkpt lat="45.35151" lon="4.50246">
        <ele>1177</ele>
        <time>2011-02-19T17:53:56Z</time>
      </trkpt>
      <trkpt lat="45.35151" lon="4.5024">
        <ele>1176</ele>
        <time>2011-02-19T17:53:58Z</time>
      </trkpt>
      <trkpt lat="45.35153" lon="4.50233">
        <ele>1176</ele>
        <time>2011-02-19T17:54:00Z</time>
      </trkpt>
      <trkpt lat="45.35154" lon="4.50227">
        <ele>1176</ele>
        <time>2011-02-19T17:54:02Z</time>
      </trkpt>
      <trkpt lat="45.35155" lon="4.50221">
        <ele>1176</ele>
        <time>2011-02-19T17:54:04Z</time>
      </trkpt>
      <trkpt lat="45.35156" lon="4.50212">
        <ele>1176</ele>
        <time>2011-02-19T17:54:06Z</time>
      </trkpt>
      <trkpt lat="45.35157" lon="4.50206">
        <ele>1176</ele>
        <time>2011-02-19T17:54:08Z</time>
      </trkpt>
      <trkpt lat="45.35157" lon="4.50197">
        <ele>1176</ele>
        <time>2011-02-19T17:54:10Z</time>
      </trkpt>
      <trkpt lat="45.35158" lon="4.50191">
        <ele>1176</ele>
        <time>2011-02-19T17:54:12Z</time>
      </trkpt>
      <trkpt lat="45.35158" lon="4.50182">
        <ele>1176</ele>
        <time>2011-02-19T17:54:14Z</time>
      </trkpt>
      <trkpt lat="45.35159" lon="4.50176">
        <ele>1176</ele>
        <time>2011-02-19T17:54:16Z</time>
      </trkpt>
      <trkpt lat="45.35159" lon="4.50167">
        <ele>1176</ele>
        <time>2011-02-19T17:54:18Z</time>
      </trkpt>
      <trkpt lat="45.35161" lon="4.50158">
        <ele>1176</ele>
        <time>2011-02-19T17:54:20Z</time>
      </trkpt>
      <trkpt lat="45.35161" lon="4.5015">
        <ele>1176</ele>
        <time>2011-02-19T17:54:22Z</time>
      </trkpt>
      <trkpt lat="45.35161" lon="4.50141">
        <ele>1176</ele>
        <time>2011-02-19T17:54:24Z</time>
      </trkpt>
      <trkpt lat="45.35161" lon="4.50133">
        <ele>1175</ele>
        <time>2011-02-19T17:54:26Z</time>
      </trkpt>
      <trkpt lat="45.35162" lon="4.50124">
        <ele>1175</ele>
        <time>2011-02-19T17:54:28Z</time>
      </trkpt>
      <trkpt lat="45.35162" lon="4.50115">
        <ele>1175</ele>
        <time>2011-02-19T17:54:30Z</time>
      </trkpt>
      <trkpt lat="45.35163" lon="4.50109">
        <ele>1175</ele>
        <time>2011-02-19T17:54:32Z</time>
      </trkpt>
      <trkpt lat="45.35164" lon="4.501">
        <ele>1175</ele>
        <time>2011-02-19T17:54:34Z</time>
      </trkpt>
      <trkpt lat="45.35164" lon="4.50094">
        <ele>1175</ele>
        <time>2011-02-19T17:54:36Z</time>
      </trkpt>
      <trkpt lat="45.35164" lon="4.50085">
        <ele>1175</ele>
        <time>2011-02-19T17:54:38Z</time>
      </trkpt>
      <trkpt lat="45.35164" lon="4.50079">
        <ele>1175</ele>
        <time>2011-02-19T17:54:40Z</time>
      </trkpt>
      <trkpt lat="45.35164" lon="4.5007">
        <ele>1175</ele>
        <time>2011-02-19T17:54:42Z</time>
      </trkpt>
      <trkpt lat="45.35164" lon="4.5006">
        <ele>1175</ele>
        <time>2011-02-19T17:54:45Z</time>
      </trkpt>
      <trkpt lat="45.35164" lon="4.50053">
        <ele>1175</ele>
        <time>2011-02-19T17:54:47Z</time>
      </trkpt>
      <trkpt lat="45.35164" lon="4.50047">
        <ele>1175</ele>
        <time>2011-02-19T17:54:49Z</time>
      </trkpt>
      <trkpt lat="45.35164" lon="4.50038">
        <ele>1175</ele>
        <time>2011-02-19T17:54:51Z</time>
      </trkpt>
      <trkpt lat="45.35163" lon="4.50032">
        <ele>1175</ele>
        <time>2011-02-19T17:54:53Z</time>
      </trkpt>
      <trkpt lat="45.35163" lon="4.50025">
        <ele>1175</ele>
        <time>2011-02-19T17:54:55Z</time>
      </trkpt>
      <trkpt lat="45.35162" lon="4.50017">
        <ele>1175</ele>
        <time>2011-02-19T17:54:57Z</time>
      </trkpt>
      <trkpt lat="45.35161" lon="4.5001">
        <ele>1175</ele>
        <time>2011-02-19T17:54:59Z</time>
      </trkpt>
      <trkpt lat="45.35159" lon="4.50002">
        <ele>1175</ele>
        <time>2011-02-19T17:55:01Z</time>
      </trkpt>
      <trkpt lat="45.35159" lon="4.49995">
        <ele>1175</ele>
        <time>2011-02-19T17:55:03Z</time>
      </trkpt>
      <trkpt lat="45.35158" lon="4.49989">
        <ele>1175</ele>
        <time>2011-02-19T17:55:05Z</time>
      </trkpt>
      <trkpt lat="45.35157" lon="4.4998">
        <ele>1175</ele>
        <time>2011-02-19T17:55:07Z</time>
      </trkpt>
      <trkpt lat="45.35157" lon="4.4997">
        <ele>1175</ele>
        <time>2011-02-19T17:55:10Z</time>
      </trkpt>
      <trkpt lat="45.35156" lon="4.49961">
        <ele>1175</ele>
        <time>2011-02-19T17:55:12Z</time>
      </trkpt>
      <trkpt lat="45.35155" lon="4.49955">
        <ele>1175</ele>
        <time>2011-02-19T17:55:14Z</time>
      </trkpt>
      <trkpt lat="45.35155" lon="4.49948">
        <ele>1175</ele>
        <time>2011-02-19T17:55:15Z</time>
      </trkpt>
      <trkpt lat="45.35153" lon="4.49942">
        <ele>1175</ele>
        <time>2011-02-19T17:55:17Z</time>
      </trkpt>
      <trkpt lat="45.35152" lon="4.49933">
        <ele>1175</ele>
        <time>2011-02-19T17:55:19Z</time>
      </trkpt>
      <trkpt lat="45.3515" lon="4.49924">
        <ele>1175</ele>
        <time>2011-02-19T17:55:21Z</time>
      </trkpt>
      <trkpt lat="45.35148" lon="4.49918">
        <ele>1176</ele>
        <time>2011-02-19T17:55:23Z</time>
      </trkpt>
      <trkpt lat="45.35147" lon="4.49909">
        <ele>1176</ele>
        <time>2011-02-19T17:55:25Z</time>
      </trkpt>
      <trkpt lat="45.35144" lon="4.49901">
        <ele>1176</ele>
        <time>2011-02-19T17:55:27Z</time>
      </trkpt>
      <trkpt lat="45.35142" lon="4.49894">
        <ele>1176</ele>
        <time>2011-02-19T17:55:29Z</time>
      </trkpt>
      <trkpt lat="45.35139" lon="4.49886">
        <ele>1176</ele>
        <time>2011-02-19T17:55:31Z</time>
      </trkpt>
      <trkpt lat="45.35136" lon="4.49879">
        <ele>1176</ele>
        <time>2011-02-19T17:55:33Z</time>
      </trkpt>
      <trkpt lat="45.35133" lon="4.49873">
        <ele>1177</ele>
        <time>2011-02-19T17:55:35Z</time>
      </trkpt>
      <trkpt lat="45.35129" lon="4.49867">
        <ele>1177</ele>
        <time>2011-02-19T17:55:37Z</time>
      </trkpt>
      <trkpt lat="45.35125" lon="4.4986">
        <ele>1177</ele>
        <time>2011-02-19T17:55:39Z</time>
      </trkpt>
      <trkpt lat="45.35121" lon="4.49854">
        <ele>1177</ele>
        <time>2011-02-19T17:55:41Z</time>
      </trkpt>
      <trkpt lat="45.35117" lon="4.49847">
        <ele>1178</ele>
        <time>2011-02-19T17:55:43Z</time>
      </trkpt>
      <trkpt lat="45.35112" lon="4.49843">
        <ele>1178</ele>
        <time>2011-02-19T17:55:45Z</time>
      </trkpt>
      <trkpt lat="45.35107" lon="4.49839">
        <ele>1178</ele>
        <time>2011-02-19T17:55:47Z</time>
      </trkpt>
      <trkpt lat="45.35099" lon="4.49834">
        <ele>1179</ele>
        <time>2011-02-19T17:55:50Z</time>
      </trkpt>
      <trkpt lat="45.35092" lon="4.49832">
        <ele>1179</ele>
        <time>2011-02-19T17:55:53Z</time>
      </trkpt>
      <trkpt lat="45.35084" lon="4.49832">
        <ele>1179</ele>
        <time>2011-02-19T17:55:56Z</time>
      </trkpt>
      <trkpt lat="45.35079" lon="4.49834">
        <ele>1179</ele>
        <time>2011-02-19T17:55:58Z</time>
      </trkpt>
      <trkpt lat="45.35074" lon="4.49834">
        <ele>1179</ele>
        <time>2011-02-19T17:56:00Z</time>
      </trkpt>
      <trkpt lat="45.35068" lon="4.49834">
        <ele>1179</ele>
        <time>2011-02-19T17:56:02Z</time>
      </trkpt>
      <trkpt lat="45.35063" lon="4.49834">
        <ele>1179</ele>
        <time>2011-02-19T17:56:04Z</time>
      </trkpt>
      <trkpt lat="45.35058" lon="4.49834">
        <ele>1179</ele>
        <time>2011-02-19T17:56:06Z</time>
      </trkpt>
      <trkpt lat="45.35052" lon="4.49834">
        <ele>1179</ele>
        <time>2011-02-19T17:56:08Z</time>
      </trkpt>
      <trkpt lat="45.35047" lon="4.49836">
        <ele>1179</ele>
        <time>2011-02-19T17:56:10Z</time>
      </trkpt>
      <trkpt lat="45.35041" lon="4.49836">
        <ele>1179</ele>
        <time>2011-02-19T17:56:12Z</time>
      </trkpt>
      <trkpt lat="45.35036" lon="4.49839">
        <ele>1179</ele>
        <time>2011-02-19T17:56:14Z</time>
      </trkpt>
      <trkpt lat="45.35031" lon="4.49841">
        <ele>1179</ele>
        <time>2011-02-19T17:56:16Z</time>
      </trkpt>
      <trkpt lat="45.35026" lon="4.49843">
        <ele>1179</ele>
        <time>2011-02-19T17:56:18Z</time>
      </trkpt>
      <trkpt lat="45.35022" lon="4.49845">
        <ele>1179</ele>
        <time>2011-02-19T17:56:20Z</time>
      </trkpt>
      <trkpt lat="45.35017" lon="4.49847">
        <ele>1179</ele>
        <time>2011-02-19T17:56:22Z</time>
      </trkpt>
      <trkpt lat="45.3501" lon="4.49852">
        <ele>1179</ele>
        <time>2011-02-19T17:56:25Z</time>
      </trkpt>
      <trkpt lat="45.35005" lon="4.49858">
        <ele>1180</ele>
        <time>2011-02-19T17:56:28Z</time>
      </trkpt>
      <trkpt lat="45.35001" lon="4.49862">
        <ele>1180</ele>
        <time>2011-02-19T17:56:30Z</time>
      </trkpt>
      <trkpt lat="45.34995" lon="4.49869">
        <ele>1180</ele>
        <time>2011-02-19T17:56:33Z</time>
      </trkpt>
      <trkpt lat="45.34991" lon="4.49873">
        <ele>1180</ele>
        <time>2011-02-19T17:56:35Z</time>
      </trkpt>
      <trkpt lat="45.34986" lon="4.49879">
        <ele>1180</ele>
        <time>2011-02-19T17:56:38Z</time>
      </trkpt>
      <trkpt lat="45.3498" lon="4.49886">
        <ele>1180</ele>
        <time>2011-02-19T17:56:41Z</time>
      </trkpt>
      <trkpt lat="45.34975" lon="4.49892">
        <ele>1181</ele>
        <time>2011-02-19T17:56:44Z</time>
      </trkpt>
      <trkpt lat="45.3497" lon="4.49897">
        <ele>1181</ele>
        <time>2011-02-19T17:56:47Z</time>
      </trkpt>
      <trkpt lat="45.34964" lon="4.49903">
        <ele>1181</ele>
        <time>2011-02-19T17:56:50Z</time>
      </trkpt>
      <trkpt lat="45.34959" lon="4.49907">
        <ele>1181</ele>
        <time>2011-02-19T17:56:53Z</time>
      </trkpt>
      <trkpt lat="45.34955" lon="4.49912">
        <ele>1182</ele>
        <time>2011-02-19T17:56:55Z</time>
      </trkpt>
      <trkpt lat="45.34949" lon="4.49918">
        <ele>1182</ele>
        <time>2011-02-19T17:56:58Z</time>
      </trkpt>
      <trkpt lat="45.34943" lon="4.49922">
        <ele>1182</ele>
        <time>2011-02-19T17:57:01Z</time>
      </trkpt>
      <trkpt lat="45.34937" lon="4.49929">
        <ele>1183</ele>
        <time>2011-02-19T17:57:04Z</time>
      </trkpt>
      <trkpt lat="45.34933" lon="4.49933">
        <ele>1183</ele>
        <time>2011-02-19T17:57:06Z</time>
      </trkpt>
      <trkpt lat="45.34929" lon="4.49937">
        <ele>1183</ele>
        <time>2011-02-19T17:57:08Z</time>
      </trkpt>
      <trkpt lat="45.34925" lon="4.49942">
        <ele>1183</ele>
        <time>2011-02-19T17:57:10Z</time>
      </trkpt>
      <trkpt lat="45.3492" lon="4.49946">
        <ele>1184</ele>
        <time>2011-02-19T17:57:12Z</time>
      </trkpt>
      <trkpt lat="45.34916" lon="4.49948">
        <ele>1184</ele>
        <time>2011-02-19T17:57:14Z</time>
      </trkpt>
      <trkpt lat="45.34912" lon="4.49952">
        <ele>1184</ele>
        <time>2011-02-19T17:57:16Z</time>
      </trkpt>
      <trkpt lat="45.34906" lon="4.49957">
        <ele>1184</ele>
        <time>2011-02-19T17:57:18Z</time>
      </trkpt>
      <trkpt lat="45.34901" lon="4.49961">
        <ele>1184</ele>
        <time>2011-02-19T17:57:20Z</time>
      </trkpt>
      <trkpt lat="45.34896" lon="4.49963">
        <ele>1184</ele>
        <time>2011-02-19T17:57:22Z</time>
      </trkpt>
      <trkpt lat="45.3489" lon="4.49967">
        <ele>1185</ele>
        <time>2011-02-19T17:57:24Z</time>
      </trkpt>
      <trkpt lat="45.34884" lon="4.49972">
        <ele>1185</ele>
        <time>2011-02-19T17:57:26Z</time>
      </trkpt>
      <trkpt lat="45.34878" lon="4.49976">
        <ele>1185</ele>
        <time>2011-02-19T17:57:28Z</time>
      </trkpt>
      <trkpt lat="45.34873" lon="4.4998">
        <ele>1185</ele>
        <time>2011-02-19T17:57:30Z</time>
      </trkpt>
      <trkpt lat="45.34868" lon="4.49982">
        <ele>1185</ele>
        <time>2011-02-19T17:57:32Z</time>
      </trkpt>
      <trkpt lat="45.34863" lon="4.49987">
        <ele>1185</ele>
        <time>2011-02-19T17:57:34Z</time>
      </trkpt>
      <trkpt lat="45.34858" lon="4.49991">
        <ele>1186</ele>
        <time>2011-02-19T17:57:36Z</time>
      </trkpt>
      <trkpt lat="45.34853" lon="4.49995">
        <ele>1186</ele>
        <time>2011-02-19T17:57:38Z</time>
      </trkpt>
      <trkpt lat="45.34847" lon="4.5">
        <ele>1186</ele>
        <time>2011-02-19T17:57:40Z</time>
      </trkpt>
      <trkpt lat="45.34842" lon="4.50004">
        <ele>1186</ele>
        <time>2011-02-19T17:57:42Z</time>
      </trkpt>
      <trkpt lat="45.34837" lon="4.50008">
        <ele>1186</ele>
        <time>2011-02-19T17:57:44Z</time>
      </trkpt>
      <trkpt lat="45.34831" lon="4.50012">
        <ele>1186</ele>
        <time>2011-02-19T17:57:46Z</time>
      </trkpt>
      <trkpt lat="45.34825" lon="4.50015">
        <ele>1186</ele>
        <time>2011-02-19T17:57:48Z</time>
      </trkpt>
      <trkpt lat="45.34819" lon="4.50019">
        <ele>1186</ele>
        <time>2011-02-19T17:57:50Z</time>
      </trkpt>
      <trkpt lat="45.34814" lon="4.50023">
        <ele>1186</ele>
        <time>2011-02-19T17:57:52Z</time>
      </trkpt>
      <trkpt lat="45.34809" lon="4.50027">
        <ele>1186</ele>
        <time>2011-02-19T17:57:54Z</time>
      </trkpt>
      <trkpt lat="45.34803" lon="4.5003">
        <ele>1187</ele>
        <time>2011-02-19T17:57:56Z</time>
      </trkpt>
      <trkpt lat="45.34798" lon="4.50034">
        <ele>1187</ele>
        <time>2011-02-19T17:57:58Z</time>
      </trkpt>
      <trkpt lat="45.34793" lon="4.50036">
        <ele>1187</ele>
        <time>2011-02-19T17:58:00Z</time>
      </trkpt>
      <trkpt lat="45.34787" lon="4.5004">
        <ele>1187</ele>
        <time>2011-02-19T17:58:02Z</time>
      </trkpt>
      <trkpt lat="45.34782" lon="4.50042">
        <ele>1187</ele>
        <time>2011-02-19T17:58:04Z</time>
      </trkpt>
      <trkpt lat="45.34776" lon="4.50045">
        <ele>1187</ele>
        <time>2011-02-19T17:58:06Z</time>
      </trkpt>
      <trkpt lat="45.34771" lon="4.50049">
        <ele>1187</ele>
        <time>2011-02-19T17:58:08Z</time>
      </trkpt>
      <trkpt lat="45.34766" lon="4.50051">
        <ele>1187</ele>
        <time>2011-02-19T17:58:10Z</time>
      </trkpt>
      <trkpt lat="45.3476" lon="4.50055">
        <ele>1187</ele>
        <time>2011-02-19T17:58:12Z</time>
      </trkpt>
      <trkpt lat="45.34756" lon="4.5006">
        <ele>1187</ele>
        <time>2011-02-19T17:58:14Z</time>
      </trkpt>
      <trkpt lat="45.34751" lon="4.50064">
        <ele>1187</ele>
        <time>2011-02-19T17:58:16Z</time>
      </trkpt>
      <trkpt lat="45.34746" lon="4.5007">
        <ele>1188</ele>
        <time>2011-02-19T17:58:18Z</time>
      </trkpt>
      <trkpt lat="45.34742" lon="4.50075">
        <ele>1188</ele>
        <time>2011-02-19T17:58:20Z</time>
      </trkpt>
      <trkpt lat="45.34737" lon="4.50079">
        <ele>1188</ele>
        <time>2011-02-19T17:58:22Z</time>
      </trkpt>
      <trkpt lat="45.34732" lon="4.50083">
        <ele>1188</ele>
        <time>2011-02-19T17:58:24Z</time>
      </trkpt>
      <trkpt lat="45.34728" lon="4.50088">
        <ele>1188</ele>
        <time>2011-02-19T17:58:26Z</time>
      </trkpt>
      <trkpt lat="45.34723" lon="4.50092">
        <ele>1188</ele>
        <time>2011-02-19T17:58:28Z</time>
      </trkpt>
      <trkpt lat="45.34719" lon="4.50096">
        <ele>1188</ele>
        <time>2011-02-19T17:58:30Z</time>
      </trkpt>
      <trkpt lat="45.34713" lon="4.501">
        <ele>1188</ele>
        <time>2011-02-19T17:58:32Z</time>
      </trkpt>
      <trkpt lat="45.34709" lon="4.50107">
        <ele>1188</ele>
        <time>2011-02-19T17:58:34Z</time>
      </trkpt>
      <trkpt lat="45.34703" lon="4.50113">
        <ele>1188</ele>
        <time>2011-02-19T17:58:36Z</time>
      </trkpt>
      <trkpt lat="45.34698" lon="4.5012">
        <ele>1188</ele>
        <time>2011-02-19T17:58:38Z</time>
      </trkpt>
      <trkpt lat="45.34694" lon="4.50126">
        <ele>1188</ele>
        <time>2011-02-19T17:58:40Z</time>
      </trkpt>
      <trkpt lat="45.34688" lon="4.50133">
        <ele>1188</ele>
        <time>2011-02-19T17:58:42Z</time>
      </trkpt>
      <trkpt lat="45.34684" lon="4.50141">
        <ele>1189</ele>
        <time>2011-02-19T17:58:44Z</time>
      </trkpt>
      <trkpt lat="45.3468" lon="4.50148">
        <ele>1189</ele>
        <time>2011-02-19T17:58:46Z</time>
      </trkpt>
      <trkpt lat="45.34677" lon="4.50156">
        <ele>1189</ele>
        <time>2011-02-19T17:58:48Z</time>
      </trkpt>
      <trkpt lat="45.34673" lon="4.50163">
        <ele>1189</ele>
        <time>2011-02-19T17:58:50Z</time>
      </trkpt>
      <trkpt lat="45.34671" lon="4.50171">
        <ele>1189</ele>
        <time>2011-02-19T17:58:52Z</time>
      </trkpt>
      <trkpt lat="45.34669" lon="4.50178">
        <ele>1189</ele>
        <time>2011-02-19T17:58:54Z</time>
      </trkpt>
      <trkpt lat="45.34666" lon="4.50188">
        <ele>1189</ele>
        <time>2011-02-19T17:58:56Z</time>
      </trkpt>
      <trkpt lat="45.34664" lon="4.50195">
        <ele>1189</ele>
        <time>2011-02-19T17:58:58Z</time>
      </trkpt>
      <trkpt lat="45.34661" lon="4.50201">
        <ele>1190</ele>
        <time>2011-02-19T17:59:00Z</time>
      </trkpt>
      <trkpt lat="45.34657" lon="4.50208">
        <ele>1190</ele>
        <time>2011-02-19T17:59:02Z</time>
      </trkpt>
      <trkpt lat="45.34655" lon="4.50214">
        <ele>1190</ele>
        <time>2011-02-19T17:59:04Z</time>
      </trkpt>
      <trkpt lat="45.3465" lon="4.50221">
        <ele>1190</ele>
        <time>2011-02-19T17:59:07Z</time>
      </trkpt>
      <trkpt lat="45.34647" lon="4.50227">
        <ele>1190</ele>
        <time>2011-02-19T17:59:09Z</time>
      </trkpt>
      <trkpt lat="45.34641" lon="4.50233">
        <ele>1190</ele>
        <time>2011-02-19T17:59:12Z</time>
      </trkpt>
      <trkpt lat="45.34637" lon="4.50238">
        <ele>1190</ele>
        <time>2011-02-19T17:59:14Z</time>
      </trkpt>
      <trkpt lat="45.34632" lon="4.50244">
        <ele>1190</ele>
        <time>2011-02-19T17:59:17Z</time>
      </trkpt>
      <trkpt lat="45.34627" lon="4.50248">
        <ele>1190</ele>
        <time>2011-02-19T17:59:19Z</time>
      </trkpt>
      <trkpt lat="45.34622" lon="4.50257">
        <ele>1190</ele>
        <time>2011-02-19T17:59:22Z</time>
      </trkpt>
      <trkpt lat="45.34618" lon="4.50264">
        <ele>1191</ele>
        <time>2011-02-19T17:59:25Z</time>
      </trkpt>
      <trkpt lat="45.34612" lon="4.5027">
        <ele>1191</ele>
        <time>2011-02-19T17:59:28Z</time>
      </trkpt>
      <trkpt lat="45.34608" lon="4.50276">
        <ele>1191</ele>
        <time>2011-02-19T17:59:31Z</time>
      </trkpt>
      <trkpt lat="45.34603" lon="4.50283">
        <ele>1191</ele>
        <time>2011-02-19T17:59:34Z</time>
      </trkpt>
      <trkpt lat="45.34598" lon="4.50285">
        <ele>1191</ele>
        <time>2011-02-19T17:59:36Z</time>
      </trkpt>
      <trkpt lat="45.34594" lon="4.50289">
        <ele>1191</ele>
        <time>2011-02-19T17:59:38Z</time>
      </trkpt>
      <trkpt lat="45.3459" lon="4.50291">
        <ele>1191</ele>
        <time>2011-02-19T17:59:40Z</time>
      </trkpt>
      <trkpt lat="45.34585" lon="4.50296">
        <ele>1191</ele>
        <time>2011-02-19T17:59:42Z</time>
      </trkpt>
      <trkpt lat="45.34579" lon="4.50298">
        <ele>1191</ele>
        <time>2011-02-19T17:59:44Z</time>
      </trkpt>
      <trkpt lat="45.34573" lon="4.50296">
        <ele>1191</ele>
        <time>2011-02-19T17:59:46Z</time>
      </trkpt>
      <trkpt lat="45.34567" lon="4.50294">
        <ele>1191</ele>
        <time>2011-02-19T17:59:48Z</time>
      </trkpt>
      <trkpt lat="45.34561" lon="4.50289">
        <ele>1191</ele>
        <time>2011-02-19T17:59:50Z</time>
      </trkpt>
      <trkpt lat="45.34555" lon="4.50281">
        <ele>1191</ele>
        <time>2011-02-19T17:59:52Z</time>
      </trkpt>
      <trkpt lat="45.34551" lon="4.50274">
        <ele>1191</ele>
        <time>2011-02-19T17:59:54Z</time>
      </trkpt>
      <trkpt lat="45.34549" lon="4.50268">
        <ele>1191</ele>
        <time>2011-02-19T17:59:56Z</time>
      </trkpt>
      <trkpt lat="45.34547" lon="4.50259">
        <ele>1191</ele>
        <time>2011-02-19T17:59:58Z</time>
      </trkpt>
      <trkpt lat="45.34545" lon="4.50253">
        <ele>1191</ele>
        <time>2011-02-19T17:59:59Z</time>
      </trkpt>
      <trkpt lat="45.34543" lon="4.50244">
        <ele>1191</ele>
        <time>2011-02-19T18:00:01Z</time>
      </trkpt>
      <trkpt lat="45.3454" lon="4.50236">
        <ele>1191</ele>
        <time>2011-02-19T18:00:03Z</time>
      </trkpt>
      <trkpt lat="45.34538" lon="4.50229">
        <ele>1191</ele>
        <time>2011-02-19T18:00:05Z</time>
      </trkpt>
      <trkpt lat="45.34536" lon="4.50221">
        <ele>1191</ele>
        <time>2011-02-19T18:00:07Z</time>
      </trkpt>
      <trkpt lat="45.34535" lon="4.50212">
        <ele>1191</ele>
        <time>2011-02-19T18:00:09Z</time>
      </trkpt>
      <trkpt lat="45.34535" lon="4.50201">
        <ele>1191</ele>
        <time>2011-02-19T18:00:11Z</time>
      </trkpt>
      <trkpt lat="45.34536" lon="4.50193">
        <ele>1191</ele>
        <time>2011-02-19T18:00:13Z</time>
      </trkpt>
      <trkpt lat="45.34537" lon="4.50182">
        <ele>1191</ele>
        <time>2011-02-19T18:00:15Z</time>
      </trkpt>
      <trkpt lat="45.34538" lon="4.50176">
        <ele>1191</ele>
        <time>2011-02-19T18:00:16Z</time>
      </trkpt>
      <trkpt lat="45.34539" lon="4.50169">
        <ele>1191</ele>
        <time>2011-02-19T18:00:17Z</time>
      </trkpt>
      <trkpt lat="45.3454" lon="4.50163">
        <ele>1191</ele>
        <time>2011-02-19T18:00:18Z</time>
      </trkpt>
      <trkpt lat="45.34541" lon="4.50156">
        <ele>1191</ele>
        <time>2011-02-19T18:00:19Z</time>
      </trkpt>
      <trkpt lat="45.34543" lon="4.5015">
        <ele>1191</ele>
        <time>2011-02-19T18:00:20Z</time>
      </trkpt>
      <trkpt lat="45.34545" lon="4.50143">
        <ele>1191</ele>
        <time>2011-02-19T18:00:21Z</time>
      </trkpt>
      <trkpt lat="45.34548" lon="4.50135">
        <ele>1191</ele>
        <time>2011-02-19T18:00:23Z</time>
      </trkpt>
      <trkpt lat="45.34549" lon="4.50128">
        <ele>1191</ele>
        <time>2011-02-19T18:00:24Z</time>
      </trkpt>
      <trkpt lat="45.34552" lon="4.5012">
        <ele>1190</ele>
        <time>2011-02-19T18:00:26Z</time>
      </trkpt>
      <trkpt lat="45.34554" lon="4.50113">
        <ele>1190</ele>
        <time>2011-02-19T18:00:28Z</time>
      </trkpt>
      <trkpt lat="45.34558" lon="4.50103">
        <ele>1190</ele>
        <time>2011-02-19T18:00:30Z</time>
      </trkpt>
      <trkpt lat="45.3456" lon="4.50094">
        <ele>1190</ele>
        <time>2011-02-19T18:00:32Z</time>
      </trkpt>
      <trkpt lat="45.34561" lon="4.50088">
        <ele>1190</ele>
        <time>2011-02-19T18:00:34Z</time>
      </trkpt>
      <trkpt lat="45.34562" lon="4.50081">
        <ele>1190</ele>
        <time>2011-02-19T18:00:36Z</time>
      </trkpt>
      <trkpt lat="45.34563" lon="4.50073">
        <ele>1190</ele>
        <time>2011-02-19T18:00:38Z</time>
      </trkpt>
      <trkpt lat="45.34564" lon="4.50066">
        <ele>1189</ele>
        <time>2011-02-19T18:00:40Z</time>
      </trkpt>
      <trkpt lat="45.34566" lon="4.5006">
        <ele>1189</ele>
        <time>2011-02-19T18:00:42Z</time>
      </trkpt>
      <trkpt lat="45.34567" lon="4.50053">
        <ele>1189</ele>
        <time>2011-02-19T18:00:44Z</time>
      </trkpt>
      <trkpt lat="45.34568" lon="4.50045">
        <ele>1188</ele>
        <time>2011-02-19T18:00:46Z</time>
      </trkpt>
      <trkpt lat="45.3457" lon="4.50038">
        <ele>1188</ele>
        <time>2011-02-19T18:00:48Z</time>
      </trkpt>
      <trkpt lat="45.34573" lon="4.50032">
        <ele>1187</ele>
        <time>2011-02-19T18:00:50Z</time>
      </trkpt>
      <trkpt lat="45.34575" lon="4.50025">
        <ele>1187</ele>
        <time>2011-02-19T18:00:52Z</time>
      </trkpt>
      <trkpt lat="45.34577" lon="4.50019">
        <ele>1187</ele>
        <time>2011-02-19T18:00:54Z</time>
      </trkpt>
      <trkpt lat="45.34579" lon="4.50012">
        <ele>1186</ele>
        <time>2011-02-19T18:00:56Z</time>
      </trkpt>
      <trkpt lat="45.34581" lon="4.50004">
        <ele>1186</ele>
        <time>2011-02-19T18:00:58Z</time>
      </trkpt>
      <trkpt lat="45.34583" lon="4.49997">
        <ele>1185</ele>
        <time>2011-02-19T18:01:00Z</time>
      </trkpt>
      <trkpt lat="45.34585" lon="4.49991">
        <ele>1185</ele>
        <time>2011-02-19T18:01:02Z</time>
      </trkpt>
      <trkpt lat="45.34588" lon="4.49982">
        <ele>1185</ele>
        <time>2011-02-19T18:01:04Z</time>
      </trkpt>
      <trkpt lat="45.3459" lon="4.49976">
        <ele>1185</ele>
        <time>2011-02-19T18:01:06Z</time>
      </trkpt>
      <trkpt lat="45.34592" lon="4.49967">
        <ele>1184</ele>
        <time>2011-02-19T18:01:08Z</time>
      </trkpt>
      <trkpt lat="45.34593" lon="4.49961">
        <ele>1184</ele>
        <time>2011-02-19T18:01:10Z</time>
      </trkpt>
      <trkpt lat="45.34595" lon="4.49952">
        <ele>1184</ele>
        <time>2011-02-19T18:01:12Z</time>
      </trkpt>
      <trkpt lat="45.34597" lon="4.49946">
        <ele>1184</ele>
        <time>2011-02-19T18:01:14Z</time>
      </trkpt>
      <trkpt lat="45.34598" lon="4.49937">
        <ele>1184</ele>
        <time>2011-02-19T18:01:16Z</time>
      </trkpt>
      <trkpt lat="45.34602" lon="4.49931">
        <ele>1184</ele>
        <time>2011-02-19T18:01:18Z</time>
      </trkpt>
      <trkpt lat="45.34604" lon="4.49922">
        <ele>1184</ele>
        <time>2011-02-19T18:01:20Z</time>
      </trkpt>
      <trkpt lat="45.34606" lon="4.49916">
        <ele>1183</ele>
        <time>2011-02-19T18:01:22Z</time>
      </trkpt>
      <trkpt lat="45.34608" lon="4.49907">
        <ele>1183</ele>
        <time>2011-02-19T18:01:24Z</time>
      </trkpt>
      <trkpt lat="45.3461" lon="4.49901">
        <ele>1183</ele>
        <time>2011-02-19T18:01:26Z</time>
      </trkpt>
      <trkpt lat="45.34612" lon="4.49892">
        <ele>1183</ele>
        <time>2011-02-19T18:01:28Z</time>
      </trkpt>
      <trkpt lat="45.34616" lon="4.49886">
        <ele>1183</ele>
        <time>2011-02-19T18:01:30Z</time>
      </trkpt>
      <trkpt lat="45.34618" lon="4.49877">
        <ele>1183</ele>
        <time>2011-02-19T18:01:32Z</time>
      </trkpt>
      <trkpt lat="45.34619" lon="4.49869">
        <ele>1182</ele>
        <time>2011-02-19T18:01:34Z</time>
      </trkpt>
      <trkpt lat="45.3462" lon="4.49862">
        <ele>1182</ele>
        <time>2011-02-19T18:01:36Z</time>
      </trkpt>
      <trkpt lat="45.3462" lon="4.49856">
        <ele>1182</ele>
        <time>2011-02-19T18:01:37Z</time>
      </trkpt>
      <trkpt lat="45.34621" lon="4.49847">
        <ele>1181</ele>
        <time>2011-02-19T18:01:39Z</time>
      </trkpt>
      <trkpt lat="45.34622" lon="4.49839">
        <ele>1181</ele>
        <time>2011-02-19T18:01:41Z</time>
      </trkpt>
      <trkpt lat="45.34623" lon="4.4983">
        <ele>1181</ele>
        <time>2011-02-19T18:01:43Z</time>
      </trkpt>
      <trkpt lat="45.34623" lon="4.49821">
        <ele>1180</ele>
        <time>2011-02-19T18:01:45Z</time>
      </trkpt>
      <trkpt lat="45.34623" lon="4.49813">
        <ele>1180</ele>
        <time>2011-02-19T18:01:47Z</time>
      </trkpt>
      <trkpt lat="45.34625" lon="4.49804">
        <ele>1180</ele>
        <time>2011-02-19T18:01:49Z</time>
      </trkpt>
      <trkpt lat="45.34626" lon="4.49796">
        <ele>1179</ele>
        <time>2011-02-19T18:01:51Z</time>
      </trkpt>
      <trkpt lat="45.34627" lon="4.49789">
        <ele>1179</ele>
        <time>2011-02-19T18:01:53Z</time>
      </trkpt>
      <trkpt lat="45.34628" lon="4.49783">
        <ele>1179</ele>
        <time>2011-02-19T18:01:55Z</time>
      </trkpt>
      <trkpt lat="45.34629" lon="4.49774">
        <ele>1178</ele>
        <time>2011-02-19T18:01:57Z</time>
      </trkpt>
      <trkpt lat="45.34631" lon="4.49768">
        <ele>1178</ele>
        <time>2011-02-19T18:01:59Z</time>
      </trkpt>
      <trkpt lat="45.34632" lon="4.49759">
        <ele>1178</ele>
        <time>2011-02-19T18:02:01Z</time>
      </trkpt>
      <trkpt lat="45.34633" lon="4.49751">
        <ele>1178</ele>
        <time>2011-02-19T18:02:03Z</time>
      </trkpt>
      <trkpt lat="45.34635" lon="4.49742">
        <ele>1178</ele>
        <time>2011-02-19T18:02:05Z</time>
      </trkpt>
      <trkpt lat="45.34636" lon="4.49731">
        <ele>1178</ele>
        <time>2011-02-19T18:02:07Z</time>
      </trkpt>
      <trkpt lat="45.34637" lon="4.49723">
        <ele>1178</ele>
        <time>2011-02-19T18:02:09Z</time>
      </trkpt>
      <trkpt lat="45.34639" lon="4.49714">
        <ele>1178</ele>
        <time>2011-02-19T18:02:11Z</time>
      </trkpt>
      <trkpt lat="45.3464" lon="4.49706">
        <ele>1178</ele>
        <time>2011-02-19T18:02:13Z</time>
      </trkpt>
      <trkpt lat="45.34642" lon="4.49695">
        <ele>1178</ele>
        <time>2011-02-19T18:02:15Z</time>
      </trkpt>
      <trkpt lat="45.34644" lon="4.49686">
        <ele>1178</ele>
        <time>2011-02-19T18:02:17Z</time>
      </trkpt>
      <trkpt lat="45.34646" lon="4.49678">
        <ele>1179</ele>
        <time>2011-02-19T18:02:19Z</time>
      </trkpt>
      <trkpt lat="45.34648" lon="4.49669">
        <ele>1179</ele>
        <time>2011-02-19T18:02:21Z</time>
      </trkpt>
      <trkpt lat="45.34649" lon="4.49661">
        <ele>1179</ele>
        <time>2011-02-19T18:02:23Z</time>
      </trkpt>
      <trkpt lat="45.3465" lon="4.49652">
        <ele>1179</ele>
        <time>2011-02-19T18:02:25Z</time>
      </trkpt>
      <trkpt lat="45.34651" lon="4.49643">
        <ele>1179</ele>
        <time>2011-02-19T18:02:27Z</time>
      </trkpt>
      <trkpt lat="45.34652" lon="4.49635">
        <ele>1179</ele>
        <time>2011-02-19T18:02:29Z</time>
      </trkpt>
      <trkpt lat="45.34653" lon="4.49626">
        <ele>1179</ele>
        <time>2011-02-19T18:02:31Z</time>
      </trkpt>
      <trkpt lat="45.34654" lon="4.49618">
        <ele>1179</ele>
        <time>2011-02-19T18:02:33Z</time>
      </trkpt>
      <trkpt lat="45.34655" lon="4.49611">
        <ele>1179</ele>
        <time>2011-02-19T18:02:34Z</time>
      </trkpt>
      <trkpt lat="45.34656" lon="4.49603">
        <ele>1179</ele>
        <time>2011-02-19T18:02:36Z</time>
      </trkpt>
      <trkpt lat="45.34657" lon="4.49596">
        <ele>1179</ele>
        <time>2011-02-19T18:02:37Z</time>
      </trkpt>
      <trkpt lat="45.34658" lon="4.49585">
        <ele>1179</ele>
        <time>2011-02-19T18:02:39Z</time>
      </trkpt>
      <trkpt lat="45.34661" lon="4.49577">
        <ele>1179</ele>
        <time>2011-02-19T18:02:41Z</time>
      </trkpt>
      <trkpt lat="45.34661" lon="4.4957">
        <ele>1179</ele>
        <time>2011-02-19T18:02:42Z</time>
      </trkpt>
      <trkpt lat="45.34662" lon="4.49562">
        <ele>1178</ele>
        <time>2011-02-19T18:02:44Z</time>
      </trkpt>
      <trkpt lat="45.34663" lon="4.49551">
        <ele>1178</ele>
        <time>2011-02-19T18:02:46Z</time>
      </trkpt>
      <trkpt lat="45.34665" lon="4.49543">
        <ele>1178</ele>
        <time>2011-02-19T18:02:48Z</time>
      </trkpt>
      <trkpt lat="45.34666" lon="4.49534">
        <ele>1178</ele>
        <time>2011-02-19T18:02:50Z</time>
      </trkpt>
      <trkpt lat="45.34668" lon="4.49525">
        <ele>1178</ele>
        <time>2011-02-19T18:02:52Z</time>
      </trkpt>
      <trkpt lat="45.3467" lon="4.49517">
        <ele>1177</ele>
        <time>2011-02-19T18:02:54Z</time>
      </trkpt>
      <trkpt lat="45.34673" lon="4.4951">
        <ele>1177</ele>
        <time>2011-02-19T18:02:56Z</time>
      </trkpt>
      <trkpt lat="45.34677" lon="4.49504">
        <ele>1177</ele>
        <time>2011-02-19T18:02:58Z</time>
      </trkpt>
      <trkpt lat="45.34679" lon="4.49497">
        <ele>1176</ele>
        <time>2011-02-19T18:03:00Z</time>
      </trkpt>
      <trkpt lat="45.34682" lon="4.49491">
        <ele>1176</ele>
        <time>2011-02-19T18:03:02Z</time>
      </trkpt>
      <trkpt lat="45.34684" lon="4.49485">
        <ele>1176</ele>
        <time>2011-02-19T18:03:04Z</time>
      </trkpt>
      <trkpt lat="45.34687" lon="4.49478">
        <ele>1176</ele>
        <time>2011-02-19T18:03:06Z</time>
      </trkpt>
      <trkpt lat="45.34691" lon="4.49472">
        <ele>1175</ele>
        <time>2011-02-19T18:03:08Z</time>
      </trkpt>
      <trkpt lat="45.34693" lon="4.49465">
        <ele>1175</ele>
        <time>2011-02-19T18:03:10Z</time>
      </trkpt>
      <trkpt lat="45.34698" lon="4.49459">
        <ele>1175</ele>
        <time>2011-02-19T18:03:13Z</time>
      </trkpt>
      <trkpt lat="45.34702" lon="4.49452">
        <ele>1174</ele>
        <time>2011-02-19T18:03:16Z</time>
      </trkpt>
      <trkpt lat="45.34708" lon="4.49448">
        <ele>1174</ele>
        <time>2011-02-19T18:03:18Z</time>
      </trkpt>
      <trkpt lat="45.34712" lon="4.49444">
        <ele>1174</ele>
        <time>2011-02-19T18:03:20Z</time>
      </trkpt>
      <trkpt lat="45.34716" lon="4.49442">
        <ele>1173</ele>
        <time>2011-02-19T18:03:22Z</time>
      </trkpt>
      <trkpt lat="45.34721" lon="4.49437">
        <ele>1173</ele>
        <time>2011-02-19T18:03:24Z</time>
      </trkpt>
      <trkpt lat="45.34725" lon="4.49435">
        <ele>1173</ele>
        <time>2011-02-19T18:03:26Z</time>
      </trkpt>
      <trkpt lat="45.3473" lon="4.49431">
        <ele>1173</ele>
        <time>2011-02-19T18:03:28Z</time>
      </trkpt>
      <trkpt lat="45.34736" lon="4.49425">
        <ele>1172</ele>
        <time>2011-02-19T18:03:31Z</time>
      </trkpt>
      <trkpt lat="45.34741" lon="4.4942">
        <ele>1172</ele>
        <time>2011-02-19T18:03:33Z</time>
      </trkpt>
      <trkpt lat="45.34745" lon="4.49416">
        <ele>1172</ele>
        <time>2011-02-19T18:03:35Z</time>
      </trkpt>
      <trkpt lat="45.3475" lon="4.49409">
        <ele>1172</ele>
        <time>2011-02-19T18:03:37Z</time>
      </trkpt>
      <trkpt lat="45.34755" lon="4.49405">
        <ele>1171</ele>
        <time>2011-02-19T18:03:39Z</time>
      </trkpt>
      <trkpt lat="45.34759" lon="4.49401">
        <ele>1171</ele>
        <time>2011-02-19T18:03:41Z</time>
      </trkpt>
      <trkpt lat="45.34765" lon="4.49397">
        <ele>1171</ele>
        <time>2011-02-19T18:03:43Z</time>
      </trkpt>
      <trkpt lat="45.34769" lon="4.49392">
        <ele>1171</ele>
        <time>2011-02-19T18:03:45Z</time>
      </trkpt>
      <trkpt lat="45.34773" lon="4.49386">
        <ele>1171</ele>
        <time>2011-02-19T18:03:47Z</time>
      </trkpt>
      <trkpt lat="45.34779" lon="4.49382">
        <ele>1170</ele>
        <time>2011-02-19T18:03:49Z</time>
      </trkpt>
      <trkpt lat="45.34783" lon="4.49377">
        <ele>1170</ele>
        <time>2011-02-19T18:03:51Z</time>
      </trkpt>
      <trkpt lat="45.34788" lon="4.49371">
        <ele>1170</ele>
        <time>2011-02-19T18:03:53Z</time>
      </trkpt>
      <trkpt lat="45.34795" lon="4.49367">
        <ele>1170</ele>
        <time>2011-02-19T18:03:55Z</time>
      </trkpt>
      <trkpt lat="45.348" lon="4.4936">
        <ele>1170</ele>
        <time>2011-02-19T18:03:57Z</time>
      </trkpt>
      <trkpt lat="45.34805" lon="4.49354">
        <ele>1170</ele>
        <time>2011-02-19T18:03:59Z</time>
      </trkpt>
      <trkpt lat="45.34811" lon="4.49347">
        <ele>1169</ele>
        <time>2011-02-19T18:04:01Z</time>
      </trkpt>
      <trkpt lat="45.34817" lon="4.49343">
        <ele>1169</ele>
        <time>2011-02-19T18:04:03Z</time>
      </trkpt>
      <trkpt lat="45.34823" lon="4.49337">
        <ele>1169</ele>
        <time>2011-02-19T18:04:05Z</time>
      </trkpt>
      <trkpt lat="45.34828" lon="4.4933">
        <ele>1168</ele>
        <time>2011-02-19T18:04:07Z</time>
      </trkpt>
      <trkpt lat="45.34833" lon="4.49326">
        <ele>1168</ele>
        <time>2011-02-19T18:04:09Z</time>
      </trkpt>
      <trkpt lat="45.34839" lon="4.49319">
        <ele>1168</ele>
        <time>2011-02-19T18:04:11Z</time>
      </trkpt>
      <trkpt lat="45.34844" lon="4.49315">
        <ele>1168</ele>
        <time>2011-02-19T18:04:13Z</time>
      </trkpt>
      <trkpt lat="45.34849" lon="4.49309">
        <ele>1168</ele>
        <time>2011-02-19T18:04:15Z</time>
      </trkpt>
      <trkpt lat="45.34855" lon="4.49302">
        <ele>1168</ele>
        <time>2011-02-19T18:04:17Z</time>
      </trkpt>
      <trkpt lat="45.3486" lon="4.49298">
        <ele>1167</ele>
        <time>2011-02-19T18:04:19Z</time>
      </trkpt>
      <trkpt lat="45.34864" lon="4.49294">
        <ele>1167</ele>
        <time>2011-02-19T18:04:21Z</time>
      </trkpt>
      <trkpt lat="45.3487" lon="4.49287">
        <ele>1167</ele>
        <time>2011-02-19T18:04:23Z</time>
      </trkpt>
      <trkpt lat="45.34875" lon="4.49283">
        <ele>1167</ele>
        <time>2011-02-19T18:04:25Z</time>
      </trkpt>
      <trkpt lat="45.34879" lon="4.49276">
        <ele>1167</ele>
        <time>2011-02-19T18:04:27Z</time>
      </trkpt>
      <trkpt lat="45.34885" lon="4.49272">
        <ele>1166</ele>
        <time>2011-02-19T18:04:29Z</time>
      </trkpt>
      <trkpt lat="45.3489" lon="4.49268">
        <ele>1166</ele>
        <time>2011-02-19T18:04:31Z</time>
      </trkpt>
      <trkpt lat="45.34896" lon="4.49261">
        <ele>1166</ele>
        <time>2011-02-19T18:04:33Z</time>
      </trkpt>
      <trkpt lat="45.34901" lon="4.49257">
        <ele>1166</ele>
        <time>2011-02-19T18:04:35Z</time>
      </trkpt>
      <trkpt lat="45.34905" lon="4.49251">
        <ele>1166</ele>
        <time>2011-02-19T18:04:37Z</time>
      </trkpt>
      <trkpt lat="45.34911" lon="4.49246">
        <ele>1165</ele>
        <time>2011-02-19T18:04:39Z</time>
      </trkpt>
      <trkpt lat="45.34915" lon="4.4924">
        <ele>1165</ele>
        <time>2011-02-19T18:04:41Z</time>
      </trkpt>
      <trkpt lat="45.3492" lon="4.49234">
        <ele>1165</ele>
        <time>2011-02-19T18:04:43Z</time>
      </trkpt>
      <trkpt lat="45.34926" lon="4.49227">
        <ele>1164</ele>
        <time>2011-02-19T18:04:45Z</time>
      </trkpt>
      <trkpt lat="45.34931" lon="4.49221">
        <ele>1164</ele>
        <time>2011-02-19T18:04:47Z</time>
      </trkpt>
      <trkpt lat="45.34936" lon="4.49214">
        <ele>1163</ele>
        <time>2011-02-19T18:04:49Z</time>
      </trkpt>
      <trkpt lat="45.34942" lon="4.49208">
        <ele>1163</ele>
        <time>2011-02-19T18:04:51Z</time>
      </trkpt>
      <trkpt lat="45.34947" lon="4.49201">
        <ele>1162</ele>
        <time>2011-02-19T18:04:53Z</time>
      </trkpt>
      <trkpt lat="45.34952" lon="4.49195">
        <ele>1162</ele>
        <time>2011-02-19T18:04:55Z</time>
      </trkpt>
      <trkpt lat="45.34959" lon="4.49188">
        <ele>1161</ele>
        <time>2011-02-19T18:04:57Z</time>
      </trkpt>
      <trkpt lat="45.34966" lon="4.49182">
        <ele>1161</ele>
        <time>2011-02-19T18:04:59Z</time>
      </trkpt>
      <trkpt lat="45.34973" lon="4.49176">
        <ele>1161</ele>
        <time>2011-02-19T18:05:01Z</time>
      </trkpt>
      <trkpt lat="45.34984" lon="4.49165">
        <ele>1160</ele>
        <time>2011-02-19T18:05:03Z</time>
      </trkpt>
      <trkpt lat="45.3499" lon="4.49158">
        <ele>1160</ele>
        <time>2011-02-19T18:05:05Z</time>
      </trkpt>
      <trkpt lat="45.34995" lon="4.49152">
        <ele>1160</ele>
        <time>2011-02-19T18:05:07Z</time>
      </trkpt>
      <trkpt lat="45.35001" lon="4.49146">
        <ele>1159</ele>
        <time>2011-02-19T18:05:09Z</time>
      </trkpt>
      <trkpt lat="45.35006" lon="4.49141">
        <ele>1159</ele>
        <time>2011-02-19T18:05:11Z</time>
      </trkpt>
      <trkpt lat="45.3501" lon="4.49137">
        <ele>1159</ele>
        <time>2011-02-19T18:05:13Z</time>
      </trkpt>
      <trkpt lat="45.35014" lon="4.49131">
        <ele>1158</ele>
        <time>2011-02-19T18:05:15Z</time>
      </trkpt>
      <trkpt lat="45.35018" lon="4.49124">
        <ele>1158</ele>
        <time>2011-02-19T18:05:18Z</time>
      </trkpt>
      <trkpt lat="45.35022" lon="4.49118">
        <ele>1158</ele>
        <time>2011-02-19T18:05:21Z</time>
      </trkpt>
      <trkpt lat="45.35024" lon="4.49111">
        <ele>1158</ele>
        <time>2011-02-19T18:05:24Z</time>
      </trkpt>
      <trkpt lat="45.35028" lon="4.49105">
        <ele>1158</ele>
        <time>2011-02-19T18:05:27Z</time>
      </trkpt>
      <trkpt lat="45.35033" lon="4.49105">
        <ele>1158</ele>
        <time>2011-02-19T18:05:30Z</time>
      </trkpt>
      <trkpt lat="45.35037" lon="4.49107">
        <ele>1158</ele>
        <time>2011-02-19T18:05:32Z</time>
      </trkpt>
      <trkpt lat="45.35041" lon="4.49113">
        <ele>1158</ele>
        <time>2011-02-19T18:05:35Z</time>
      </trkpt>
      <trkpt lat="45.35044" lon="4.4912">
        <ele>1158</ele>
        <time>2011-02-19T18:05:37Z</time>
      </trkpt>
      <trkpt lat="45.35044" lon="4.49128">
        <ele>1158</ele>
        <time>2011-02-19T18:05:40Z</time>
      </trkpt>
      <trkpt lat="45.35043" lon="4.49135">
        <ele>1157</ele>
        <time>2011-02-19T18:05:42Z</time>
      </trkpt>
      <trkpt lat="45.3504" lon="4.49141">
        <ele>1157</ele>
        <time>2011-02-19T18:05:44Z</time>
      </trkpt>
      <trkpt lat="45.35037" lon="4.49148">
        <ele>1157</ele>
        <time>2011-02-19T18:05:46Z</time>
      </trkpt>
      <trkpt lat="45.35034" lon="4.49154">
        <ele>1156</ele>
        <time>2011-02-19T18:05:48Z</time>
      </trkpt>
      <trkpt lat="45.35031" lon="4.49161">
        <ele>1156</ele>
        <time>2011-02-19T18:05:50Z</time>
      </trkpt>
      <trkpt lat="45.35026" lon="4.49169">
        <ele>1155</ele>
        <time>2011-02-19T18:05:52Z</time>
      </trkpt>
      <trkpt lat="45.35022" lon="4.49176">
        <ele>1155</ele>
        <time>2011-02-19T18:05:54Z</time>
      </trkpt>
      <trkpt lat="45.35018" lon="4.49182">
        <ele>1155</ele>
        <time>2011-02-19T18:05:56Z</time>
      </trkpt>
      <trkpt lat="45.35014" lon="4.49191">
        <ele>1154</ele>
        <time>2011-02-19T18:05:58Z</time>
      </trkpt>
      <trkpt lat="45.3501" lon="4.49197">
        <ele>1153</ele>
        <time>2011-02-19T18:06:00Z</time>
      </trkpt>
      <trkpt lat="45.35007" lon="4.49203">
        <ele>1153</ele>
        <time>2011-02-19T18:06:02Z</time>
      </trkpt>
      <trkpt lat="45.35004" lon="4.4921">
        <ele>1152</ele>
        <time>2011-02-19T18:06:04Z</time>
      </trkpt>
      <trkpt lat="45.35001" lon="4.49216">
        <ele>1152</ele>
        <time>2011-02-19T18:06:06Z</time>
      </trkpt>
      <trkpt lat="45.34997" lon="4.49223">
        <ele>1151</ele>
        <time>2011-02-19T18:06:08Z</time>
      </trkpt>
      <trkpt lat="45.34994" lon="4.49229">
        <ele>1151</ele>
        <time>2011-02-19T18:06:10Z</time>
      </trkpt>
      <trkpt lat="45.34992" lon="4.49236">
        <ele>1150</ele>
        <time>2011-02-19T18:06:12Z</time>
      </trkpt>
      <trkpt lat="45.34989" lon="4.49242">
        <ele>1150</ele>
        <time>2011-02-19T18:06:14Z</time>
      </trkpt>
      <trkpt lat="45.34986" lon="4.49249">
        <ele>1149</ele>
        <time>2011-02-19T18:06:16Z</time>
      </trkpt>
      <trkpt lat="45.34982" lon="4.49257">
        <ele>1149</ele>
        <time>2011-02-19T18:06:18Z</time>
      </trkpt>
      <trkpt lat="45.34979" lon="4.49264">
        <ele>1148</ele>
        <time>2011-02-19T18:06:20Z</time>
      </trkpt>
      <trkpt lat="45.34977" lon="4.4927">
        <ele>1147</ele>
        <time>2011-02-19T18:06:22Z</time>
      </trkpt>
      <trkpt lat="45.34973" lon="4.49276">
        <ele>1147</ele>
        <time>2011-02-19T18:06:24Z</time>
      </trkpt>
      <trkpt lat="45.3497" lon="4.49285">
        <ele>1146</ele>
        <time>2011-02-19T18:06:26Z</time>
      </trkpt>
      <trkpt lat="45.34966" lon="4.49291">
        <ele>1146</ele>
        <time>2011-02-19T18:06:28Z</time>
      </trkpt>
      <trkpt lat="45.34963" lon="4.49298">
        <ele>1146</ele>
        <time>2011-02-19T18:06:30Z</time>
      </trkpt>
      <trkpt lat="45.34959" lon="4.49306">
        <ele>1145</ele>
        <time>2011-02-19T18:06:32Z</time>
      </trkpt>
      <trkpt lat="45.34956" lon="4.49315">
        <ele>1145</ele>
        <time>2011-02-19T18:06:34Z</time>
      </trkpt>
      <trkpt lat="45.34952" lon="4.49322">
        <ele>1145</ele>
        <time>2011-02-19T18:06:36Z</time>
      </trkpt>
      <trkpt lat="45.34949" lon="4.4933">
        <ele>1144</ele>
        <time>2011-02-19T18:06:38Z</time>
      </trkpt>
      <trkpt lat="45.34947" lon="4.49337">
        <ele>1143</ele>
        <time>2011-02-19T18:06:40Z</time>
      </trkpt>
      <trkpt lat="45.34943" lon="4.49345">
        <ele>1142</ele>
        <time>2011-02-19T18:06:42Z</time>
      </trkpt>
      <trkpt lat="45.3494" lon="4.49354">
        <ele>1142</ele>
        <time>2011-02-19T18:06:44Z</time>
      </trkpt>
      <trkpt lat="45.34936" lon="4.49362">
        <ele>1141</ele>
        <time>2011-02-19T18:06:46Z</time>
      </trkpt>
      <trkpt lat="45.34932" lon="4.49371">
        <ele>1141</ele>
        <time>2011-02-19T18:06:48Z</time>
      </trkpt>
      <trkpt lat="45.34928" lon="4.49377">
        <ele>1140</ele>
        <time>2011-02-19T18:06:50Z</time>
      </trkpt>
      <trkpt lat="45.34923" lon="4.49386">
        <ele>1139</ele>
        <time>2011-02-19T18:06:52Z</time>
      </trkpt>
      <trkpt lat="45.34919" lon="4.49394">
        <ele>1139</ele>
        <time>2011-02-19T18:06:54Z</time>
      </trkpt>
      <trkpt lat="45.34916" lon="4.49401">
        <ele>1138</ele>
        <time>2011-02-19T18:06:56Z</time>
      </trkpt>
      <trkpt lat="45.34913" lon="4.49409">
        <ele>1138</ele>
        <time>2011-02-19T18:06:58Z</time>
      </trkpt>
      <trkpt lat="45.34909" lon="4.49418">
        <ele>1137</ele>
        <time>2011-02-19T18:07:00Z</time>
      </trkpt>
      <trkpt lat="45.34906" lon="4.49427">
        <ele>1137</ele>
        <time>2011-02-19T18:07:02Z</time>
      </trkpt>
      <trkpt lat="45.34903" lon="4.49433">
        <ele>1136</ele>
        <time>2011-02-19T18:07:04Z</time>
      </trkpt>
      <trkpt lat="45.34901" lon="4.49442">
        <ele>1136</ele>
        <time>2011-02-19T18:07:06Z</time>
      </trkpt>
      <trkpt lat="45.34898" lon="4.4945">
        <ele>1136</ele>
        <time>2011-02-19T18:07:08Z</time>
      </trkpt>
      <trkpt lat="45.34896" lon="4.49459">
        <ele>1135</ele>
        <time>2011-02-19T18:07:10Z</time>
      </trkpt>
      <trkpt lat="45.34892" lon="4.49467">
        <ele>1135</ele>
        <time>2011-02-19T18:07:12Z</time>
      </trkpt>
      <trkpt lat="45.34889" lon="4.49478">
        <ele>1134</ele>
        <time>2011-02-19T18:07:14Z</time>
      </trkpt>
      <trkpt lat="45.34887" lon="4.49487">
        <ele>1134</ele>
        <time>2011-02-19T18:07:16Z</time>
      </trkpt>
      <trkpt lat="45.34885" lon="4.49495">
        <ele>1133</ele>
        <time>2011-02-19T18:07:18Z</time>
      </trkpt>
      <trkpt lat="45.34883" lon="4.49504">
        <ele>1133</ele>
        <time>2011-02-19T18:07:20Z</time>
      </trkpt>
      <trkpt lat="45.34881" lon="4.49512">
        <ele>1133</ele>
        <time>2011-02-19T18:07:22Z</time>
      </trkpt>
      <trkpt lat="45.34878" lon="4.49521">
        <ele>1132</ele>
        <time>2011-02-19T18:07:24Z</time>
      </trkpt>
      <trkpt lat="45.34876" lon="4.4953">
        <ele>1132</ele>
        <time>2011-02-19T18:07:26Z</time>
      </trkpt>
      <trkpt lat="45.34875" lon="4.49538">
        <ele>1132</ele>
        <time>2011-02-19T18:07:28Z</time>
      </trkpt>
      <trkpt lat="45.34873" lon="4.49547">
        <ele>1132</ele>
        <time>2011-02-19T18:07:30Z</time>
      </trkpt>
      <trkpt lat="45.34873" lon="4.49555">
        <ele>1131</ele>
        <time>2011-02-19T18:07:32Z</time>
      </trkpt>
      <trkpt lat="45.34873" lon="4.49564">
        <ele>1131</ele>
        <time>2011-02-19T18:07:34Z</time>
      </trkpt>
      <trkpt lat="45.34874" lon="4.4957">
        <ele>1131</ele>
        <time>2011-02-19T18:07:36Z</time>
      </trkpt>
      <trkpt lat="45.34876" lon="4.49579">
        <ele>1131</ele>
        <time>2011-02-19T18:07:38Z</time>
      </trkpt>
      <trkpt lat="45.34881" lon="4.49581">
        <ele>1131</ele>
        <time>2011-02-19T18:07:42Z</time>
      </trkpt>
      <trkpt lat="45.34885" lon="4.49577">
        <ele>1131</ele>
        <time>2011-02-19T18:07:44Z</time>
      </trkpt>
      <trkpt lat="45.34889" lon="4.4957">
        <ele>1131</ele>
        <time>2011-02-19T18:07:46Z</time>
      </trkpt>
      <trkpt lat="45.34892" lon="4.49562">
        <ele>1130</ele>
        <time>2011-02-19T18:07:48Z</time>
      </trkpt>
      <trkpt lat="45.34896" lon="4.49553">
        <ele>1130</ele>
        <time>2011-02-19T18:07:50Z</time>
      </trkpt>
      <trkpt lat="45.34898" lon="4.49547">
        <ele>1130</ele>
        <time>2011-02-19T18:07:52Z</time>
      </trkpt>
      <trkpt lat="45.349" lon="4.4954">
        <ele>1129</ele>
        <time>2011-02-19T18:07:54Z</time>
      </trkpt>
      <trkpt lat="45.34905" lon="4.49532">
        <ele>1129</ele>
        <time>2011-02-19T18:07:57Z</time>
      </trkpt>
      <trkpt lat="45.34908" lon="4.49525">
        <ele>1128</ele>
        <time>2011-02-19T18:07:59Z</time>
      </trkpt>
      <trkpt lat="45.34914" lon="4.49519">
        <ele>1128</ele>
        <time>2011-02-19T18:08:02Z</time>
      </trkpt>
      <trkpt lat="45.34918" lon="4.49512">
        <ele>1127</ele>
        <time>2011-02-19T18:08:04Z</time>
      </trkpt>
      <trkpt lat="45.34921" lon="4.49506">
        <ele>1127</ele>
        <time>2011-02-19T18:08:06Z</time>
      </trkpt>
      <trkpt lat="45.34926" lon="4.49502">
        <ele>1127</ele>
        <time>2011-02-19T18:08:08Z</time>
      </trkpt>
      <trkpt lat="45.3493" lon="4.49497">
        <ele>1126</ele>
        <time>2011-02-19T18:08:10Z</time>
      </trkpt>
      <trkpt lat="45.34935" lon="4.49495">
        <ele>1126</ele>
        <time>2011-02-19T18:08:12Z</time>
      </trkpt>
      <trkpt lat="45.34941" lon="4.49491">
        <ele>1125</ele>
        <time>2011-02-19T18:08:14Z</time>
      </trkpt>
      <trkpt lat="45.34945" lon="4.49487">
        <ele>1125</ele>
        <time>2011-02-19T18:08:16Z</time>
      </trkpt>
      <trkpt lat="45.3495" lon="4.49485">
        <ele>1125</ele>
        <time>2011-02-19T18:08:18Z</time>
      </trkpt>
      <trkpt lat="45.34956" lon="4.49482">
        <ele>1124</ele>
        <time>2011-02-19T18:08:20Z</time>
      </trkpt>
      <trkpt lat="45.34962" lon="4.49478">
        <ele>1124</ele>
        <time>2011-02-19T18:08:22Z</time>
      </trkpt>
      <trkpt lat="45.34968" lon="4.49476">
        <ele>1123</ele>
        <time>2011-02-19T18:08:24Z</time>
      </trkpt>
      <trkpt lat="45.34975" lon="4.49472">
        <ele>1123</ele>
        <time>2011-02-19T18:08:26Z</time>
      </trkpt>
      <trkpt lat="45.34982" lon="4.4947">
        <ele>1122</ele>
        <time>2011-02-19T18:08:28Z</time>
      </trkpt>
      <trkpt lat="45.34989" lon="4.49465">
        <ele>1121</ele>
        <time>2011-02-19T18:08:30Z</time>
      </trkpt>
      <trkpt lat="45.34993" lon="4.49463">
        <ele>1121</ele>
        <time>2011-02-19T18:08:31Z</time>
      </trkpt>
      <trkpt lat="45.35" lon="4.49459">
        <ele>1120</ele>
        <time>2011-02-19T18:08:33Z</time>
      </trkpt>
      <trkpt lat="45.35007" lon="4.49457">
        <ele>1120</ele>
        <time>2011-02-19T18:08:35Z</time>
      </trkpt>
      <trkpt lat="45.35011" lon="4.49455">
        <ele>1119</ele>
        <time>2011-02-19T18:08:36Z</time>
      </trkpt>
      <trkpt lat="45.35019" lon="4.49452">
        <ele>1119</ele>
        <time>2011-02-19T18:08:38Z</time>
      </trkpt>
      <trkpt lat="45.35026" lon="4.49448">
        <ele>1118</ele>
        <time>2011-02-19T18:08:40Z</time>
      </trkpt>
      <trkpt lat="45.35031" lon="4.49446">
        <ele>1118</ele>
        <time>2011-02-19T18:08:42Z</time>
      </trkpt>
      <trkpt lat="45.35038" lon="4.49442">
        <ele>1118</ele>
        <time>2011-02-19T18:08:44Z</time>
      </trkpt>
      <trkpt lat="45.35046" lon="4.49437">
        <ele>1117</ele>
        <time>2011-02-19T18:08:46Z</time>
      </trkpt>
      <trkpt lat="45.35052" lon="4.49431">
        <ele>1117</ele>
        <time>2011-02-19T18:08:48Z</time>
      </trkpt>
      <trkpt lat="45.35056" lon="4.49429">
        <ele>1117</ele>
        <time>2011-02-19T18:08:49Z</time>
      </trkpt>
      <trkpt lat="45.35063" lon="4.49425">
        <ele>1117</ele>
        <time>2011-02-19T18:08:51Z</time>
      </trkpt>
      <trkpt lat="45.35069" lon="4.4942">
        <ele>1116</ele>
        <time>2011-02-19T18:08:52Z</time>
      </trkpt>
      <trkpt lat="45.35076" lon="4.49416">
        <ele>1116</ele>
        <time>2011-02-19T18:08:54Z</time>
      </trkpt>
      <trkpt lat="45.35081" lon="4.49412">
        <ele>1116</ele>
        <time>2011-02-19T18:08:56Z</time>
      </trkpt>
      <trkpt lat="45.35088" lon="4.49407">
        <ele>1116</ele>
        <time>2011-02-19T18:08:58Z</time>
      </trkpt>
      <trkpt lat="45.35093" lon="4.49405">
        <ele>1115</ele>
        <time>2011-02-19T18:09:00Z</time>
      </trkpt>
      <trkpt lat="45.35098" lon="4.49401">
        <ele>1115</ele>
        <time>2011-02-19T18:09:02Z</time>
      </trkpt>
      <trkpt lat="45.35104" lon="4.49397">
        <ele>1115</ele>
        <time>2011-02-19T18:09:04Z</time>
      </trkpt>
      <trkpt lat="45.35109" lon="4.49394">
        <ele>1115</ele>
        <time>2011-02-19T18:09:06Z</time>
      </trkpt>
      <trkpt lat="45.35114" lon="4.4939">
        <ele>1114</ele>
        <time>2011-02-19T18:09:08Z</time>
      </trkpt>
      <trkpt lat="45.3512" lon="4.49388">
        <ele>1114</ele>
        <time>2011-02-19T18:09:10Z</time>
      </trkpt>
      <trkpt lat="45.35125" lon="4.49384">
        <ele>1114</ele>
        <time>2011-02-19T18:09:12Z</time>
      </trkpt>
      <trkpt lat="45.35131" lon="4.49379">
        <ele>1114</ele>
        <time>2011-02-19T18:09:14Z</time>
      </trkpt>
      <trkpt lat="45.35136" lon="4.49377">
        <ele>1113</ele>
        <time>2011-02-19T18:09:17Z</time>
      </trkpt>
      <trkpt lat="45.3514" lon="4.49373">
        <ele>1113</ele>
        <time>2011-02-19T18:09:19Z</time>
      </trkpt>
      <trkpt lat="45.35146" lon="4.49369">
        <ele>1113</ele>
        <time>2011-02-19T18:09:21Z</time>
      </trkpt>
      <trkpt lat="45.35151" lon="4.49367">
        <ele>1113</ele>
        <time>2011-02-19T18:09:23Z</time>
      </trkpt>
      <trkpt lat="45.35156" lon="4.49362">
        <ele>1112</ele>
        <time>2011-02-19T18:09:25Z</time>
      </trkpt>
      <trkpt lat="45.35163" lon="4.4936">
        <ele>1112</ele>
        <time>2011-02-19T18:09:27Z</time>
      </trkpt>
      <trkpt lat="45.35168" lon="4.49356">
        <ele>1112</ele>
        <time>2011-02-19T18:09:29Z</time>
      </trkpt>
      <trkpt lat="45.35173" lon="4.49354">
        <ele>1111</ele>
        <time>2011-02-19T18:09:31Z</time>
      </trkpt>
      <trkpt lat="45.35179" lon="4.49349">
        <ele>1111</ele>
        <time>2011-02-19T18:09:33Z</time>
      </trkpt>
      <trkpt lat="45.35184" lon="4.49347">
        <ele>1110</ele>
        <time>2011-02-19T18:09:35Z</time>
      </trkpt>
      <trkpt lat="45.3519" lon="4.49345">
        <ele>1110</ele>
        <time>2011-02-19T18:09:37Z</time>
      </trkpt>
      <trkpt lat="45.35196" lon="4.49341">
        <ele>1109</ele>
        <time>2011-02-19T18:09:39Z</time>
      </trkpt>
      <trkpt lat="45.35201" lon="4.49339">
        <ele>1109</ele>
        <time>2011-02-19T18:09:41Z</time>
      </trkpt>
      <trkpt lat="45.35208" lon="4.49334">
        <ele>1109</ele>
        <time>2011-02-19T18:09:43Z</time>
      </trkpt>
      <trkpt lat="45.35213" lon="4.4933">
        <ele>1109</ele>
        <time>2011-02-19T18:09:45Z</time>
      </trkpt>
      <trkpt lat="45.35218" lon="4.49324">
        <ele>1109</ele>
        <time>2011-02-19T18:09:47Z</time>
      </trkpt>
      <trkpt lat="45.35223" lon="4.49319">
        <ele>1109</ele>
        <time>2011-02-19T18:09:49Z</time>
      </trkpt>
      <trkpt lat="45.35228" lon="4.49313">
        <ele>1108</ele>
        <time>2011-02-19T18:09:51Z</time>
      </trkpt>
      <trkpt lat="45.35233" lon="4.49309">
        <ele>1108</ele>
        <time>2011-02-19T18:09:53Z</time>
      </trkpt>
      <trkpt lat="45.35238" lon="4.49302">
        <ele>1108</ele>
        <time>2011-02-19T18:09:55Z</time>
      </trkpt>
      <trkpt lat="45.35243" lon="4.49298">
        <ele>1108</ele>
        <time>2011-02-19T18:09:57Z</time>
      </trkpt>
      <trkpt lat="45.35249" lon="4.49294">
        <ele>1108</ele>
        <time>2011-02-19T18:09:59Z</time>
      </trkpt>
      <trkpt lat="45.35254" lon="4.49289">
        <ele>1108</ele>
        <time>2011-02-19T18:10:01Z</time>
      </trkpt>
      <trkpt lat="45.35259" lon="4.49285">
        <ele>1108</ele>
        <time>2011-02-19T18:10:03Z</time>
      </trkpt>
      <trkpt lat="45.35265" lon="4.49281">
        <ele>1108</ele>
        <time>2011-02-19T18:10:05Z</time>
      </trkpt>
      <trkpt lat="45.3527" lon="4.49276">
        <ele>1108</ele>
        <time>2011-02-19T18:10:07Z</time>
      </trkpt>
      <trkpt lat="45.35275" lon="4.49272">
        <ele>1108</ele>
        <time>2011-02-19T18:10:09Z</time>
      </trkpt>
      <trkpt lat="45.35281" lon="4.4927">
        <ele>1108</ele>
        <time>2011-02-19T18:10:11Z</time>
      </trkpt>
      <trkpt lat="45.35286" lon="4.49266">
        <ele>1108</ele>
        <time>2011-02-19T18:10:13Z</time>
      </trkpt>
      <trkpt lat="45.35291" lon="4.49264">
        <ele>1108</ele>
        <time>2011-02-19T18:10:15Z</time>
      </trkpt>
      <trkpt lat="45.35296" lon="4.49259">
        <ele>1108</ele>
        <time>2011-02-19T18:10:17Z</time>
      </trkpt>
      <trkpt lat="45.35301" lon="4.49255">
        <ele>1107</ele>
        <time>2011-02-19T18:10:19Z</time>
      </trkpt>
      <trkpt lat="45.35306" lon="4.49251">
        <ele>1107</ele>
        <time>2011-02-19T18:10:21Z</time>
      </trkpt>
      <trkpt lat="45.35312" lon="4.49246">
        <ele>1107</ele>
        <time>2011-02-19T18:10:23Z</time>
      </trkpt>
      <trkpt lat="45.35317" lon="4.49242">
        <ele>1107</ele>
        <time>2011-02-19T18:10:25Z</time>
      </trkpt>
      <trkpt lat="45.35323" lon="4.49238">
        <ele>1106</ele>
        <time>2011-02-19T18:10:27Z</time>
      </trkpt>
      <trkpt lat="45.35328" lon="4.49236">
        <ele>1106</ele>
        <time>2011-02-19T18:10:29Z</time>
      </trkpt>
      <trkpt lat="45.35334" lon="4.49234">
        <ele>1105</ele>
        <time>2011-02-19T18:10:31Z</time>
      </trkpt>
      <trkpt lat="45.35341" lon="4.49231">
        <ele>1105</ele>
        <time>2011-02-19T18:10:33Z</time>
      </trkpt>
      <trkpt lat="45.35346" lon="4.49227">
        <ele>1105</ele>
        <time>2011-02-19T18:10:35Z</time>
      </trkpt>
      <trkpt lat="45.35353" lon="4.49225">
        <ele>1104</ele>
        <time>2011-02-19T18:10:37Z</time>
      </trkpt>
      <trkpt lat="45.35359" lon="4.49223">
        <ele>1104</ele>
        <time>2011-02-19T18:10:39Z</time>
      </trkpt>
      <trkpt lat="45.35364" lon="4.49221">
        <ele>1103</ele>
        <time>2011-02-19T18:10:41Z</time>
      </trkpt>
      <trkpt lat="45.35371" lon="4.49221">
        <ele>1103</ele>
        <time>2011-02-19T18:10:43Z</time>
      </trkpt>
      <trkpt lat="45.35377" lon="4.49219">
        <ele>1103</ele>
        <time>2011-02-19T18:10:45Z</time>
      </trkpt>
      <trkpt lat="45.35384" lon="4.49221">
        <ele>1102</ele>
        <time>2011-02-19T18:10:47Z</time>
      </trkpt>
      <trkpt lat="45.35389" lon="4.49223">
        <ele>1101</ele>
        <time>2011-02-19T18:10:49Z</time>
      </trkpt>
      <trkpt lat="45.35396" lon="4.49225">
        <ele>1101</ele>
        <time>2011-02-19T18:10:51Z</time>
      </trkpt>
      <trkpt lat="45.35403" lon="4.49229">
        <ele>1100</ele>
        <time>2011-02-19T18:10:53Z</time>
      </trkpt>
      <trkpt lat="45.35407" lon="4.49231">
        <ele>1100</ele>
        <time>2011-02-19T18:10:54Z</time>
      </trkpt>
      <trkpt lat="45.35412" lon="4.49234">
        <ele>1099</ele>
        <time>2011-02-19T18:10:55Z</time>
      </trkpt>
      <trkpt lat="45.35416" lon="4.49236">
        <ele>1099</ele>
        <time>2011-02-19T18:10:56Z</time>
      </trkpt>
      <trkpt lat="45.3542" lon="4.49238">
        <ele>1099</ele>
        <time>2011-02-19T18:10:57Z</time>
      </trkpt>
      <trkpt lat="45.35429" lon="4.4924">
        <ele>1098</ele>
        <time>2011-02-19T18:10:59Z</time>
      </trkpt>
      <trkpt lat="45.35436" lon="4.49244">
        <ele>1097</ele>
        <time>2011-02-19T18:11:01Z</time>
      </trkpt>
      <trkpt lat="45.35443" lon="4.49249">
        <ele>1097</ele>
        <time>2011-02-19T18:11:03Z</time>
      </trkpt>
      <trkpt lat="45.35447" lon="4.49251">
        <ele>1096</ele>
        <time>2011-02-19T18:11:04Z</time>
      </trkpt>
      <trkpt lat="45.35452" lon="4.49255">
        <ele>1096</ele>
        <time>2011-02-19T18:11:06Z</time>
      </trkpt>
      <trkpt lat="45.35459" lon="4.49259">
        <ele>1095</ele>
        <time>2011-02-19T18:11:08Z</time>
      </trkpt>
      <trkpt lat="45.35464" lon="4.49261">
        <ele>1095</ele>
        <time>2011-02-19T18:11:10Z</time>
      </trkpt>
      <trkpt lat="45.3547" lon="4.49266">
        <ele>1094</ele>
        <time>2011-02-19T18:11:12Z</time>
      </trkpt>
      <trkpt lat="45.35475" lon="4.4927">
        <ele>1094</ele>
        <time>2011-02-19T18:11:14Z</time>
      </trkpt>
      <trkpt lat="45.35481" lon="4.49274">
        <ele>1093</ele>
        <time>2011-02-19T18:11:16Z</time>
      </trkpt>
      <trkpt lat="45.35488" lon="4.49279">
        <ele>1093</ele>
        <time>2011-02-19T18:11:18Z</time>
      </trkpt>
      <trkpt lat="45.35494" lon="4.49283">
        <ele>1092</ele>
        <time>2011-02-19T18:11:20Z</time>
      </trkpt>
      <trkpt lat="45.35502" lon="4.49287">
        <ele>1092</ele>
        <time>2011-02-19T18:11:22Z</time>
      </trkpt>
      <trkpt lat="45.35508" lon="4.49291">
        <ele>1091</ele>
        <time>2011-02-19T18:11:24Z</time>
      </trkpt>
      <trkpt lat="45.35515" lon="4.49296">
        <ele>1091</ele>
        <time>2011-02-19T18:11:26Z</time>
      </trkpt>
      <trkpt lat="45.35521" lon="4.493">
        <ele>1090</ele>
        <time>2011-02-19T18:11:28Z</time>
      </trkpt>
      <trkpt lat="45.35526" lon="4.49306">
        <ele>1090</ele>
        <time>2011-02-19T18:11:30Z</time>
      </trkpt>
      <trkpt lat="45.35533" lon="4.49311">
        <ele>1089</ele>
        <time>2011-02-19T18:11:32Z</time>
      </trkpt>
      <trkpt lat="45.35538" lon="4.49315">
        <ele>1088</ele>
        <time>2011-02-19T18:11:34Z</time>
      </trkpt>
      <trkpt lat="45.35544" lon="4.49319">
        <ele>1088</ele>
        <time>2011-02-19T18:11:36Z</time>
      </trkpt>
      <trkpt lat="45.35548" lon="4.49324">
        <ele>1087</ele>
        <time>2011-02-19T18:11:38Z</time>
      </trkpt>
      <trkpt lat="45.35552" lon="4.4933">
        <ele>1087</ele>
        <time>2011-02-19T18:11:40Z</time>
      </trkpt>
      <trkpt lat="45.35555" lon="4.49339">
        <ele>1086</ele>
        <time>2011-02-19T18:11:42Z</time>
      </trkpt>
      <trkpt lat="45.35559" lon="4.49347">
        <ele>1085</ele>
        <time>2011-02-19T18:11:44Z</time>
      </trkpt>
      <trkpt lat="45.35562" lon="4.49356">
        <ele>1084</ele>
        <time>2011-02-19T18:11:46Z</time>
      </trkpt>
      <trkpt lat="45.35565" lon="4.49367">
        <ele>1082</ele>
        <time>2011-02-19T18:11:48Z</time>
      </trkpt>
      <trkpt lat="45.35567" lon="4.49375">
        <ele>1081</ele>
        <time>2011-02-19T18:11:50Z</time>
      </trkpt>
      <trkpt lat="45.35569" lon="4.49386">
        <ele>1080</ele>
        <time>2011-02-19T18:11:52Z</time>
      </trkpt>
      <trkpt lat="45.3557" lon="4.49394">
        <ele>1079</ele>
        <time>2011-02-19T18:11:54Z</time>
      </trkpt>
      <trkpt lat="45.35573" lon="4.49403">
        <ele>1078</ele>
        <time>2011-02-19T18:11:56Z</time>
      </trkpt>
      <trkpt lat="45.35575" lon="4.49412">
        <ele>1077</ele>
        <time>2011-02-19T18:11:58Z</time>
      </trkpt>
      <trkpt lat="45.35577" lon="4.49418">
        <ele>1077</ele>
        <time>2011-02-19T18:12:00Z</time>
      </trkpt>
      <trkpt lat="45.35578" lon="4.49427">
        <ele>1076</ele>
        <time>2011-02-19T18:12:02Z</time>
      </trkpt>
      <trkpt lat="45.3558" lon="4.49435">
        <ele>1075</ele>
        <time>2011-02-19T18:12:04Z</time>
      </trkpt>
      <trkpt lat="45.35581" lon="4.49442">
        <ele>1074</ele>
        <time>2011-02-19T18:12:06Z</time>
      </trkpt>
      <trkpt lat="45.35582" lon="4.4945">
        <ele>1074</ele>
        <time>2011-02-19T18:12:08Z</time>
      </trkpt>
      <trkpt lat="45.35583" lon="4.49457">
        <ele>1073</ele>
        <time>2011-02-19T18:12:10Z</time>
      </trkpt>
      <trkpt lat="45.35584" lon="4.49465">
        <ele>1072</ele>
        <time>2011-02-19T18:12:12Z</time>
      </trkpt>
      <trkpt lat="45.35584" lon="4.49474">
        <ele>1072</ele>
        <time>2011-02-19T18:12:14Z</time>
      </trkpt>
      <trkpt lat="45.35585" lon="4.49482">
        <ele>1071</ele>
        <time>2011-02-19T18:12:16Z</time>
      </trkpt>
      <trkpt lat="45.35588" lon="4.49493">
        <ele>1071</ele>
        <time>2011-02-19T18:12:18Z</time>
      </trkpt>
      <trkpt lat="45.35591" lon="4.495">
        <ele>1070</ele>
        <time>2011-02-19T18:12:20Z</time>
      </trkpt>
      <trkpt lat="45.35595" lon="4.49508">
        <ele>1070</ele>
        <time>2011-02-19T18:12:22Z</time>
      </trkpt>
      <trkpt lat="45.356" lon="4.49515">
        <ele>1069</ele>
        <time>2011-02-19T18:12:24Z</time>
      </trkpt>
      <trkpt lat="45.35605" lon="4.49519">
        <ele>1069</ele>
        <time>2011-02-19T18:12:26Z</time>
      </trkpt>
      <trkpt lat="45.3561" lon="4.49521">
        <ele>1069</ele>
        <time>2011-02-19T18:12:28Z</time>
      </trkpt>
      <trkpt lat="45.35614" lon="4.49519">
        <ele>1068</ele>
        <time>2011-02-19T18:12:30Z</time>
      </trkpt>
      <trkpt lat="45.3562" lon="4.49515">
        <ele>1068</ele>
        <time>2011-02-19T18:12:32Z</time>
      </trkpt>
      <trkpt lat="45.35624" lon="4.49512">
        <ele>1067</ele>
        <time>2011-02-19T18:12:34Z</time>
      </trkpt>
      <trkpt lat="45.35628" lon="4.4951">
        <ele>1067</ele>
        <time>2011-02-19T18:12:36Z</time>
      </trkpt>
      <trkpt lat="45.35633" lon="4.49508">
        <ele>1067</ele>
        <time>2011-02-19T18:12:38Z</time>
      </trkpt>
      <trkpt lat="45.35639" lon="4.49508">
        <ele>1066</ele>
        <time>2011-02-19T18:12:40Z</time>
      </trkpt>
      <trkpt lat="45.35644" lon="4.49512">
        <ele>1066</ele>
        <time>2011-02-19T18:12:42Z</time>
      </trkpt>
      <trkpt lat="45.35651" lon="4.49515">
        <ele>1065</ele>
        <time>2011-02-19T18:12:44Z</time>
      </trkpt>
      <trkpt lat="45.35657" lon="4.49519">
        <ele>1065</ele>
        <time>2011-02-19T18:12:46Z</time>
      </trkpt>
      <trkpt lat="45.35663" lon="4.49521">
        <ele>1064</ele>
        <time>2011-02-19T18:12:48Z</time>
      </trkpt>
      <trkpt lat="45.35669" lon="4.49523">
        <ele>1064</ele>
        <time>2011-02-19T18:12:50Z</time>
      </trkpt>
      <trkpt lat="45.35674" lon="4.49525">
        <ele>1063</ele>
        <time>2011-02-19T18:12:52Z</time>
      </trkpt>
      <trkpt lat="45.3568" lon="4.49528">
        <ele>1063</ele>
        <time>2011-02-19T18:12:54Z</time>
      </trkpt>
      <trkpt lat="45.35685" lon="4.4953">
        <ele>1063</ele>
        <time>2011-02-19T18:12:56Z</time>
      </trkpt>
      <trkpt lat="45.35692" lon="4.49532">
        <ele>1062</ele>
        <time>2011-02-19T18:12:58Z</time>
      </trkpt>
      <trkpt lat="45.35696" lon="4.49534">
        <ele>1062</ele>
        <time>2011-02-19T18:13:00Z</time>
      </trkpt>
      <trkpt lat="45.35701" lon="4.49536">
        <ele>1062</ele>
        <time>2011-02-19T18:13:02Z</time>
      </trkpt>
      <trkpt lat="45.35707" lon="4.49536">
        <ele>1061</ele>
        <time>2011-02-19T18:13:04Z</time>
      </trkpt>
      <trkpt lat="45.35712" lon="4.49538">
        <ele>1061</ele>
        <time>2011-02-19T18:13:06Z</time>
      </trkpt>
      <trkpt lat="45.35716" lon="4.4954">
        <ele>1061</ele>
        <time>2011-02-19T18:13:08Z</time>
      </trkpt>
      <trkpt lat="45.35722" lon="4.49543">
        <ele>1060</ele>
        <time>2011-02-19T18:13:10Z</time>
      </trkpt>
      <trkpt lat="45.35726" lon="4.49547">
        <ele>1060</ele>
        <time>2011-02-19T18:13:12Z</time>
      </trkpt>
      <trkpt lat="45.35729" lon="4.49553">
        <ele>1059</ele>
        <time>2011-02-19T18:13:14Z</time>
      </trkpt>
      <trkpt lat="45.35732" lon="4.4956">
        <ele>1059</ele>
        <time>2011-02-19T18:13:16Z</time>
      </trkpt>
      <trkpt lat="45.35737" lon="4.49566">
        <ele>1058</ele>
        <time>2011-02-19T18:13:18Z</time>
      </trkpt>
      <trkpt lat="45.35742" lon="4.49573">
        <ele>1057</ele>
        <time>2011-02-19T18:13:21Z</time>
      </trkpt>
      <trkpt lat="45.35746" lon="4.49579">
        <ele>1056</ele>
        <time>2011-02-19T18:13:23Z</time>
      </trkpt>
      <trkpt lat="45.35753" lon="4.49583">
        <ele>1055</ele>
        <time>2011-02-19T18:13:26Z</time>
      </trkpt>
      <trkpt lat="45.35757" lon="4.49588">
        <ele>1055</ele>
        <time>2011-02-19T18:13:28Z</time>
      </trkpt>
      <trkpt lat="45.35761" lon="4.4959">
        <ele>1054</ele>
        <time>2011-02-19T18:13:30Z</time>
      </trkpt>
      <trkpt lat="45.35766" lon="4.49594">
        <ele>1053</ele>
        <time>2011-02-19T18:13:32Z</time>
      </trkpt>
      <trkpt lat="45.3577" lon="4.49598">
        <ele>1053</ele>
        <time>2011-02-19T18:13:34Z</time>
      </trkpt>
      <trkpt lat="45.35774" lon="4.49605">
        <ele>1053</ele>
        <time>2011-02-19T18:13:36Z</time>
      </trkpt>
      <trkpt lat="45.35779" lon="4.49611">
        <ele>1052</ele>
        <time>2011-02-19T18:13:38Z</time>
      </trkpt>
      <trkpt lat="45.35782" lon="4.49618">
        <ele>1052</ele>
        <time>2011-02-19T18:13:40Z</time>
      </trkpt>
      <trkpt lat="45.35785" lon="4.49624">
        <ele>1052</ele>
        <time>2011-02-19T18:13:42Z</time>
      </trkpt>
      <trkpt lat="45.35788" lon="4.49633">
        <ele>1052</ele>
        <time>2011-02-19T18:13:44Z</time>
      </trkpt>
      <trkpt lat="45.3579" lon="4.49639">
        <ele>1051</ele>
        <time>2011-02-19T18:13:46Z</time>
      </trkpt>
      <trkpt lat="45.35792" lon="4.49646">
        <ele>1051</ele>
        <time>2011-02-19T18:13:48Z</time>
      </trkpt>
      <trkpt lat="45.35795" lon="4.49652">
        <ele>1051</ele>
        <time>2011-02-19T18:13:50Z</time>
      </trkpt>
      <trkpt lat="45.35797" lon="4.49661">
        <ele>1051</ele>
        <time>2011-02-19T18:13:52Z</time>
      </trkpt>
      <trkpt lat="45.35798" lon="4.49667">
        <ele>1052</ele>
        <time>2011-02-19T18:13:54Z</time>
      </trkpt>
      <trkpt lat="45.35799" lon="4.49673">
        <ele>1052</ele>
        <time>2011-02-19T18:13:56Z</time>
      </trkpt>
      <trkpt lat="45.358" lon="4.4968">
        <ele>1052</ele>
        <time>2011-02-19T18:13:58Z</time>
      </trkpt>
      <trkpt lat="45.358" lon="4.49688">
        <ele>1052</ele>
        <time>2011-02-19T18:14:00Z</time>
      </trkpt>
      <trkpt lat="45.358" lon="4.49695">
        <ele>1052</ele>
        <time>2011-02-19T18:14:02Z</time>
      </trkpt>
      <trkpt lat="45.35799" lon="4.49703">
        <ele>1052</ele>
        <time>2011-02-19T18:14:04Z</time>
      </trkpt>
      <trkpt lat="45.35797" lon="4.4971">
        <ele>1052</ele>
        <time>2011-02-19T18:14:06Z</time>
      </trkpt>
      <trkpt lat="45.35796" lon="4.49716">
        <ele>1052</ele>
        <time>2011-02-19T18:14:08Z</time>
      </trkpt>
      <trkpt lat="45.35795" lon="4.49725">
        <ele>1052</ele>
        <time>2011-02-19T18:14:10Z</time>
      </trkpt>
      <trkpt lat="45.35794" lon="4.49731">
        <ele>1052</ele>
        <time>2011-02-19T18:14:12Z</time>
      </trkpt>
      <trkpt lat="45.35792" lon="4.49738">
        <ele>1052</ele>
        <time>2011-02-19T18:14:14Z</time>
      </trkpt>
      <trkpt lat="45.35794" lon="4.49746">
        <ele>1052</ele>
        <time>2011-02-19T18:14:17Z</time>
      </trkpt>
      <trkpt lat="45.35794" lon="4.49753">
        <ele>1052</ele>
        <time>2011-02-19T18:14:19Z</time>
      </trkpt>
      <trkpt lat="45.35794" lon="4.49761">
        <ele>1052</ele>
        <time>2011-02-19T18:14:22Z</time>
      </trkpt>
      <trkpt lat="45.35794" lon="4.4977">
        <ele>1052</ele>
        <time>2011-02-19T18:14:25Z</time>
      </trkpt>
      <trkpt lat="45.35794" lon="4.49776">
        <ele>1052</ele>
        <time>2011-02-19T18:14:27Z</time>
      </trkpt>
      <trkpt lat="45.35794" lon="4.49783">
        <ele>1052</ele>
        <time>2011-02-19T18:14:29Z</time>
      </trkpt>
      <trkpt lat="45.35792" lon="4.49789">
        <ele>1052</ele>
        <time>2011-02-19T18:14:31Z</time>
      </trkpt>
      <trkpt lat="45.3579" lon="4.49796">
        <ele>1052</ele>
        <time>2011-02-19T18:14:33Z</time>
      </trkpt>
      <trkpt lat="45.35788" lon="4.49804">
        <ele>1052</ele>
        <time>2011-02-19T18:14:36Z</time>
      </trkpt>
      <trkpt lat="45.35786" lon="4.49813">
        <ele>1052</ele>
        <time>2011-02-19T18:14:39Z</time>
      </trkpt>
      <trkpt lat="45.35785" lon="4.49819">
        <ele>1052</ele>
        <time>2011-02-19T18:14:42Z</time>
      </trkpt>
      <trkpt lat="45.35784" lon="4.49826">
        <ele>1052</ele>
        <time>2011-02-19T18:14:44Z</time>
      </trkpt>
      <trkpt lat="45.35782" lon="4.49832">
        <ele>1052</ele>
        <time>2011-02-19T18:14:46Z</time>
      </trkpt>
      <trkpt lat="45.35779" lon="4.49839">
        <ele>1052</ele>
        <time>2011-02-19T18:14:49Z</time>
      </trkpt>
      <trkpt lat="45.35777" lon="4.49845">
        <ele>1052</ele>
        <time>2011-02-19T18:14:51Z</time>
      </trkpt>
      <trkpt lat="45.35777" lon="4.49852">
        <ele>1051</ele>
        <time>2011-02-19T18:14:54Z</time>
      </trkpt>
      <trkpt lat="45.35776" lon="4.49858">
        <ele>1051</ele>
        <time>2011-02-19T18:14:56Z</time>
      </trkpt>
      <trkpt lat="45.35774" lon="4.49864">
        <ele>1051</ele>
        <time>2011-02-19T18:14:59Z</time>
      </trkpt>
      <trkpt lat="45.35774" lon="4.49873">
        <ele>1051</ele>
        <time>2011-02-19T18:15:02Z</time>
      </trkpt>
      <trkpt lat="45.35773" lon="4.49879">
        <ele>1051</ele>
        <time>2011-02-19T18:15:05Z</time>
      </trkpt>
      <trkpt lat="45.35773" lon="4.49886">
        <ele>1051</ele>
        <time>2011-02-19T18:15:08Z</time>
      </trkpt>
      <trkpt lat="45.35773" lon="4.49892">
        <ele>1050</ele>
        <time>2011-02-19T18:15:11Z</time>
      </trkpt>
      <trkpt lat="45.35773" lon="4.49899">
        <ele>1050</ele>
        <time>2011-02-19T18:15:13Z</time>
      </trkpt>
      <trkpt lat="45.35773" lon="4.49905">
        <ele>1050</ele>
        <time>2011-02-19T18:15:16Z</time>
      </trkpt>
      <trkpt lat="45.35773" lon="4.49912">
        <ele>1050</ele>
        <time>2011-02-19T18:15:19Z</time>
      </trkpt>
      <trkpt lat="45.35774" lon="4.4992">
        <ele>1050</ele>
        <time>2011-02-19T18:15:22Z</time>
      </trkpt>
      <trkpt lat="45.35774" lon="4.49927">
        <ele>1049</ele>
        <time>2011-02-19T18:15:25Z</time>
      </trkpt>
      <trkpt lat="45.35774" lon="4.49933">
        <ele>1049</ele>
        <time>2011-02-19T18:15:28Z</time>
      </trkpt>
      <trkpt lat="45.35774" lon="4.49939">
        <ele>1049</ele>
        <time>2011-02-19T18:15:31Z</time>
      </trkpt>
      <trkpt lat="45.35774" lon="4.49946">
        <ele>1049</ele>
        <time>2011-02-19T18:15:33Z</time>
      </trkpt>
      <trkpt lat="45.35775" lon="4.49952">
        <ele>1048</ele>
        <time>2011-02-19T18:15:36Z</time>
      </trkpt>
      <trkpt lat="45.35774" lon="4.49959">
        <ele>1048</ele>
        <time>2011-02-19T18:15:39Z</time>
      </trkpt>
      <trkpt lat="45.35774" lon="4.49965">
        <ele>1048</ele>
        <time>2011-02-19T18:15:41Z</time>
      </trkpt>
      <trkpt lat="45.35773" lon="4.49972">
        <ele>1048</ele>
        <time>2011-02-19T18:15:43Z</time>
      </trkpt>
      <trkpt lat="45.35771" lon="4.49978">
        <ele>1048</ele>
        <time>2011-02-19T18:15:46Z</time>
      </trkpt>
      <trkpt lat="45.3577" lon="4.49985">
        <ele>1048</ele>
        <time>2011-02-19T18:15:48Z</time>
      </trkpt>
      <trkpt lat="45.35768" lon="4.49991">
        <ele>1048</ele>
        <time>2011-02-19T18:15:51Z</time>
      </trkpt>
      <trkpt lat="45.35767" lon="4.49997">
        <ele>1048</ele>
        <time>2011-02-19T18:15:53Z</time>
      </trkpt>
      <trkpt lat="45.35766" lon="4.50004">
        <ele>1047</ele>
        <time>2011-02-19T18:15:56Z</time>
      </trkpt>
      <trkpt lat="45.35765" lon="4.50012">
        <ele>1047</ele>
        <time>2011-02-19T18:15:59Z</time>
      </trkpt>
      <trkpt lat="45.35764" lon="4.50019">
        <ele>1047</ele>
        <time>2011-02-19T18:16:02Z</time>
      </trkpt>
      <trkpt lat="45.35764" lon="4.50025">
        <ele>1047</ele>
        <time>2011-02-19T18:16:05Z</time>
      </trkpt>
      <trkpt lat="45.35764" lon="4.50032">
        <ele>1047</ele>
        <time>2011-02-19T18:16:08Z</time>
      </trkpt>
      <trkpt lat="45.35765" lon="4.50038">
        <ele>1047</ele>
        <time>2011-02-19T18:16:11Z</time>
      </trkpt>
      <trkpt lat="45.35766" lon="4.50045">
        <ele>1047</ele>
        <time>2011-02-19T18:16:14Z</time>
      </trkpt>
      <trkpt lat="45.35768" lon="4.50051">
        <ele>1047</ele>
        <time>2011-02-19T18:16:17Z</time>
      </trkpt>
      <trkpt lat="45.35771" lon="4.50055">
        <ele>1046</ele>
        <time>2011-02-19T18:16:20Z</time>
      </trkpt>
      <trkpt lat="45.35773" lon="4.50062">
        <ele>1046</ele>
        <time>2011-02-19T18:16:23Z</time>
      </trkpt>
      <trkpt lat="45.35775" lon="4.50068">
        <ele>1046</ele>
        <time>2011-02-19T18:16:26Z</time>
      </trkpt>
      <trkpt lat="45.35775" lon="4.50068">
        <ele>1046</ele>
        <time>2011-02-19T18:16:26Z</time>
      </trkpt>
      <trkpt lat="45.35775" lon="4.50068">
        <ele>1046</ele>
        <time>2011-02-19T18:16:27Z</time>
      </trkpt>
      <trkpt lat="45.35777" lon="4.50075">
        <ele>1046</ele>
        <time>2011-02-19T18:16:30Z</time>
      </trkpt>
      <trkpt lat="45.3578" lon="4.50081">
        <ele>1046</ele>
        <time>2011-02-19T18:16:33Z</time>
      </trkpt>
      <trkpt lat="45.35782" lon="4.50088">
        <ele>1046</ele>
        <time>2011-02-19T18:16:36Z</time>
      </trkpt>
      <trkpt lat="45.35785" lon="4.50094">
        <ele>1046</ele>
        <time>2011-02-19T18:16:40Z</time>
      </trkpt>
      <trkpt lat="45.35789" lon="4.501">
        <ele>1047</ele>
        <time>2011-02-19T18:16:43Z</time>
      </trkpt>
      <trkpt lat="45.35792" lon="4.50107">
        <ele>1047</ele>
        <time>2011-02-19T18:16:46Z</time>
      </trkpt>
      <trkpt lat="45.35797" lon="4.50113">
        <ele>1048</ele>
        <time>2011-02-19T18:16:50Z</time>
      </trkpt>
      <trkpt lat="45.358" lon="4.5012">
        <ele>1048</ele>
        <time>2011-02-19T18:16:53Z</time>
      </trkpt>
      <trkpt lat="45.35803" lon="4.50126">
        <ele>1049</ele>
        <time>2011-02-19T18:16:56Z</time>
      </trkpt>
      <trkpt lat="45.35805" lon="4.50133">
        <ele>1049</ele>
        <time>2011-02-19T18:16:58Z</time>
      </trkpt>
      <trkpt lat="45.35805" lon="4.50139">
        <ele>1050</ele>
        <time>2011-02-19T18:17:01Z</time>
      </trkpt>
      <trkpt lat="45.35803" lon="4.50145">
        <ele>1051</ele>
        <time>2011-02-19T18:17:05Z</time>
      </trkpt>
      <trkpt lat="45.35801" lon="4.50152">
        <ele>1051</ele>
        <time>2011-02-19T18:17:08Z</time>
      </trkpt>
      <trkpt lat="45.35798" lon="4.50158">
        <ele>1052</ele>
        <time>2011-02-19T18:17:12Z</time>
      </trkpt>
      <trkpt lat="45.35794" lon="4.50163">
        <ele>1052</ele>
        <time>2011-02-19T18:17:15Z</time>
      </trkpt>
      <trkpt lat="45.35789" lon="4.50167">
        <ele>1053</ele>
        <time>2011-02-19T18:17:18Z</time>
      </trkpt>
      <trkpt lat="45.35785" lon="4.50171">
        <ele>1053</ele>
        <time>2011-02-19T18:17:21Z</time>
      </trkpt>
      <trkpt lat="45.35781" lon="4.50173">
        <ele>1053</ele>
        <time>2011-02-19T18:17:23Z</time>
      </trkpt>
      <trkpt lat="45.35775" lon="4.5018">
        <ele>1054</ele>
        <time>2011-02-19T18:17:26Z</time>
      </trkpt>
      <trkpt lat="45.35771" lon="4.50182">
        <ele>1054</ele>
        <time>2011-02-19T18:17:28Z</time>
      </trkpt>
      <trkpt lat="45.35766" lon="4.50188">
        <ele>1054</ele>
        <time>2011-02-19T18:17:31Z</time>
      </trkpt>
      <trkpt lat="45.35761" lon="4.50191">
        <ele>1054</ele>
        <time>2011-02-19T18:17:33Z</time>
      </trkpt>
      <trkpt lat="45.35756" lon="4.50195">
        <ele>1055</ele>
        <time>2011-02-19T18:17:36Z</time>
      </trkpt>
      <trkpt lat="45.35752" lon="4.50201">
        <ele>1055</ele>
        <time>2011-02-19T18:17:39Z</time>
      </trkpt>
      <trkpt lat="45.35746" lon="4.50206">
        <ele>1055</ele>
        <time>2011-02-19T18:17:42Z</time>
      </trkpt>
      <trkpt lat="45.35742" lon="4.50212">
        <ele>1055</ele>
        <time>2011-02-19T18:17:45Z</time>
      </trkpt>
      <trkpt lat="45.3574" lon="4.50218">
        <ele>1055</ele>
        <time>2011-02-19T18:17:47Z</time>
      </trkpt>
      <trkpt lat="45.35737" lon="4.50225">
        <ele>1055</ele>
        <time>2011-02-19T18:17:50Z</time>
      </trkpt>
      <trkpt lat="45.35735" lon="4.50231">
        <ele>1055</ele>
        <time>2011-02-19T18:17:52Z</time>
      </trkpt>
      <trkpt lat="45.35731" lon="4.50238">
        <ele>1055</ele>
        <time>2011-02-19T18:17:55Z</time>
      </trkpt>
      <trkpt lat="45.35727" lon="4.50244">
        <ele>1055</ele>
        <time>2011-02-19T18:17:58Z</time>
      </trkpt>
      <trkpt lat="45.35722" lon="4.50251">
        <ele>1055</ele>
        <time>2011-02-19T18:18:01Z</time>
      </trkpt>
      <trkpt lat="45.35716" lon="4.50255">
        <ele>1055</ele>
        <time>2011-02-19T18:18:04Z</time>
      </trkpt>
      <trkpt lat="45.35711" lon="4.50261">
        <ele>1055</ele>
        <time>2011-02-19T18:18:07Z</time>
      </trkpt>
      <trkpt lat="45.35707" lon="4.50266">
        <ele>1055</ele>
        <time>2011-02-19T18:18:10Z</time>
      </trkpt>
      <trkpt lat="45.35701" lon="4.50272">
        <ele>1055</ele>
        <time>2011-02-19T18:18:13Z</time>
      </trkpt>
      <trkpt lat="45.35697" lon="4.50274">
        <ele>1055</ele>
        <time>2011-02-19T18:18:15Z</time>
      </trkpt>
      <trkpt lat="45.35693" lon="4.50279">
        <ele>1055</ele>
        <time>2011-02-19T18:18:17Z</time>
      </trkpt>
      <trkpt lat="45.35686" lon="4.50283">
        <ele>1055</ele>
        <time>2011-02-19T18:18:20Z</time>
      </trkpt>
      <trkpt lat="45.35682" lon="4.50285">
        <ele>1055</ele>
        <time>2011-02-19T18:18:22Z</time>
      </trkpt>
      <trkpt lat="45.35678" lon="4.50287">
        <ele>1055</ele>
        <time>2011-02-19T18:18:24Z</time>
      </trkpt>
      <trkpt lat="45.35672" lon="4.50291">
        <ele>1056</ele>
        <time>2011-02-19T18:18:27Z</time>
      </trkpt>
      <trkpt lat="45.35667" lon="4.50298">
        <ele>1056</ele>
        <time>2011-02-19T18:18:30Z</time>
      </trkpt>
      <trkpt lat="45.35663" lon="4.50302">
        <ele>1056</ele>
        <time>2011-02-19T18:18:33Z</time>
      </trkpt>
      <trkpt lat="45.35658" lon="4.50309">
        <ele>1056</ele>
        <time>2011-02-19T18:18:36Z</time>
      </trkpt>
      <trkpt lat="45.35654" lon="4.50313">
        <ele>1057</ele>
        <time>2011-02-19T18:18:39Z</time>
      </trkpt>
      <trkpt lat="45.3565" lon="4.50317">
        <ele>1058</ele>
        <time>2011-02-19T18:18:42Z</time>
      </trkpt>
      <trkpt lat="45.35645" lon="4.50321">
        <ele>1058</ele>
        <time>2011-02-19T18:18:45Z</time>
      </trkpt>
      <trkpt lat="45.35641" lon="4.50328">
        <ele>1059</ele>
        <time>2011-02-19T18:18:48Z</time>
      </trkpt>
      <trkpt lat="45.35637" lon="4.50332">
        <ele>1059</ele>
        <time>2011-02-19T18:18:51Z</time>
      </trkpt>
      <trkpt lat="45.35632" lon="4.50336">
        <ele>1060</ele>
        <time>2011-02-19T18:18:54Z</time>
      </trkpt>
      <trkpt lat="45.35626" lon="4.50341">
        <ele>1061</ele>
        <time>2011-02-19T18:18:57Z</time>
      </trkpt>
      <trkpt lat="45.35622" lon="4.50345">
        <ele>1061</ele>
        <time>2011-02-19T18:19:00Z</time>
      </trkpt>
      <trkpt lat="45.35617" lon="4.50347">
        <ele>1062</ele>
        <time>2011-02-19T18:19:03Z</time>
      </trkpt>
      <trkpt lat="45.35612" lon="4.50351">
        <ele>1062</ele>
        <time>2011-02-19T18:19:06Z</time>
      </trkpt>
      <trkpt lat="45.35608" lon="4.50354">
        <ele>1063</ele>
        <time>2011-02-19T18:19:08Z</time>
      </trkpt>
      <trkpt lat="45.35603" lon="4.50356">
        <ele>1063</ele>
        <time>2011-02-19T18:19:11Z</time>
      </trkpt>
      <trkpt lat="45.35598" lon="4.50358">
        <ele>1064</ele>
        <time>2011-02-19T18:19:13Z</time>
      </trkpt>
      <trkpt lat="45.35592" lon="4.50358">
        <ele>1064</ele>
        <time>2011-02-19T18:19:16Z</time>
      </trkpt>
      <trkpt lat="45.35584" lon="4.50358">
        <ele>1065</ele>
        <time>2011-02-19T18:19:19Z</time>
      </trkpt>
      <trkpt lat="45.35579" lon="4.50356">
        <ele>1066</ele>
        <time>2011-02-19T18:19:21Z</time>
      </trkpt>
      <trkpt lat="45.35574" lon="4.50354">
        <ele>1067</ele>
        <time>2011-02-19T18:19:23Z</time>
      </trkpt>
      <trkpt lat="45.35568" lon="4.50354">
        <ele>1067</ele>
        <time>2011-02-19T18:19:25Z</time>
      </trkpt>
      <trkpt lat="45.35562" lon="4.50354">
        <ele>1069</ele>
        <time>2011-02-19T18:19:28Z</time>
      </trkpt>
      <trkpt lat="45.35554" lon="4.50354">
        <ele>1070</ele>
        <time>2011-02-19T18:19:31Z</time>
      </trkpt>
      <trkpt lat="45.35548" lon="4.50356">
        <ele>1071</ele>
        <time>2011-02-19T18:19:34Z</time>
      </trkpt>
      <trkpt lat="45.35542" lon="4.50358">
        <ele>1072</ele>
        <time>2011-02-19T18:19:37Z</time>
      </trkpt>
      <trkpt lat="45.35538" lon="4.50362">
        <ele>1073</ele>
        <time>2011-02-19T18:19:40Z</time>
      </trkpt>
      <trkpt lat="45.35534" lon="4.50369">
        <ele>1073</ele>
        <time>2011-02-19T18:19:43Z</time>
      </trkpt>
      <trkpt lat="45.3553" lon="4.50371">
        <ele>1074</ele>
        <time>2011-02-19T18:19:46Z</time>
      </trkpt>
      <trkpt lat="45.35525" lon="4.50375">
        <ele>1075</ele>
        <time>2011-02-19T18:19:49Z</time>
      </trkpt>
      <trkpt lat="45.35521" lon="4.50379">
        <ele>1076</ele>
        <time>2011-02-19T18:19:52Z</time>
      </trkpt>
      <trkpt lat="45.35517" lon="4.50384">
        <ele>1076</ele>
        <time>2011-02-19T18:19:55Z</time>
      </trkpt>
      <trkpt lat="45.35512" lon="4.50388">
        <ele>1077</ele>
        <time>2011-02-19T18:19:58Z</time>
      </trkpt>
      <trkpt lat="45.35508" lon="4.50392">
        <ele>1077</ele>
        <time>2011-02-19T18:20:01Z</time>
      </trkpt>
      <trkpt lat="45.35503" lon="4.50394">
        <ele>1078</ele>
        <time>2011-02-19T18:20:04Z</time>
      </trkpt>
      <trkpt lat="45.35498" lon="4.50399">
        <ele>1078</ele>
        <time>2011-02-19T18:20:07Z</time>
      </trkpt>
      <trkpt lat="45.35494" lon="4.50403">
        <ele>1078</ele>
        <time>2011-02-19T18:20:10Z</time>
      </trkpt>
      <trkpt lat="45.3549" lon="4.50407">
        <ele>1079</ele>
        <time>2011-02-19T18:20:13Z</time>
      </trkpt>
      <trkpt lat="45.35486" lon="4.50412">
        <ele>1079</ele>
        <time>2011-02-19T18:20:16Z</time>
      </trkpt>
      <trkpt lat="45.3548" lon="4.50416">
        <ele>1079</ele>
        <time>2011-02-19T18:20:19Z</time>
      </trkpt>
      <trkpt lat="45.35476" lon="4.5042">
        <ele>1080</ele>
        <time>2011-02-19T18:20:22Z</time>
      </trkpt>
      <trkpt lat="45.35471" lon="4.50424">
        <ele>1081</ele>
        <time>2011-02-19T18:20:25Z</time>
      </trkpt>
      <trkpt lat="45.35465" lon="4.50429">
        <ele>1081</ele>
        <time>2011-02-19T18:20:28Z</time>
      </trkpt>
      <trkpt lat="45.35461" lon="4.50431">
        <ele>1082</ele>
        <time>2011-02-19T18:20:30Z</time>
      </trkpt>
      <trkpt lat="45.35457" lon="4.50433">
        <ele>1082</ele>
        <time>2011-02-19T18:20:32Z</time>
      </trkpt>
      <trkpt lat="45.35451" lon="4.50437">
        <ele>1083</ele>
        <time>2011-02-19T18:20:35Z</time>
      </trkpt>
      <trkpt lat="45.35446" lon="4.50439">
        <ele>1083</ele>
        <time>2011-02-19T18:20:38Z</time>
      </trkpt>
      <trkpt lat="45.35441" lon="4.50444">
        <ele>1084</ele>
        <time>2011-02-19T18:20:41Z</time>
      </trkpt>
      <trkpt lat="45.35436" lon="4.50448">
        <ele>1084</ele>
        <time>2011-02-19T18:20:44Z</time>
      </trkpt>
      <trkpt lat="45.35431" lon="4.50452">
        <ele>1085</ele>
        <time>2011-02-19T18:20:47Z</time>
      </trkpt>
      <trkpt lat="45.35426" lon="4.50454">
        <ele>1086</ele>
        <time>2011-02-19T18:20:50Z</time>
      </trkpt>
      <trkpt lat="45.3542" lon="4.50457">
        <ele>1087</ele>
        <time>2011-02-19T18:20:53Z</time>
      </trkpt>
      <trkpt lat="45.35416" lon="4.50461">
        <ele>1089</ele>
        <time>2011-02-19T18:20:56Z</time>
      </trkpt>
      <trkpt lat="45.35409" lon="4.50465">
        <ele>1090</ele>
        <time>2011-02-19T18:21:00Z</time>
      </trkpt>
      <trkpt lat="45.35405" lon="4.50469">
        <ele>1091</ele>
        <time>2011-02-19T18:21:03Z</time>
      </trkpt>
      <trkpt lat="45.35401" lon="4.50472">
        <ele>1093</ele>
        <time>2011-02-19T18:21:06Z</time>
      </trkpt>
      <trkpt lat="45.35397" lon="4.50476">
        <ele>1094</ele>
        <time>2011-02-19T18:21:09Z</time>
      </trkpt>
      <trkpt lat="45.35391" lon="4.5048">
        <ele>1095</ele>
        <time>2011-02-19T18:21:13Z</time>
      </trkpt>
      <trkpt lat="45.35387" lon="4.50485">
        <ele>1096</ele>
        <time>2011-02-19T18:21:16Z</time>
      </trkpt>
      <trkpt lat="45.35383" lon="4.50487">
        <ele>1098</ele>
        <time>2011-02-19T18:21:19Z</time>
      </trkpt>
      <trkpt lat="45.35378" lon="4.50493">
        <ele>1100</ele>
        <time>2011-02-19T18:21:22Z</time>
      </trkpt>
      <trkpt lat="45.35374" lon="4.505">
        <ele>1102</ele>
        <time>2011-02-19T18:21:26Z</time>
      </trkpt>
      <trkpt lat="45.3537" lon="4.50504">
        <ele>1104</ele>
        <time>2011-02-19T18:21:30Z</time>
      </trkpt>
      <trkpt lat="45.35367" lon="4.5051">
        <ele>1105</ele>
        <time>2011-02-19T18:21:33Z</time>
      </trkpt>
      <trkpt lat="45.35362" lon="4.50517">
        <ele>1107</ele>
        <time>2011-02-19T18:21:37Z</time>
      </trkpt>
      <trkpt lat="45.35359" lon="4.50523">
        <ele>1109</ele>
        <time>2011-02-19T18:21:40Z</time>
      </trkpt>
      <trkpt lat="45.35356" lon="4.5053">
        <ele>1110</ele>
        <time>2011-02-19T18:21:43Z</time>
      </trkpt>
      <trkpt lat="45.35353" lon="4.50536">
        <ele>1111</ele>
        <time>2011-02-19T18:21:46Z</time>
      </trkpt>
      <trkpt lat="45.35349" lon="4.50542">
        <ele>1112</ele>
        <time>2011-02-19T18:21:49Z</time>
      </trkpt>
      <trkpt lat="45.35345" lon="4.50549">
        <ele>1114</ele>
        <time>2011-02-19T18:21:53Z</time>
      </trkpt>
      <trkpt lat="45.35341" lon="4.50555">
        <ele>1116</ele>
        <time>2011-02-19T18:21:57Z</time>
      </trkpt>
      <trkpt lat="45.35336" lon="4.5056">
        <ele>1117</ele>
        <time>2011-02-19T18:22:01Z</time>
      </trkpt>
      <trkpt lat="45.35332" lon="4.50564">
        <ele>1118</ele>
        <time>2011-02-19T18:22:04Z</time>
      </trkpt>
      <trkpt lat="45.35328" lon="4.50568">
        <ele>1119</ele>
        <time>2011-02-19T18:22:08Z</time>
      </trkpt>
      <trkpt lat="45.35325" lon="4.50575">
        <ele>1120</ele>
        <time>2011-02-19T18:22:12Z</time>
      </trkpt>
      <trkpt lat="45.3532" lon="4.50581">
        <ele>1120</ele>
        <time>2011-02-19T18:22:16Z</time>
      </trkpt>
      <trkpt lat="45.35316" lon="4.50588">
        <ele>1121</ele>
        <time>2011-02-19T18:22:20Z</time>
      </trkpt>
      <trkpt lat="45.35312" lon="4.50594">
        <ele>1122</ele>
        <time>2011-02-19T18:22:25Z</time>
      </trkpt>
      <trkpt lat="45.35308" lon="4.50598">
        <ele>1123</ele>
        <time>2011-02-19T18:22:29Z</time>
      </trkpt>
      <trkpt lat="45.35303" lon="4.50603">
        <ele>1124</ele>
        <time>2011-02-19T18:22:32Z</time>
      </trkpt>
      <trkpt lat="45.35299" lon="4.50607">
        <ele>1124</ele>
        <time>2011-02-19T18:22:36Z</time>
      </trkpt>
      <trkpt lat="45.35295" lon="4.50613">
        <ele>1125</ele>
        <time>2011-02-19T18:22:40Z</time>
      </trkpt>
      <trkpt lat="45.3529" lon="4.5062">
        <ele>1126</ele>
        <time>2011-02-19T18:22:44Z</time>
      </trkpt>
      <trkpt lat="45.35288" lon="4.50626">
        <ele>1126</ele>
        <time>2011-02-19T18:22:47Z</time>
      </trkpt>
      <trkpt lat="45.35285" lon="4.50633">
        <ele>1126</ele>
        <time>2011-02-19T18:22:51Z</time>
      </trkpt>
      <trkpt lat="45.35283" lon="4.50641">
        <ele>1126</ele>
        <time>2011-02-19T18:22:54Z</time>
      </trkpt>
      <trkpt lat="45.35282" lon="4.50648">
        <ele>1126</ele>
        <time>2011-02-19T18:22:57Z</time>
      </trkpt>
      <trkpt lat="45.3528" lon="4.50654">
        <ele>1127</ele>
        <time>2011-02-19T18:23:00Z</time>
      </trkpt>
      <trkpt lat="45.35279" lon="4.5066">
        <ele>1127</ele>
        <time>2011-02-19T18:23:02Z</time>
      </trkpt>
      <trkpt lat="45.35279" lon="4.50667">
        <ele>1127</ele>
        <time>2011-02-19T18:23:04Z</time>
      </trkpt>
      <trkpt lat="45.35277" lon="4.50675">
        <ele>1128</ele>
        <time>2011-02-19T18:23:07Z</time>
      </trkpt>
      <trkpt lat="45.35276" lon="4.50682">
        <ele>1128</ele>
        <time>2011-02-19T18:23:10Z</time>
      </trkpt>
      <trkpt lat="45.35276" lon="4.50691">
        <ele>1129</ele>
        <time>2011-02-19T18:23:13Z</time>
      </trkpt>
      <trkpt lat="45.35277" lon="4.50697">
        <ele>1129</ele>
        <time>2011-02-19T18:23:16Z</time>
      </trkpt>
      <trkpt lat="45.35279" lon="4.50703">
        <ele>1130</ele>
        <time>2011-02-19T18:23:19Z</time>
      </trkpt>
      <trkpt lat="45.3528" lon="4.5071">
        <ele>1130</ele>
        <time>2011-02-19T18:23:22Z</time>
      </trkpt>
      <trkpt lat="45.3528" lon="4.5071">
        <ele>1130</ele>
        <time>2011-02-19T18:23:22Z</time>
      </trkpt>
      <trkpt lat="45.3528" lon="4.5071">
        <ele>1130</ele>
        <time>2011-02-19T18:23:23Z</time>
      </trkpt>
      <trkpt lat="45.35281" lon="4.50716">
        <ele>1131</ele>
        <time>2011-02-19T18:23:26Z</time>
      </trkpt>
      <trkpt lat="45.35282" lon="4.50723">
        <ele>1131</ele>
        <time>2011-02-19T18:23:30Z</time>
      </trkpt>
      <trkpt lat="45.35283" lon="4.50729">
        <ele>1131</ele>
        <time>2011-02-19T18:23:34Z</time>
      </trkpt>
      <trkpt lat="45.35284" lon="4.50736">
        <ele>1130</ele>
        <time>2011-02-19T18:23:37Z</time>
      </trkpt>
      <trkpt lat="45.35284" lon="4.50736">
        <ele>1130</ele>
        <time>2011-02-19T18:23:37Z</time>
      </trkpt>
      <trkpt lat="45.35284" lon="4.50736">
        <ele>1130</ele>
        <time>2011-02-19T18:23:38Z</time>
      </trkpt>
      <trkpt lat="45.35284" lon="4.50742">
        <ele>1130</ele>
        <time>2011-02-19T18:23:45Z</time>
      </trkpt>
      <trkpt lat="45.35284" lon="4.50742">
        <ele>1130</ele>
        <time>2011-02-19T18:23:45Z</time>
      </trkpt>
      <trkpt lat="45.35284" lon="4.50742">
        <ele>1130</ele>
        <time>2011-02-19T18:23:46Z</time>
      </trkpt>
      <trkpt lat="45.35284" lon="4.50748">
        <ele>1130</ele>
        <time>2011-02-19T18:23:49Z</time>
      </trkpt>
      <trkpt lat="45.35284" lon="4.50755">
        <ele>1130</ele>
        <time>2011-02-19T18:23:52Z</time>
      </trkpt>
      <trkpt lat="45.35284" lon="4.50761">
        <ele>1130</ele>
        <time>2011-02-19T18:23:55Z</time>
      </trkpt>
      <trkpt lat="45.35285" lon="4.50768">
        <ele>1130</ele>
        <time>2011-02-19T18:23:57Z</time>
      </trkpt>
      <trkpt lat="45.35285" lon="4.50774">
        <ele>1129</ele>
        <time>2011-02-19T18:23:59Z</time>
      </trkpt>
      <trkpt lat="45.35285" lon="4.50783">
        <ele>1129</ele>
        <time>2011-02-19T18:24:02Z</time>
      </trkpt>
      <trkpt lat="45.35286" lon="4.50789">
        <ele>1129</ele>
        <time>2011-02-19T18:24:05Z</time>
      </trkpt>
      <trkpt lat="45.35287" lon="4.50796">
        <ele>1129</ele>
        <time>2011-02-19T18:24:08Z</time>
      </trkpt>
      <trkpt lat="45.35288" lon="4.50802">
        <ele>1129</ele>
        <time>2011-02-19T18:24:11Z</time>
      </trkpt>
      <trkpt lat="45.35288" lon="4.50809">
        <ele>1129</ele>
        <time>2011-02-19T18:24:14Z</time>
      </trkpt>
      <trkpt lat="45.35287" lon="4.50815">
        <ele>1129</ele>
        <time>2011-02-19T18:24:17Z</time>
      </trkpt>
      <trkpt lat="45.35287" lon="4.50815">
        <ele>1129</ele>
        <time>2011-02-19T18:24:17Z</time>
      </trkpt>
      <trkpt lat="45.35287" lon="4.50815">
        <ele>1129</ele>
        <time>2011-02-19T18:24:18Z</time>
      </trkpt>
      <trkpt lat="45.35286" lon="4.50821">
        <ele>1129</ele>
        <time>2011-02-19T18:24:21Z</time>
      </trkpt>
      <trkpt lat="45.35286" lon="4.50828">
        <ele>1129</ele>
        <time>2011-02-19T18:24:24Z</time>
      </trkpt>
      <trkpt lat="45.35285" lon="4.50834">
        <ele>1129</ele>
        <time>2011-02-19T18:24:28Z</time>
      </trkpt>
      <trkpt lat="45.35285" lon="4.50841">
        <ele>1130</ele>
        <time>2011-02-19T18:24:32Z</time>
      </trkpt>
      <trkpt lat="45.35285" lon="4.50847">
        <ele>1130</ele>
        <time>2011-02-19T18:24:35Z</time>
      </trkpt>
      <trkpt lat="45.35285" lon="4.50854">
        <ele>1130</ele>
        <time>2011-02-19T18:24:38Z</time>
      </trkpt>
      <trkpt lat="45.35283" lon="4.5086">
        <ele>1130</ele>
        <time>2011-02-19T18:24:41Z</time>
      </trkpt>
      <trkpt lat="45.35281" lon="4.50869">
        <ele>1130</ele>
        <time>2011-02-19T18:24:44Z</time>
      </trkpt>
      <trkpt lat="45.35277" lon="4.50875">
        <ele>1131</ele>
        <time>2011-02-19T18:24:47Z</time>
      </trkpt>
      <trkpt lat="45.35275" lon="4.50881">
        <ele>1131</ele>
        <time>2011-02-19T18:24:49Z</time>
      </trkpt>
      <trkpt lat="45.35273" lon="4.50888">
        <ele>1132</ele>
        <time>2011-02-19T18:24:52Z</time>
      </trkpt>
      <trkpt lat="45.35272" lon="4.50894">
        <ele>1132</ele>
        <time>2011-02-19T18:24:54Z</time>
      </trkpt>
      <trkpt lat="45.35269" lon="4.50901">
        <ele>1132</ele>
        <time>2011-02-19T18:24:57Z</time>
      </trkpt>
      <trkpt lat="45.35266" lon="4.50907">
        <ele>1133</ele>
        <time>2011-02-19T18:24:59Z</time>
      </trkpt>
      <trkpt lat="45.35264" lon="4.50914">
        <ele>1133</ele>
        <time>2011-02-19T18:25:01Z</time>
      </trkpt>
      <trkpt lat="45.3526" lon="4.5092">
        <ele>1134</ele>
        <time>2011-02-19T18:25:03Z</time>
      </trkpt>
      <trkpt lat="45.35256" lon="4.50927">
        <ele>1134</ele>
        <time>2011-02-19T18:25:06Z</time>
      </trkpt>
      <trkpt lat="45.35253" lon="4.50933">
        <ele>1134</ele>
        <time>2011-02-19T18:25:08Z</time>
      </trkpt>
      <trkpt lat="45.35249" lon="4.50937">
        <ele>1134</ele>
        <time>2011-02-19T18:25:11Z</time>
      </trkpt>
      <trkpt lat="45.35244" lon="4.50944">
        <ele>1135</ele>
        <time>2011-02-19T18:25:14Z</time>
      </trkpt>
      <trkpt lat="45.3524" lon="4.5095">
        <ele>1135</ele>
        <time>2011-02-19T18:25:18Z</time>
      </trkpt>
      <trkpt lat="45.35235" lon="4.50954">
        <ele>1136</ele>
        <time>2011-02-19T18:25:21Z</time>
      </trkpt>
      <trkpt lat="45.35229" lon="4.50959">
        <ele>1136</ele>
        <time>2011-02-19T18:25:24Z</time>
      </trkpt>
      <trkpt lat="45.35226" lon="4.50965">
        <ele>1136</ele>
        <time>2011-02-19T18:25:27Z</time>
      </trkpt>
      <trkpt lat="45.35226" lon="4.50972">
        <ele>1136</ele>
        <time>2011-02-19T18:25:29Z</time>
      </trkpt>
      <trkpt lat="45.35228" lon="4.50978">
        <ele>1137</ele>
        <time>2011-02-19T18:25:32Z</time>
      </trkpt>
      <trkpt lat="45.35233" lon="4.50982">
        <ele>1137</ele>
        <time>2011-02-19T18:25:35Z</time>
      </trkpt>
      <trkpt lat="45.3524" lon="4.50982">
        <ele>1137</ele>
        <time>2011-02-19T18:25:38Z</time>
      </trkpt>
      <trkpt lat="45.35245" lon="4.5098">
        <ele>1138</ele>
        <time>2011-02-19T18:25:40Z</time>
      </trkpt>
      <trkpt lat="45.3525" lon="4.50978">
        <ele>1138</ele>
        <time>2011-02-19T18:25:42Z</time>
      </trkpt>
      <trkpt lat="45.35256" lon="4.50976">
        <ele>1139</ele>
        <time>2011-02-19T18:25:45Z</time>
      </trkpt>
      <trkpt lat="45.3526" lon="4.50974">
        <ele>1139</ele>
        <time>2011-02-19T18:25:47Z</time>
      </trkpt>
      <trkpt lat="45.35265" lon="4.50972">
        <ele>1140</ele>
        <time>2011-02-19T18:25:49Z</time>
      </trkpt>
      <trkpt lat="45.35269" lon="4.50969">
        <ele>1140</ele>
        <time>2011-02-19T18:25:51Z</time>
      </trkpt>
      <trkpt lat="45.35274" lon="4.50965">
        <ele>1141</ele>
        <time>2011-02-19T18:25:54Z</time>
      </trkpt>
      <trkpt lat="45.35279" lon="4.50959">
        <ele>1142</ele>
        <time>2011-02-19T18:25:57Z</time>
      </trkpt>
      <trkpt lat="45.35282" lon="4.50952">
        <ele>1143</ele>
        <time>2011-02-19T18:26:00Z</time>
      </trkpt>
      <trkpt lat="45.35285" lon="4.50946">
        <ele>1144</ele>
        <time>2011-02-19T18:26:03Z</time>
      </trkpt>
      <trkpt lat="45.35288" lon="4.50939">
        <ele>1145</ele>
        <time>2011-02-19T18:26:06Z</time>
      </trkpt>
      <trkpt lat="45.35291" lon="4.50933">
        <ele>1146</ele>
        <time>2011-02-19T18:26:09Z</time>
      </trkpt>
      <trkpt lat="45.35296" lon="4.50927">
        <ele>1147</ele>
        <time>2011-02-19T18:26:13Z</time>
      </trkpt>
      <trkpt lat="45.353" lon="4.5092">
        <ele>1148</ele>
        <time>2011-02-19T18:26:16Z</time>
      </trkpt>
      <trkpt lat="45.35304" lon="4.50916">
        <ele>1149</ele>
        <time>2011-02-19T18:26:19Z</time>
      </trkpt>
      <trkpt lat="45.35306" lon="4.50909">
        <ele>1150</ele>
        <time>2011-02-19T18:26:22Z</time>
      </trkpt>
      <trkpt lat="45.35308" lon="4.50903">
        <ele>1150</ele>
        <time>2011-02-19T18:26:24Z</time>
      </trkpt>
      <trkpt lat="45.35311" lon="4.50897">
        <ele>1151</ele>
        <time>2011-02-19T18:26:27Z</time>
      </trkpt>
      <trkpt lat="45.35315" lon="4.5089">
        <ele>1152</ele>
        <time>2011-02-19T18:26:30Z</time>
      </trkpt>
      <trkpt lat="45.35318" lon="4.50884">
        <ele>1152</ele>
        <time>2011-02-19T18:26:32Z</time>
      </trkpt>
      <trkpt lat="45.35323" lon="4.50875">
        <ele>1153</ele>
        <time>2011-02-19T18:26:35Z</time>
      </trkpt>
      <trkpt lat="45.35327" lon="4.50866">
        <ele>1154</ele>
        <time>2011-02-19T18:26:38Z</time>
      </trkpt>
      <trkpt lat="45.35329" lon="4.50858">
        <ele>1154</ele>
        <time>2011-02-19T18:26:41Z</time>
      </trkpt>
      <trkpt lat="45.35331" lon="4.50851">
        <ele>1155</ele>
        <time>2011-02-19T18:26:43Z</time>
      </trkpt>
      <trkpt lat="45.35333" lon="4.50845">
        <ele>1155</ele>
        <time>2011-02-19T18:26:45Z</time>
      </trkpt>
      <trkpt lat="45.35336" lon="4.50836">
        <ele>1155</ele>
        <time>2011-02-19T18:26:47Z</time>
      </trkpt>
      <trkpt lat="45.35339" lon="4.5083">
        <ele>1155</ele>
        <time>2011-02-19T18:26:49Z</time>
      </trkpt>
      <trkpt lat="45.35341" lon="4.50824">
        <ele>1156</ele>
        <time>2011-02-19T18:26:51Z</time>
      </trkpt>
      <trkpt lat="45.35343" lon="4.50815">
        <ele>1156</ele>
        <time>2011-02-19T18:26:53Z</time>
      </trkpt>
      <trkpt lat="45.35345" lon="4.50809">
        <ele>1156</ele>
        <time>2011-02-19T18:26:55Z</time>
      </trkpt>
      <trkpt lat="45.35348" lon="4.508">
        <ele>1156</ele>
        <time>2011-02-19T18:26:57Z</time>
      </trkpt>
      <trkpt lat="45.35352" lon="4.50794">
        <ele>1156</ele>
        <time>2011-02-19T18:26:59Z</time>
      </trkpt>
      <trkpt lat="45.35355" lon="4.50785">
        <ele>1156</ele>
        <time>2011-02-19T18:27:01Z</time>
      </trkpt>
      <trkpt lat="45.35358" lon="4.50776">
        <ele>1156</ele>
        <time>2011-02-19T18:27:03Z</time>
      </trkpt>
      <trkpt lat="45.35362" lon="4.5077">
        <ele>1156</ele>
        <time>2011-02-19T18:27:05Z</time>
      </trkpt>
      <trkpt lat="45.35367" lon="4.50766">
        <ele>1155</ele>
        <time>2011-02-19T18:27:07Z</time>
      </trkpt>
      <trkpt lat="45.35373" lon="4.50761">
        <ele>1155</ele>
        <time>2011-02-19T18:27:09Z</time>
      </trkpt>
      <trkpt lat="45.35378" lon="4.50759">
        <ele>1155</ele>
        <time>2011-02-19T18:27:11Z</time>
      </trkpt>
      <trkpt lat="45.35384" lon="4.50757">
        <ele>1155</ele>
        <time>2011-02-19T18:27:13Z</time>
      </trkpt>
      <trkpt lat="45.35389" lon="4.50755">
        <ele>1155</ele>
        <time>2011-02-19T18:27:15Z</time>
      </trkpt>
      <trkpt lat="45.35397" lon="4.50755">
        <ele>1155</ele>
        <time>2011-02-19T18:27:18Z</time>
      </trkpt>
      <trkpt lat="45.35403" lon="4.50757">
        <ele>1155</ele>
        <time>2011-02-19T18:27:21Z</time>
      </trkpt>
      <trkpt lat="45.35407" lon="4.50759">
        <ele>1154</ele>
        <time>2011-02-19T18:27:23Z</time>
      </trkpt>
      <trkpt lat="45.35412" lon="4.50761">
        <ele>1154</ele>
        <time>2011-02-19T18:27:25Z</time>
      </trkpt>
      <trkpt lat="45.35416" lon="4.50766">
        <ele>1154</ele>
        <time>2011-02-19T18:27:27Z</time>
      </trkpt>
      <trkpt lat="45.35421" lon="4.50772">
        <ele>1153</ele>
        <time>2011-02-19T18:27:30Z</time>
      </trkpt>
      <trkpt lat="45.35426" lon="4.50778">
        <ele>1153</ele>
        <time>2011-02-19T18:27:33Z</time>
      </trkpt>
      <trkpt lat="45.35428" lon="4.50785">
        <ele>1152</ele>
        <time>2011-02-19T18:27:35Z</time>
      </trkpt>
      <trkpt lat="45.35431" lon="4.50791">
        <ele>1152</ele>
        <time>2011-02-19T18:27:37Z</time>
      </trkpt>
      <trkpt lat="45.35434" lon="4.50798">
        <ele>1152</ele>
        <time>2011-02-19T18:27:40Z</time>
      </trkpt>
      <trkpt lat="45.35437" lon="4.50806">
        <ele>1152</ele>
        <time>2011-02-19T18:27:43Z</time>
      </trkpt>
      <trkpt lat="45.35442" lon="4.50813">
        <ele>1152</ele>
        <time>2011-02-19T18:27:46Z</time>
      </trkpt>
      <trkpt lat="45.35444" lon="4.50819">
        <ele>1152</ele>
        <time>2011-02-19T18:27:48Z</time>
      </trkpt>
      <trkpt lat="45.35445" lon="4.50826">
        <ele>1152</ele>
        <time>2011-02-19T18:27:50Z</time>
      </trkpt>
      <trkpt lat="45.35448" lon="4.50832">
        <ele>1152</ele>
        <time>2011-02-19T18:27:53Z</time>
      </trkpt>
      <trkpt lat="45.3545" lon="4.50839">
        <ele>1152</ele>
        <time>2011-02-19T18:27:56Z</time>
      </trkpt>
      <trkpt lat="45.35452" lon="4.50845">
        <ele>1152</ele>
        <time>2011-02-19T18:27:59Z</time>
      </trkpt>
      <trkpt lat="45.35455" lon="4.50851">
        <ele>1152</ele>
        <time>2011-02-19T18:28:02Z</time>
      </trkpt>
      <trkpt lat="45.35457" lon="4.50858">
        <ele>1152</ele>
        <time>2011-02-19T18:28:05Z</time>
      </trkpt>
      <trkpt lat="45.35459" lon="4.50864">
        <ele>1152</ele>
        <time>2011-02-19T18:28:08Z</time>
      </trkpt>
      <trkpt lat="45.35462" lon="4.50871">
        <ele>1153</ele>
        <time>2011-02-19T18:28:11Z</time>
      </trkpt>
      <trkpt lat="45.35464" lon="4.50877">
        <ele>1153</ele>
        <time>2011-02-19T18:28:14Z</time>
      </trkpt>
      <trkpt lat="45.35464" lon="4.50884">
        <ele>1153</ele>
        <time>2011-02-19T18:28:19Z</time>
      </trkpt>
      <trkpt lat="45.35464" lon="4.50884">
        <ele>1153</ele>
        <time>2011-02-19T18:28:19Z</time>
      </trkpt>
      <trkpt lat="45.35464" lon="4.50884">
        <ele>1153</ele>
        <time>2011-02-19T18:28:20Z</time>
      </trkpt>
      <trkpt lat="45.35465" lon="4.5089">
        <ele>1153</ele>
        <time>2011-02-19T18:28:23Z</time>
      </trkpt>
      <trkpt lat="45.35466" lon="4.50897">
        <ele>1154</ele>
        <time>2011-02-19T18:28:27Z</time>
      </trkpt>
      <trkpt lat="45.35466" lon="4.50903">
        <ele>1154</ele>
        <time>2011-02-19T18:28:30Z</time>
      </trkpt>
      <trkpt lat="45.35467" lon="4.50909">
        <ele>1155</ele>
        <time>2011-02-19T18:28:35Z</time>
      </trkpt>
      <trkpt lat="45.35468" lon="4.50916">
        <ele>1155</ele>
        <time>2011-02-19T18:28:40Z</time>
      </trkpt>
      <trkpt lat="45.35468" lon="4.50916">
        <ele>1155</ele>
        <time>2011-02-19T18:28:40Z</time>
      </trkpt>
      <trkpt lat="45.35468" lon="4.50916">
        <ele>1155</ele>
        <time>2011-02-19T18:28:41Z</time>
      </trkpt>
      <trkpt lat="45.35468" lon="4.50922">
        <ele>1156</ele>
        <time>2011-02-19T18:28:45Z</time>
      </trkpt>
      <trkpt lat="45.35468" lon="4.50922">
        <ele>1156</ele>
        <time>2011-02-19T18:28:45Z</time>
      </trkpt>
      <trkpt lat="45.35468" lon="4.50922">
        <ele>1156</ele>
        <time>2011-02-19T18:28:46Z</time>
      </trkpt>
      <trkpt lat="45.35468" lon="4.50929">
        <ele>1156</ele>
        <time>2011-02-19T18:28:50Z</time>
      </trkpt>
      <trkpt lat="45.35468" lon="4.50929">
        <ele>1156</ele>
        <time>2011-02-19T18:28:50Z</time>
      </trkpt>
      <trkpt lat="45.35468" lon="4.50929">
        <ele>1156</ele>
        <time>2011-02-19T18:28:51Z</time>
      </trkpt>
      <trkpt lat="45.3547" lon="4.50935">
        <ele>1156</ele>
        <time>2011-02-19T18:28:55Z</time>
      </trkpt>
      <trkpt lat="45.3547" lon="4.50942">
        <ele>1157</ele>
        <time>2011-02-19T18:28:59Z</time>
      </trkpt>
      <trkpt lat="45.3547" lon="4.50942">
        <ele>1157</ele>
        <time>2011-02-19T18:28:59Z</time>
      </trkpt>
      <trkpt lat="45.3547" lon="4.50942">
        <ele>1157</ele>
        <time>2011-02-19T18:29:01Z</time>
      </trkpt>
      <trkpt lat="45.35471" lon="4.50948">
        <ele>1157</ele>
        <time>2011-02-19T18:29:05Z</time>
      </trkpt>
      <trkpt lat="45.35473" lon="4.50954">
        <ele>1158</ele>
        <time>2011-02-19T18:29:09Z</time>
      </trkpt>
      <trkpt lat="45.35474" lon="4.50961">
        <ele>1159</ele>
        <time>2011-02-19T18:29:13Z</time>
      </trkpt>
      <trkpt lat="45.35475" lon="4.50967">
        <ele>1159</ele>
        <time>2011-02-19T18:29:16Z</time>
      </trkpt>
      <trkpt lat="45.35476" lon="4.50974">
        <ele>1159</ele>
        <time>2011-02-19T18:29:19Z</time>
      </trkpt>
      <trkpt lat="45.35476" lon="4.5098">
        <ele>1160</ele>
        <time>2011-02-19T18:29:22Z</time>
      </trkpt>
      <trkpt lat="45.35476" lon="4.50987">
        <ele>1160</ele>
        <time>2011-02-19T18:29:26Z</time>
      </trkpt>
      <trkpt lat="45.35477" lon="4.50993">
        <ele>1161</ele>
        <time>2011-02-19T18:29:29Z</time>
      </trkpt>
      <trkpt lat="45.35477" lon="4.50999">
        <ele>1161</ele>
        <time>2011-02-19T18:29:32Z</time>
      </trkpt>
      <trkpt lat="45.35479" lon="4.51006">
        <ele>1162</ele>
        <time>2011-02-19T18:29:35Z</time>
      </trkpt>
      <trkpt lat="45.35479" lon="4.51006">
        <ele>1162</ele>
        <time>2011-02-19T18:29:35Z</time>
      </trkpt>
      <trkpt lat="45.35479" lon="4.51006">
        <ele>1162</ele>
        <time>2011-02-19T18:29:36Z</time>
      </trkpt>
      <trkpt lat="45.35481" lon="4.51012">
        <ele>1162</ele>
        <time>2011-02-19T18:29:39Z</time>
      </trkpt>
      <trkpt lat="45.35483" lon="4.51019">
        <ele>1163</ele>
        <time>2011-02-19T18:29:43Z</time>
      </trkpt>
      <trkpt lat="45.35488" lon="4.51025">
        <ele>1164</ele>
        <time>2011-02-19T18:29:49Z</time>
      </trkpt>
      <trkpt lat="45.35492" lon="4.5103">
        <ele>1166</ele>
        <time>2011-02-19T18:29:54Z</time>
      </trkpt>
      <trkpt lat="45.35496" lon="4.51032">
        <ele>1166</ele>
        <time>2011-02-19T18:30:00Z</time>
      </trkpt>
      <trkpt lat="45.35501" lon="4.51038">
        <ele>1166</ele>
        <time>2011-02-19T18:30:11Z</time>
      </trkpt>
      <trkpt lat="45.35501" lon="4.51038">
        <ele>1166</ele>
        <time>2011-02-19T18:30:11Z</time>
      </trkpt>
      <trkpt lat="45.35501" lon="4.51038">
        <ele>1166</ele>
        <time>2011-02-19T18:30:12Z</time>
      </trkpt>
      <trkpt lat="45.35505" lon="4.5104">
        <ele>1167</ele>
        <time>2011-02-19T18:30:19Z</time>
      </trkpt>
      <trkpt lat="45.3551" lon="4.51045">
        <ele>1169</ele>
        <time>2011-02-19T18:30:25Z</time>
      </trkpt>
      <trkpt lat="45.35515" lon="4.51049">
        <ele>1170</ele>
        <time>2011-02-19T18:30:29Z</time>
      </trkpt>
      <trkpt lat="45.35515" lon="4.51049">
        <ele>1170</ele>
        <time>2011-02-19T18:30:29Z</time>
      </trkpt>
      <trkpt lat="45.35515" lon="4.51049">
        <ele>1170</ele>
        <time>2011-02-19T18:30:30Z</time>
      </trkpt>
      <trkpt lat="45.35519" lon="4.51053">
        <ele>1171</ele>
        <time>2011-02-19T18:30:34Z</time>
      </trkpt>
      <trkpt lat="45.35519" lon="4.51053">
        <ele>1171</ele>
        <time>2011-02-19T18:30:34Z</time>
      </trkpt>
      <trkpt lat="45.35519" lon="4.51053">
        <ele>1171</ele>
        <time>2011-02-19T18:30:35Z</time>
      </trkpt>
      <trkpt lat="45.35522" lon="4.51057">
        <ele>1172</ele>
        <time>2011-02-19T18:30:38Z</time>
      </trkpt>
      <trkpt lat="45.35526" lon="4.5106">
        <ele>1173</ele>
        <time>2011-02-19T18:30:41Z</time>
      </trkpt>
      <trkpt lat="45.35531" lon="4.51062">
        <ele>1174</ele>
        <time>2011-02-19T18:30:44Z</time>
      </trkpt>
      <trkpt lat="45.35536" lon="4.51064">
        <ele>1174</ele>
        <time>2011-02-19T18:30:47Z</time>
      </trkpt>
      <trkpt lat="45.3554" lon="4.51068">
        <ele>1175</ele>
        <time>2011-02-19T18:30:50Z</time>
      </trkpt>
      <trkpt lat="45.35545" lon="4.5107">
        <ele>1176</ele>
        <time>2011-02-19T18:30:52Z</time>
      </trkpt>
      <trkpt lat="45.35549" lon="4.51075">
        <ele>1177</ele>
        <time>2011-02-19T18:30:55Z</time>
      </trkpt>
      <trkpt lat="45.35553" lon="4.51077">
        <ele>1179</ele>
        <time>2011-02-19T18:30:59Z</time>
      </trkpt>
      <trkpt lat="45.35558" lon="4.51079">
        <ele>1180</ele>
        <time>2011-02-19T18:31:02Z</time>
      </trkpt>
      <trkpt lat="45.35562" lon="4.51083">
        <ele>1181</ele>
        <time>2011-02-19T18:31:05Z</time>
      </trkpt>
      <trkpt lat="45.35567" lon="4.51085">
        <ele>1181</ele>
        <time>2011-02-19T18:31:08Z</time>
      </trkpt>
      <trkpt lat="45.35571" lon="4.51087">
        <ele>1182</ele>
        <time>2011-02-19T18:31:11Z</time>
      </trkpt>
      <trkpt lat="45.35577" lon="4.5109">
        <ele>1183</ele>
        <time>2011-02-19T18:31:14Z</time>
      </trkpt>
      <trkpt lat="45.35581" lon="4.51094">
        <ele>1184</ele>
        <time>2011-02-19T18:31:18Z</time>
      </trkpt>
      <trkpt lat="45.35585" lon="4.51096">
        <ele>1184</ele>
        <time>2011-02-19T18:31:21Z</time>
      </trkpt>
      <trkpt lat="45.3559" lon="4.51098">
        <ele>1185</ele>
        <time>2011-02-19T18:31:25Z</time>
      </trkpt>
      <trkpt lat="45.35594" lon="4.51105">
        <ele>1186</ele>
        <time>2011-02-19T18:31:29Z</time>
      </trkpt>
      <trkpt lat="45.35598" lon="4.51109">
        <ele>1186</ele>
        <time>2011-02-19T18:31:32Z</time>
      </trkpt>
      <trkpt lat="45.35603" lon="4.51113">
        <ele>1187</ele>
        <time>2011-02-19T18:31:36Z</time>
      </trkpt>
      <trkpt lat="45.35607" lon="4.51115">
        <ele>1187</ele>
        <time>2011-02-19T18:31:39Z</time>
      </trkpt>
      <trkpt lat="45.35612" lon="4.51118">
        <ele>1187</ele>
        <time>2011-02-19T18:31:42Z</time>
      </trkpt>
      <trkpt lat="45.35617" lon="4.5112">
        <ele>1188</ele>
        <time>2011-02-19T18:31:45Z</time>
      </trkpt>
      <trkpt lat="45.35621" lon="4.51122">
        <ele>1188</ele>
        <time>2011-02-19T18:31:48Z</time>
      </trkpt>
      <trkpt lat="45.35625" lon="4.51128">
        <ele>1189</ele>
        <time>2011-02-19T18:31:52Z</time>
      </trkpt>
      <trkpt lat="45.35625" lon="4.51128">
        <ele>1189</ele>
        <time>2011-02-19T18:31:52Z</time>
      </trkpt>
      <trkpt lat="45.35625" lon="4.51128">
        <ele>1189</ele>
        <time>2011-02-19T18:31:53Z</time>
      </trkpt>
      <trkpt lat="45.35627" lon="4.51135">
        <ele>1189</ele>
        <time>2011-02-19T18:31:57Z</time>
      </trkpt>
      <trkpt lat="45.35625" lon="4.51141">
        <ele>1190</ele>
        <time>2011-02-19T18:32:00Z</time>
      </trkpt>
      <trkpt lat="45.35621" lon="4.51148">
        <ele>1190</ele>
        <time>2011-02-19T18:32:03Z</time>
      </trkpt>
      <trkpt lat="45.35617" lon="4.51154">
        <ele>1191</ele>
        <time>2011-02-19T18:32:06Z</time>
      </trkpt>
      <trkpt lat="45.35611" lon="4.51158">
        <ele>1191</ele>
        <time>2011-02-19T18:32:09Z</time>
      </trkpt>
      <trkpt lat="45.35606" lon="4.51165">
        <ele>1192</ele>
        <time>2011-02-19T18:32:12Z</time>
      </trkpt>
      <trkpt lat="45.356" lon="4.51169">
        <ele>1192</ele>
        <time>2011-02-19T18:32:15Z</time>
      </trkpt>
      <trkpt lat="45.35596" lon="4.51171">
        <ele>1192</ele>
        <time>2011-02-19T18:32:17Z</time>
      </trkpt>
      <trkpt lat="45.35592" lon="4.51173">
        <ele>1192</ele>
        <time>2011-02-19T18:32:19Z</time>
      </trkpt>
      <trkpt lat="45.35588" lon="4.51178">
        <ele>1192</ele>
        <time>2011-02-19T18:32:22Z</time>
      </trkpt>
      <trkpt lat="45.35582" lon="4.5118">
        <ele>1193</ele>
        <time>2011-02-19T18:32:25Z</time>
      </trkpt>
      <trkpt lat="45.35578" lon="4.51184">
        <ele>1193</ele>
        <time>2011-02-19T18:32:28Z</time>
      </trkpt>
      <trkpt lat="45.35574" lon="4.51188">
        <ele>1192</ele>
        <time>2011-02-19T18:32:31Z</time>
      </trkpt>
      <trkpt lat="45.35569" lon="4.51193">
        <ele>1193</ele>
        <time>2011-02-19T18:32:34Z</time>
      </trkpt>
      <trkpt lat="45.35565" lon="4.51197">
        <ele>1193</ele>
        <time>2011-02-19T18:32:36Z</time>
      </trkpt>
      <trkpt lat="45.3556" lon="4.51203">
        <ele>1194</ele>
        <time>2011-02-19T18:32:39Z</time>
      </trkpt>
      <trkpt lat="45.35553" lon="4.5121">
        <ele>1194</ele>
        <time>2011-02-19T18:32:42Z</time>
      </trkpt>
      <trkpt lat="45.35549" lon="4.51216">
        <ele>1195</ele>
        <time>2011-02-19T18:32:44Z</time>
      </trkpt>
      <trkpt lat="45.35544" lon="4.51221">
        <ele>1195</ele>
        <time>2011-02-19T18:32:46Z</time>
      </trkpt>
      <trkpt lat="45.35539" lon="4.51225">
        <ele>1196</ele>
        <time>2011-02-19T18:32:48Z</time>
      </trkpt>
      <trkpt lat="45.35533" lon="4.51229">
        <ele>1197</ele>
        <time>2011-02-19T18:32:51Z</time>
      </trkpt>
      <trkpt lat="45.35527" lon="4.51236">
        <ele>1197</ele>
        <time>2011-02-19T18:32:54Z</time>
      </trkpt>
      <trkpt lat="45.35522" lon="4.51238">
        <ele>1198</ele>
        <time>2011-02-19T18:32:57Z</time>
      </trkpt>
      <trkpt lat="45.35518" lon="4.51242">
        <ele>1199</ele>
        <time>2011-02-19T18:33:00Z</time>
      </trkpt>
      <trkpt lat="45.35512" lon="4.51246">
        <ele>1200</ele>
        <time>2011-02-19T18:33:03Z</time>
      </trkpt>
      <trkpt lat="45.35508" lon="4.51251">
        <ele>1201</ele>
        <time>2011-02-19T18:33:06Z</time>
      </trkpt>
      <trkpt lat="45.35504" lon="4.51255">
        <ele>1202</ele>
        <time>2011-02-19T18:33:09Z</time>
      </trkpt>
      <trkpt lat="45.355" lon="4.51259">
        <ele>1203</ele>
        <time>2011-02-19T18:33:12Z</time>
      </trkpt>
      <trkpt lat="45.35495" lon="4.51266">
        <ele>1203</ele>
        <time>2011-02-19T18:33:15Z</time>
      </trkpt>
      <trkpt lat="45.3549" lon="4.5127">
        <ele>1204</ele>
        <time>2011-02-19T18:33:18Z</time>
      </trkpt>
      <trkpt lat="45.35485" lon="4.51274">
        <ele>1205</ele>
        <time>2011-02-19T18:33:21Z</time>
      </trkpt>
      <trkpt lat="45.3548" lon="4.51278">
        <ele>1206</ele>
        <time>2011-02-19T18:33:24Z</time>
      </trkpt>
      <trkpt lat="45.35476" lon="4.51285">
        <ele>1206</ele>
        <time>2011-02-19T18:33:27Z</time>
      </trkpt>
      <trkpt lat="45.35472" lon="4.51289">
        <ele>1207</ele>
        <time>2011-02-19T18:33:30Z</time>
      </trkpt>
      <trkpt lat="45.35467" lon="4.51293">
        <ele>1208</ele>
        <time>2011-02-19T18:33:33Z</time>
      </trkpt>
      <trkpt lat="45.35463" lon="4.51298">
        <ele>1208</ele>
        <time>2011-02-19T18:33:36Z</time>
      </trkpt>
      <trkpt lat="45.35459" lon="4.51304">
        <ele>1208</ele>
        <time>2011-02-19T18:33:44Z</time>
      </trkpt>
      <trkpt lat="45.35455" lon="4.51308">
        <ele>1209</ele>
        <time>2011-02-19T18:33:48Z</time>
      </trkpt>
      <trkpt lat="45.3545" lon="4.51313">
        <ele>1209</ele>
        <time>2011-02-19T18:33:52Z</time>
      </trkpt>
      <trkpt lat="45.35447" lon="4.51319">
        <ele>1209</ele>
        <time>2011-02-19T18:33:55Z</time>
      </trkpt>
      <trkpt lat="45.35443" lon="4.51324">
        <ele>1209</ele>
        <time>2011-02-19T18:33:59Z</time>
      </trkpt>
      <trkpt lat="45.35439" lon="4.5133">
        <ele>1209</ele>
        <time>2011-02-19T18:34:02Z</time>
      </trkpt>
      <trkpt lat="45.35436" lon="4.51336">
        <ele>1209</ele>
        <time>2011-02-19T18:34:05Z</time>
      </trkpt>
      <trkpt lat="45.35434" lon="4.51343">
        <ele>1208</ele>
        <time>2011-02-19T18:34:07Z</time>
      </trkpt>
      <trkpt lat="45.3543" lon="4.51351">
        <ele>1209</ele>
        <time>2011-02-19T18:34:09Z</time>
      </trkpt>
      <trkpt lat="45.35426" lon="4.5136">
        <ele>1209</ele>
        <time>2011-02-19T18:34:11Z</time>
      </trkpt>
      <trkpt lat="45.35422" lon="4.51369">
        <ele>1209</ele>
        <time>2011-02-19T18:34:13Z</time>
      </trkpt>
      <trkpt lat="45.35418" lon="4.51375">
        <ele>1209</ele>
        <time>2011-02-19T18:34:15Z</time>
      </trkpt>
      <trkpt lat="45.35415" lon="4.51384">
        <ele>1209</ele>
        <time>2011-02-19T18:34:17Z</time>
      </trkpt>
      <trkpt lat="45.35412" lon="4.5139">
        <ele>1209</ele>
        <time>2011-02-19T18:34:19Z</time>
      </trkpt>
      <trkpt lat="45.35408" lon="4.51396">
        <ele>1210</ele>
        <time>2011-02-19T18:34:21Z</time>
      </trkpt>
      <trkpt lat="45.35405" lon="4.51403">
        <ele>1210</ele>
        <time>2011-02-19T18:34:23Z</time>
      </trkpt>
      <trkpt lat="45.35402" lon="4.51409">
        <ele>1210</ele>
        <time>2011-02-19T18:34:25Z</time>
      </trkpt>
      <trkpt lat="45.354" lon="4.51416">
        <ele>1210</ele>
        <time>2011-02-19T18:34:27Z</time>
      </trkpt>
      <trkpt lat="45.35397" lon="4.51422">
        <ele>1210</ele>
        <time>2011-02-19T18:34:29Z</time>
      </trkpt>
      <trkpt lat="45.35394" lon="4.51429">
        <ele>1211</ele>
        <time>2011-02-19T18:34:31Z</time>
      </trkpt>
      <trkpt lat="45.35391" lon="4.51435">
        <ele>1211</ele>
        <time>2011-02-19T18:34:34Z</time>
      </trkpt>
      <trkpt lat="45.35388" lon="4.51442">
        <ele>1211</ele>
        <time>2011-02-19T18:34:36Z</time>
      </trkpt>
      <trkpt lat="45.35386" lon="4.51448">
        <ele>1212</ele>
        <time>2011-02-19T18:34:38Z</time>
      </trkpt>
      <trkpt lat="45.35384" lon="4.51457">
        <ele>1212</ele>
        <time>2011-02-19T18:34:41Z</time>
      </trkpt>
      <trkpt lat="45.35383" lon="4.51463">
        <ele>1213</ele>
        <time>2011-02-19T18:34:44Z</time>
      </trkpt>
      <trkpt lat="45.35382" lon="4.51469">
        <ele>1213</ele>
        <time>2011-02-19T18:34:46Z</time>
      </trkpt>
      <trkpt lat="45.35382" lon="4.51476">
        <ele>1213</ele>
        <time>2011-02-19T18:34:49Z</time>
      </trkpt>
      <trkpt lat="45.35382" lon="4.51482">
        <ele>1214</ele>
        <time>2011-02-19T18:34:52Z</time>
      </trkpt>
      <trkpt lat="45.35382" lon="4.51491">
        <ele>1214</ele>
        <time>2011-02-19T18:34:55Z</time>
      </trkpt>
      <trkpt lat="45.35383" lon="4.51497">
        <ele>1215</ele>
        <time>2011-02-19T18:34:58Z</time>
      </trkpt>
      <trkpt lat="45.35384" lon="4.51504">
        <ele>1215</ele>
        <time>2011-02-19T18:35:01Z</time>
      </trkpt>
      <trkpt lat="45.35384" lon="4.51504">
        <ele>1215</ele>
        <time>2011-02-19T18:35:01Z</time>
      </trkpt>
      <trkpt lat="45.35384" lon="4.51504">
        <ele>1215</ele>
        <time>2011-02-19T18:35:02Z</time>
      </trkpt>
      <trkpt lat="45.35385" lon="4.5151">
        <ele>1216</ele>
        <time>2011-02-19T18:35:06Z</time>
      </trkpt>
      <trkpt lat="45.3539" lon="4.51508">
        <ele>1217</ele>
        <time>2011-02-19T18:35:15Z</time>
      </trkpt>
      <trkpt lat="45.35393" lon="4.51502">
        <ele>1217</ele>
        <time>2011-02-19T18:35:19Z</time>
      </trkpt>
      <trkpt lat="45.35394" lon="4.51495">
        <ele>1217</ele>
        <time>2011-02-19T18:35:22Z</time>
      </trkpt>
      <trkpt lat="45.35396" lon="4.51489">
        <ele>1218</ele>
        <time>2011-02-19T18:35:26Z</time>
      </trkpt>
      <trkpt lat="45.35398" lon="4.51482">
        <ele>1218</ele>
        <time>2011-02-19T18:35:30Z</time>
      </trkpt>
      <trkpt lat="45.35402" lon="4.5148">
        <ele>1219</ele>
        <time>2011-02-19T18:35:34Z</time>
      </trkpt>
      <trkpt lat="45.35407" lon="4.5148">
        <ele>1219</ele>
        <time>2011-02-19T18:35:38Z</time>
      </trkpt>
      <trkpt lat="45.35413" lon="4.51478">
        <ele>1219</ele>
        <time>2011-02-19T18:35:41Z</time>
      </trkpt>
      <trkpt lat="45.35418" lon="4.51478">
        <ele>1220</ele>
        <time>2011-02-19T18:35:44Z</time>
      </trkpt>
      <trkpt lat="45.35423" lon="4.51476">
        <ele>1220</ele>
        <time>2011-02-19T18:35:47Z</time>
      </trkpt>
      <trkpt lat="45.35429" lon="4.51474">
        <ele>1220</ele>
        <time>2011-02-19T18:35:50Z</time>
      </trkpt>
      <trkpt lat="45.35436" lon="4.51474">
        <ele>1221</ele>
        <time>2011-02-19T18:35:53Z</time>
      </trkpt>
      <trkpt lat="45.35442" lon="4.51472">
        <ele>1221</ele>
        <time>2011-02-19T18:35:56Z</time>
      </trkpt>
      <trkpt lat="45.35446" lon="4.51469">
        <ele>1221</ele>
        <time>2011-02-19T18:35:58Z</time>
      </trkpt>
      <trkpt lat="45.35451" lon="4.51469">
        <ele>1221</ele>
        <time>2011-02-19T18:36:01Z</time>
      </trkpt>
      <trkpt lat="45.35458" lon="4.51469">
        <ele>1222</ele>
        <time>2011-02-19T18:36:04Z</time>
      </trkpt>
      <trkpt lat="45.35463" lon="4.51472">
        <ele>1222</ele>
        <time>2011-02-19T18:36:06Z</time>
      </trkpt>
      <trkpt lat="45.35468" lon="4.51472">
        <ele>1222</ele>
        <time>2011-02-19T18:36:08Z</time>
      </trkpt>
      <trkpt lat="45.35474" lon="4.51474">
        <ele>1223</ele>
        <time>2011-02-19T18:36:10Z</time>
      </trkpt>
      <trkpt lat="45.35479" lon="4.51476">
        <ele>1223</ele>
        <time>2011-02-19T18:36:12Z</time>
      </trkpt>
      <trkpt lat="45.35485" lon="4.51476">
        <ele>1223</ele>
        <time>2011-02-19T18:36:14Z</time>
      </trkpt>
      <trkpt lat="45.35491" lon="4.51476">
        <ele>1223</ele>
        <time>2011-02-19T18:36:17Z</time>
      </trkpt>
      <trkpt lat="45.35497" lon="4.51476">
        <ele>1224</ele>
        <time>2011-02-19T18:36:20Z</time>
      </trkpt>
      <trkpt lat="45.35503" lon="4.51476">
        <ele>1224</ele>
        <time>2011-02-19T18:36:23Z</time>
      </trkpt>
      <trkpt lat="45.35507" lon="4.51478">
        <ele>1225</ele>
        <time>2011-02-19T18:36:25Z</time>
      </trkpt>
      <trkpt lat="45.35512" lon="4.51478">
        <ele>1226</ele>
        <time>2011-02-19T18:36:28Z</time>
      </trkpt>
      <trkpt lat="45.35519" lon="4.51476">
        <ele>1227</ele>
        <time>2011-02-19T18:36:32Z</time>
      </trkpt>
      <trkpt lat="45.35525" lon="4.51476">
        <ele>1229</ele>
        <time>2011-02-19T18:36:36Z</time>
      </trkpt>
      <trkpt lat="45.35531" lon="4.51474">
        <ele>1230</ele>
        <time>2011-02-19T18:36:40Z</time>
      </trkpt>
      <trkpt lat="45.35535" lon="4.51472">
        <ele>1231</ele>
        <time>2011-02-19T18:36:44Z</time>
      </trkpt>
      <trkpt lat="45.35539" lon="4.51469">
        <ele>1232</ele>
        <time>2011-02-19T18:36:47Z</time>
      </trkpt>
      <trkpt lat="45.35544" lon="4.51467">
        <ele>1233</ele>
        <time>2011-02-19T18:36:51Z</time>
      </trkpt>
      <trkpt lat="45.35548" lon="4.51463">
        <ele>1235</ele>
        <time>2011-02-19T18:36:55Z</time>
      </trkpt>
      <trkpt lat="45.35552" lon="4.51461">
        <ele>1236</ele>
        <time>2011-02-19T18:36:59Z</time>
      </trkpt>
      <trkpt lat="45.35556" lon="4.51459">
        <ele>1237</ele>
        <time>2011-02-19T18:37:03Z</time>
      </trkpt>
      <trkpt lat="45.35561" lon="4.51457">
        <ele>1238</ele>
        <time>2011-02-19T18:37:07Z</time>
      </trkpt>
      <trkpt lat="45.35565" lon="4.51454">
        <ele>1239</ele>
        <time>2011-02-19T18:37:10Z</time>
      </trkpt>
      <trkpt lat="45.35569" lon="4.51452">
        <ele>1239</ele>
        <time>2011-02-19T18:37:13Z</time>
      </trkpt>
      <trkpt lat="45.35575" lon="4.51452">
        <ele>1240</ele>
        <time>2011-02-19T18:37:17Z</time>
      </trkpt>
      <trkpt lat="45.3558" lon="4.51452">
        <ele>1241</ele>
        <time>2011-02-19T18:37:21Z</time>
      </trkpt>
      <trkpt lat="45.35586" lon="4.5145">
        <ele>1242</ele>
        <time>2011-02-19T18:37:25Z</time>
      </trkpt>
      <trkpt lat="45.35592" lon="4.51448">
        <ele>1242</ele>
        <time>2011-02-19T18:37:28Z</time>
      </trkpt>
      <trkpt lat="45.35596" lon="4.51446">
        <ele>1242</ele>
        <time>2011-02-19T18:37:30Z</time>
      </trkpt>
      <trkpt lat="45.35601" lon="4.51444">
        <ele>1242</ele>
        <time>2011-02-19T18:37:32Z</time>
      </trkpt>
      <trkpt lat="45.35607" lon="4.51444">
        <ele>1242</ele>
        <time>2011-02-19T18:37:34Z</time>
      </trkpt>
      <trkpt lat="45.35613" lon="4.51442">
        <ele>1242</ele>
        <time>2011-02-19T18:37:36Z</time>
      </trkpt>
      <trkpt lat="45.3562" lon="4.51439">
        <ele>1241</ele>
        <time>2011-02-19T18:37:38Z</time>
      </trkpt>
      <trkpt lat="45.35625" lon="4.51437">
        <ele>1241</ele>
        <time>2011-02-19T18:37:40Z</time>
      </trkpt>
      <trkpt lat="45.3563" lon="4.51437">
        <ele>1241</ele>
        <time>2011-02-19T18:37:42Z</time>
      </trkpt>
      <trkpt lat="45.35636" lon="4.51435">
        <ele>1241</ele>
        <time>2011-02-19T18:37:44Z</time>
      </trkpt>
      <trkpt lat="45.35641" lon="4.51435">
        <ele>1241</ele>
        <time>2011-02-19T18:37:46Z</time>
      </trkpt>
      <trkpt lat="45.35647" lon="4.51433">
        <ele>1241</ele>
        <time>2011-02-19T18:37:48Z</time>
      </trkpt>
      <trkpt lat="45.35652" lon="4.51433">
        <ele>1241</ele>
        <time>2011-02-19T18:37:50Z</time>
      </trkpt>
      <trkpt lat="45.35657" lon="4.51431">
        <ele>1241</ele>
        <time>2011-02-19T18:37:52Z</time>
      </trkpt>
      <trkpt lat="45.35663" lon="4.51431">
        <ele>1241</ele>
        <time>2011-02-19T18:37:54Z</time>
      </trkpt>
      <trkpt lat="45.35668" lon="4.51431">
        <ele>1241</ele>
        <time>2011-02-19T18:37:56Z</time>
      </trkpt>
      <trkpt lat="45.35674" lon="4.51431">
        <ele>1241</ele>
        <time>2011-02-19T18:37:58Z</time>
      </trkpt>
      <trkpt lat="45.35682" lon="4.51431">
        <ele>1241</ele>
        <time>2011-02-19T18:38:00Z</time>
      </trkpt>
      <trkpt lat="45.35688" lon="4.51433">
        <ele>1241</ele>
        <time>2011-02-19T18:38:02Z</time>
      </trkpt>
      <trkpt lat="45.35696" lon="4.51435">
        <ele>1241</ele>
        <time>2011-02-19T18:38:04Z</time>
      </trkpt>
      <trkpt lat="45.35702" lon="4.51435">
        <ele>1242</ele>
        <time>2011-02-19T18:38:06Z</time>
      </trkpt>
      <trkpt lat="45.35708" lon="4.51437">
        <ele>1242</ele>
        <time>2011-02-19T18:38:08Z</time>
      </trkpt>
      <trkpt lat="45.35714" lon="4.51435">
        <ele>1242</ele>
        <time>2011-02-19T18:38:10Z</time>
      </trkpt>
      <trkpt lat="45.3572" lon="4.51435">
        <ele>1242</ele>
        <time>2011-02-19T18:38:12Z</time>
      </trkpt>
      <trkpt lat="45.35724" lon="4.51433">
        <ele>1242</ele>
        <time>2011-02-19T18:38:14Z</time>
      </trkpt>
      <trkpt lat="45.35729" lon="4.51431">
        <ele>1242</ele>
        <time>2011-02-19T18:38:16Z</time>
      </trkpt>
      <trkpt lat="45.35733" lon="4.51429">
        <ele>1243</ele>
        <time>2011-02-19T18:38:18Z</time>
      </trkpt>
      <trkpt lat="45.35738" lon="4.51427">
        <ele>1243</ele>
        <time>2011-02-19T18:38:20Z</time>
      </trkpt>
      <trkpt lat="45.35743" lon="4.51424">
        <ele>1243</ele>
        <time>2011-02-19T18:38:22Z</time>
      </trkpt>
      <trkpt lat="45.35747" lon="4.51422">
        <ele>1243</ele>
        <time>2011-02-19T18:38:24Z</time>
      </trkpt>
      <trkpt lat="45.35752" lon="4.5142">
        <ele>1243</ele>
        <time>2011-02-19T18:38:26Z</time>
      </trkpt>
      <trkpt lat="45.35756" lon="4.51418">
        <ele>1243</ele>
        <time>2011-02-19T18:38:28Z</time>
      </trkpt>
      <trkpt lat="45.3576" lon="4.51416">
        <ele>1243</ele>
        <time>2011-02-19T18:38:30Z</time>
      </trkpt>
      <trkpt lat="45.35765" lon="4.51414">
        <ele>1244</ele>
        <time>2011-02-19T18:38:32Z</time>
      </trkpt>
      <trkpt lat="45.35771" lon="4.51411">
        <ele>1244</ele>
        <time>2011-02-19T18:38:35Z</time>
      </trkpt>
      <trkpt lat="45.35775" lon="4.51409">
        <ele>1244</ele>
        <time>2011-02-19T18:38:37Z</time>
      </trkpt>
      <trkpt lat="45.3578" lon="4.51407">
        <ele>1244</ele>
        <time>2011-02-19T18:38:39Z</time>
      </trkpt>
      <trkpt lat="45.35784" lon="4.51403">
        <ele>1244</ele>
        <time>2011-02-19T18:38:41Z</time>
      </trkpt>
      <trkpt lat="45.35788" lon="4.51401">
        <ele>1244</ele>
        <time>2011-02-19T18:38:43Z</time>
      </trkpt>
      <trkpt lat="45.35792" lon="4.51399">
        <ele>1244</ele>
        <time>2011-02-19T18:38:45Z</time>
      </trkpt>
      <trkpt lat="45.35797" lon="4.51396">
        <ele>1244</ele>
        <time>2011-02-19T18:38:47Z</time>
      </trkpt>
      <trkpt lat="45.35802" lon="4.51394">
        <ele>1244</ele>
        <time>2011-02-19T18:38:50Z</time>
      </trkpt>
      <trkpt lat="45.35806" lon="4.51392">
        <ele>1244</ele>
        <time>2011-02-19T18:38:52Z</time>
      </trkpt>
      <trkpt lat="45.35811" lon="4.5139">
        <ele>1244</ele>
        <time>2011-02-19T18:38:54Z</time>
      </trkpt>
      <trkpt lat="45.35817" lon="4.51388">
        <ele>1244</ele>
        <time>2011-02-19T18:38:57Z</time>
      </trkpt>
      <trkpt lat="45.35825" lon="4.51388">
        <ele>1244</ele>
        <time>2011-02-19T18:39:00Z</time>
      </trkpt>
      <trkpt lat="45.35829" lon="4.51386">
        <ele>1244</ele>
        <time>2011-02-19T18:39:02Z</time>
      </trkpt>
      <trkpt lat="45.35835" lon="4.51386">
        <ele>1244</ele>
        <time>2011-02-19T18:39:05Z</time>
      </trkpt>
      <trkpt lat="45.3584" lon="4.51384">
        <ele>1244</ele>
        <time>2011-02-19T18:39:07Z</time>
      </trkpt>
      <trkpt lat="45.35847" lon="4.51381">
        <ele>1244</ele>
        <time>2011-02-19T18:39:10Z</time>
      </trkpt>
      <trkpt lat="45.35854" lon="4.51381">
        <ele>1244</ele>
        <time>2011-02-19T18:39:13Z</time>
      </trkpt>
      <trkpt lat="45.35859" lon="4.51379">
        <ele>1244</ele>
        <time>2011-02-19T18:39:15Z</time>
      </trkpt>
      <trkpt lat="45.35866" lon="4.51377">
        <ele>1244</ele>
        <time>2011-02-19T18:39:18Z</time>
      </trkpt>
      <trkpt lat="45.35873" lon="4.51375">
        <ele>1244</ele>
        <time>2011-02-19T18:39:21Z</time>
      </trkpt>
      <trkpt lat="45.35879" lon="4.51373">
        <ele>1245</ele>
        <time>2011-02-19T18:39:24Z</time>
      </trkpt>
      <trkpt lat="45.35885" lon="4.51373">
        <ele>1245</ele>
        <time>2011-02-19T18:39:26Z</time>
      </trkpt>
      <trkpt lat="45.35889" lon="4.51371">
        <ele>1245</ele>
        <time>2011-02-19T18:39:28Z</time>
      </trkpt>
      <trkpt lat="45.35895" lon="4.51369">
        <ele>1245</ele>
        <time>2011-02-19T18:39:31Z</time>
      </trkpt>
      <trkpt lat="45.35901" lon="4.51369">
        <ele>1245</ele>
        <time>2011-02-19T18:39:33Z</time>
      </trkpt>
      <trkpt lat="45.35907" lon="4.51369">
        <ele>1245</ele>
        <time>2011-02-19T18:39:36Z</time>
      </trkpt>
      <trkpt lat="45.35913" lon="4.51366">
        <ele>1245</ele>
        <time>2011-02-19T18:39:38Z</time>
      </trkpt>
      <trkpt lat="45.35919" lon="4.51366">
        <ele>1246</ele>
        <time>2011-02-19T18:39:41Z</time>
      </trkpt>
      <trkpt lat="45.35924" lon="4.51366">
        <ele>1246</ele>
        <time>2011-02-19T18:39:43Z</time>
      </trkpt>
      <trkpt lat="45.3593" lon="4.51366">
        <ele>1246</ele>
        <time>2011-02-19T18:39:45Z</time>
      </trkpt>
      <trkpt lat="45.35935" lon="4.51366">
        <ele>1246</ele>
        <time>2011-02-19T18:39:47Z</time>
      </trkpt>
      <trkpt lat="45.35942" lon="4.51369">
        <ele>1246</ele>
        <time>2011-02-19T18:39:49Z</time>
      </trkpt>
      <trkpt lat="45.35948" lon="4.51369">
        <ele>1245</ele>
        <time>2011-02-19T18:39:51Z</time>
      </trkpt>
      <trkpt lat="45.35953" lon="4.51371">
        <ele>1245</ele>
        <time>2011-02-19T18:39:53Z</time>
      </trkpt>
      <trkpt lat="45.35959" lon="4.51371">
        <ele>1245</ele>
        <time>2011-02-19T18:39:55Z</time>
      </trkpt>
      <trkpt lat="45.35964" lon="4.51371">
        <ele>1245</ele>
        <time>2011-02-19T18:39:57Z</time>
      </trkpt>
      <trkpt lat="45.35971" lon="4.51371">
        <ele>1245</ele>
        <time>2011-02-19T18:40:00Z</time>
      </trkpt>
      <trkpt lat="45.35976" lon="4.51371">
        <ele>1245</ele>
        <time>2011-02-19T18:40:02Z</time>
      </trkpt>
      <trkpt lat="45.35981" lon="4.51371">
        <ele>1245</ele>
        <time>2011-02-19T18:40:04Z</time>
      </trkpt>
      <trkpt lat="45.35987" lon="4.51371">
        <ele>1245</ele>
        <time>2011-02-19T18:40:06Z</time>
      </trkpt>
      <trkpt lat="45.35992" lon="4.51369">
        <ele>1245</ele>
        <time>2011-02-19T18:40:08Z</time>
      </trkpt>
      <trkpt lat="45.35997" lon="4.51369">
        <ele>1245</ele>
        <time>2011-02-19T18:40:10Z</time>
      </trkpt>
      <trkpt lat="45.36003" lon="4.51366">
        <ele>1245</ele>
        <time>2011-02-19T18:40:12Z</time>
      </trkpt>
      <trkpt lat="45.36008" lon="4.51366">
        <ele>1246</ele>
        <time>2011-02-19T18:40:14Z</time>
      </trkpt>
      <trkpt lat="45.36015" lon="4.51364">
        <ele>1246</ele>
        <time>2011-02-19T18:40:16Z</time>
      </trkpt>
      <trkpt lat="45.3602" lon="4.51364">
        <ele>1246</ele>
        <time>2011-02-19T18:40:18Z</time>
      </trkpt>
      <trkpt lat="45.36025" lon="4.51362">
        <ele>1246</ele>
        <time>2011-02-19T18:40:20Z</time>
      </trkpt>
      <trkpt lat="45.36032" lon="4.5136">
        <ele>1246</ele>
        <time>2011-02-19T18:40:22Z</time>
      </trkpt>
      <trkpt lat="45.36037" lon="4.51356">
        <ele>1246</ele>
        <time>2011-02-19T18:40:24Z</time>
      </trkpt>
      <trkpt lat="45.36044" lon="4.51354">
        <ele>1246</ele>
        <time>2011-02-19T18:40:26Z</time>
      </trkpt>
      <trkpt lat="45.3605" lon="4.51349">
        <ele>1246</ele>
        <time>2011-02-19T18:40:28Z</time>
      </trkpt>
      <trkpt lat="45.36055" lon="4.51345">
        <ele>1246</ele>
        <time>2011-02-19T18:40:30Z</time>
      </trkpt>
      <trkpt lat="45.36062" lon="4.51343">
        <ele>1247</ele>
        <time>2011-02-19T18:40:32Z</time>
      </trkpt>
      <trkpt lat="45.36068" lon="4.51341">
        <ele>1247</ele>
        <time>2011-02-19T18:40:34Z</time>
      </trkpt>
      <trkpt lat="45.36075" lon="4.51336">
        <ele>1247</ele>
        <time>2011-02-19T18:40:36Z</time>
      </trkpt>
      <trkpt lat="45.36081" lon="4.51334">
        <ele>1247</ele>
        <time>2011-02-19T18:40:38Z</time>
      </trkpt>
      <trkpt lat="45.36088" lon="4.51332">
        <ele>1247</ele>
        <time>2011-02-19T18:40:40Z</time>
      </trkpt>
      <trkpt lat="45.36094" lon="4.5133">
        <ele>1247</ele>
        <time>2011-02-19T18:40:42Z</time>
      </trkpt>
      <trkpt lat="45.36099" lon="4.51328">
        <ele>1247</ele>
        <time>2011-02-19T18:40:44Z</time>
      </trkpt>
      <trkpt lat="45.36106" lon="4.51326">
        <ele>1247</ele>
        <time>2011-02-19T18:40:46Z</time>
      </trkpt>
      <trkpt lat="45.36111" lon="4.51324">
        <ele>1248</ele>
        <time>2011-02-19T18:40:48Z</time>
      </trkpt>
      <trkpt lat="45.36119" lon="4.51321">
        <ele>1248</ele>
        <time>2011-02-19T18:40:51Z</time>
      </trkpt>
      <trkpt lat="45.36126" lon="4.51319">
        <ele>1248</ele>
        <time>2011-02-19T18:40:54Z</time>
      </trkpt>
      <trkpt lat="45.36134" lon="4.51317">
        <ele>1248</ele>
        <time>2011-02-19T18:40:57Z</time>
      </trkpt>
      <trkpt lat="45.36139" lon="4.51317">
        <ele>1248</ele>
        <time>2011-02-19T18:40:59Z</time>
      </trkpt>
      <trkpt lat="45.36144" lon="4.51315">
        <ele>1248</ele>
        <time>2011-02-19T18:41:01Z</time>
      </trkpt>
      <trkpt lat="45.3615" lon="4.51313">
        <ele>1248</ele>
        <time>2011-02-19T18:41:03Z</time>
      </trkpt>
      <trkpt lat="45.36155" lon="4.51311">
        <ele>1248</ele>
        <time>2011-02-19T18:41:05Z</time>
      </trkpt>
      <trkpt lat="45.3616" lon="4.51308">
        <ele>1248</ele>
        <time>2011-02-19T18:41:07Z</time>
      </trkpt>
      <trkpt lat="45.36166" lon="4.51306">
        <ele>1248</ele>
        <time>2011-02-19T18:41:09Z</time>
      </trkpt>
      <trkpt lat="45.36171" lon="4.51304">
        <ele>1248</ele>
        <time>2011-02-19T18:41:11Z</time>
      </trkpt>
      <trkpt lat="45.36179" lon="4.51302">
        <ele>1248</ele>
        <time>2011-02-19T18:41:14Z</time>
      </trkpt>
      <trkpt lat="45.36184" lon="4.513">
        <ele>1248</ele>
        <time>2011-02-19T18:41:16Z</time>
      </trkpt>
      <trkpt lat="45.36192" lon="4.51298">
        <ele>1248</ele>
        <time>2011-02-19T18:41:19Z</time>
      </trkpt>
      <trkpt lat="45.36196" lon="4.51296">
        <ele>1248</ele>
        <time>2011-02-19T18:41:21Z</time>
      </trkpt>
      <trkpt lat="45.36201" lon="4.51296">
        <ele>1248</ele>
        <time>2011-02-19T18:41:23Z</time>
      </trkpt>
      <trkpt lat="45.36207" lon="4.51293">
        <ele>1248</ele>
        <time>2011-02-19T18:41:25Z</time>
      </trkpt>
      <trkpt lat="45.36212" lon="4.51291">
        <ele>1248</ele>
        <time>2011-02-19T18:41:27Z</time>
      </trkpt>
      <trkpt lat="45.36217" lon="4.51291">
        <ele>1248</ele>
        <time>2011-02-19T18:41:29Z</time>
      </trkpt>
      <trkpt lat="45.36223" lon="4.51291">
        <ele>1247</ele>
        <time>2011-02-19T18:41:31Z</time>
      </trkpt>
      <trkpt lat="45.36227" lon="4.51293">
        <ele>1247</ele>
        <time>2011-02-19T18:41:33Z</time>
      </trkpt>
      <trkpt lat="45.36231" lon="4.51296">
        <ele>1247</ele>
        <time>2011-02-19T18:41:35Z</time>
      </trkpt>
      <trkpt lat="45.36237" lon="4.513">
        <ele>1247</ele>
        <time>2011-02-19T18:41:38Z</time>
      </trkpt>
      <trkpt lat="45.36241" lon="4.51302">
        <ele>1246</ele>
        <time>2011-02-19T18:41:40Z</time>
      </trkpt>
      <trkpt lat="45.36244" lon="4.51308">
        <ele>1246</ele>
        <time>2011-02-19T18:41:42Z</time>
      </trkpt>
      <trkpt lat="45.36247" lon="4.51313">
        <ele>1246</ele>
        <time>2011-02-19T18:41:44Z</time>
      </trkpt>
      <trkpt lat="45.36251" lon="4.51319">
        <ele>1246</ele>
        <time>2011-02-19T18:41:46Z</time>
      </trkpt>
      <trkpt lat="45.36254" lon="4.51326">
        <ele>1246</ele>
        <time>2011-02-19T18:41:48Z</time>
      </trkpt>
      <trkpt lat="45.36256" lon="4.51332">
        <ele>1245</ele>
        <time>2011-02-19T18:41:50Z</time>
      </trkpt>
      <trkpt lat="45.36258" lon="4.51341">
        <ele>1245</ele>
        <time>2011-02-19T18:41:52Z</time>
      </trkpt>
      <trkpt lat="45.36259" lon="4.51347">
        <ele>1245</ele>
        <time>2011-02-19T18:41:54Z</time>
      </trkpt>
      <trkpt lat="45.3626" lon="4.51354">
        <ele>1244</ele>
        <time>2011-02-19T18:41:56Z</time>
      </trkpt>
      <trkpt lat="45.36261" lon="4.51362">
        <ele>1244</ele>
        <time>2011-02-19T18:41:58Z</time>
      </trkpt>
      <trkpt lat="45.36263" lon="4.51369">
        <ele>1244</ele>
        <time>2011-02-19T18:42:00Z</time>
      </trkpt>
      <trkpt lat="45.36265" lon="4.51377">
        <ele>1243</ele>
        <time>2011-02-19T18:42:02Z</time>
      </trkpt>
      <trkpt lat="45.36266" lon="4.51386">
        <ele>1243</ele>
        <time>2011-02-19T18:42:04Z</time>
      </trkpt>
      <trkpt lat="45.36266" lon="4.51392">
        <ele>1243</ele>
        <time>2011-02-19T18:42:06Z</time>
      </trkpt>
      <trkpt lat="45.36267" lon="4.51401">
        <ele>1242</ele>
        <time>2011-02-19T18:42:08Z</time>
      </trkpt>
      <trkpt lat="45.36268" lon="4.51407">
        <ele>1242</ele>
        <time>2011-02-19T18:42:10Z</time>
      </trkpt>
      <trkpt lat="45.36269" lon="4.51416">
        <ele>1242</ele>
        <time>2011-02-19T18:42:12Z</time>
      </trkpt>
      <trkpt lat="45.3627" lon="4.51424">
        <ele>1241</ele>
        <time>2011-02-19T18:42:14Z</time>
      </trkpt>
      <trkpt lat="45.36271" lon="4.51431">
        <ele>1241</ele>
        <time>2011-02-19T18:42:16Z</time>
      </trkpt>
      <trkpt lat="45.36271" lon="4.51439">
        <ele>1241</ele>
        <time>2011-02-19T18:42:18Z</time>
      </trkpt>
      <trkpt lat="45.36271" lon="4.51446">
        <ele>1240</ele>
        <time>2011-02-19T18:42:20Z</time>
      </trkpt>
      <trkpt lat="45.36271" lon="4.51454">
        <ele>1239</ele>
        <time>2011-02-19T18:42:22Z</time>
      </trkpt>
      <trkpt lat="45.36272" lon="4.51461">
        <ele>1239</ele>
        <time>2011-02-19T18:42:24Z</time>
      </trkpt>
      <trkpt lat="45.36272" lon="4.51469">
        <ele>1238</ele>
        <time>2011-02-19T18:42:26Z</time>
      </trkpt>
      <trkpt lat="45.36272" lon="4.51476">
        <ele>1238</ele>
        <time>2011-02-19T18:42:28Z</time>
      </trkpt>
      <trkpt lat="45.36272" lon="4.51484">
        <ele>1237</ele>
        <time>2011-02-19T18:42:30Z</time>
      </trkpt>
      <trkpt lat="45.36272" lon="4.51491">
        <ele>1237</ele>
        <time>2011-02-19T18:42:32Z</time>
      </trkpt>
      <trkpt lat="45.36271" lon="4.51499">
        <ele>1237</ele>
        <time>2011-02-19T18:42:34Z</time>
      </trkpt>
      <trkpt lat="45.3627" lon="4.51508">
        <ele>1236</ele>
        <time>2011-02-19T18:42:36Z</time>
      </trkpt>
      <trkpt lat="45.36269" lon="4.51517">
        <ele>1236</ele>
        <time>2011-02-19T18:42:38Z</time>
      </trkpt>
      <trkpt lat="45.36268" lon="4.51525">
        <ele>1235</ele>
        <time>2011-02-19T18:42:40Z</time>
      </trkpt>
      <trkpt lat="45.36268" lon="4.51536">
        <ele>1235</ele>
        <time>2011-02-19T18:42:42Z</time>
      </trkpt>
      <trkpt lat="45.36268" lon="4.51547">
        <ele>1234</ele>
        <time>2011-02-19T18:42:44Z</time>
      </trkpt>
      <trkpt lat="45.3627" lon="4.51557">
        <ele>1234</ele>
        <time>2011-02-19T18:42:46Z</time>
      </trkpt>
      <trkpt lat="45.36271" lon="4.51564">
        <ele>1234</ele>
        <time>2011-02-19T18:42:47Z</time>
      </trkpt>
      <trkpt lat="45.36272" lon="4.5157">
        <ele>1233</ele>
        <time>2011-02-19T18:42:48Z</time>
      </trkpt>
      <trkpt lat="45.36274" lon="4.51577">
        <ele>1233</ele>
        <time>2011-02-19T18:42:49Z</time>
      </trkpt>
      <trkpt lat="45.36277" lon="4.51587">
        <ele>1232</ele>
        <time>2011-02-19T18:42:51Z</time>
      </trkpt>
      <trkpt lat="45.36278" lon="4.51594">
        <ele>1232</ele>
        <time>2011-02-19T18:42:52Z</time>
      </trkpt>
      <trkpt lat="45.3628" lon="4.516">
        <ele>1232</ele>
        <time>2011-02-19T18:42:53Z</time>
      </trkpt>
      <trkpt lat="45.36281" lon="4.51607">
        <ele>1231</ele>
        <time>2011-02-19T18:42:54Z</time>
      </trkpt>
      <trkpt lat="45.36283" lon="4.51617">
        <ele>1230</ele>
        <time>2011-02-19T18:42:56Z</time>
      </trkpt>
      <trkpt lat="45.36284" lon="4.51628">
        <ele>1230</ele>
        <time>2011-02-19T18:42:58Z</time>
      </trkpt>
      <trkpt lat="45.36284" lon="4.51635">
        <ele>1229</ele>
        <time>2011-02-19T18:42:59Z</time>
      </trkpt>
      <trkpt lat="45.36285" lon="4.51643">
        <ele>1229</ele>
        <time>2011-02-19T18:43:01Z</time>
      </trkpt>
      <trkpt lat="45.36285" lon="4.5165">
        <ele>1228</ele>
        <time>2011-02-19T18:43:02Z</time>
      </trkpt>
      <trkpt lat="45.36284" lon="4.51658">
        <ele>1228</ele>
        <time>2011-02-19T18:43:04Z</time>
      </trkpt>
      <trkpt lat="45.36284" lon="4.51667">
        <ele>1227</ele>
        <time>2011-02-19T18:43:06Z</time>
      </trkpt>
      <trkpt lat="45.36283" lon="4.51675">
        <ele>1226</ele>
        <time>2011-02-19T18:43:08Z</time>
      </trkpt>
      <trkpt lat="45.36283" lon="4.51682">
        <ele>1226</ele>
        <time>2011-02-19T18:43:09Z</time>
      </trkpt>
      <trkpt lat="45.36282" lon="4.5169">
        <ele>1225</ele>
        <time>2011-02-19T18:43:11Z</time>
      </trkpt>
      <trkpt lat="45.36282" lon="4.51699">
        <ele>1225</ele>
        <time>2011-02-19T18:43:13Z</time>
      </trkpt>
      <trkpt lat="45.36283" lon="4.51708">
        <ele>1224</ele>
        <time>2011-02-19T18:43:15Z</time>
      </trkpt>
      <trkpt lat="45.36284" lon="4.51716">
        <ele>1224</ele>
        <time>2011-02-19T18:43:17Z</time>
      </trkpt>
      <trkpt lat="45.36285" lon="4.51725">
        <ele>1223</ele>
        <time>2011-02-19T18:43:19Z</time>
      </trkpt>
      <trkpt lat="45.36286" lon="4.51733">
        <ele>1223</ele>
        <time>2011-02-19T18:43:21Z</time>
      </trkpt>
      <trkpt lat="45.36287" lon="4.51742">
        <ele>1223</ele>
        <time>2011-02-19T18:43:23Z</time>
      </trkpt>
      <trkpt lat="45.36287" lon="4.51751">
        <ele>1222</ele>
        <time>2011-02-19T18:43:25Z</time>
      </trkpt>
      <trkpt lat="45.36286" lon="4.51757">
        <ele>1222</ele>
        <time>2011-02-19T18:43:27Z</time>
      </trkpt>
      <trkpt lat="45.36281" lon="4.51761">
        <ele>1222</ele>
        <time>2011-02-19T18:43:31Z</time>
      </trkpt>
      <trkpt lat="45.36275" lon="4.51766">
        <ele>1222</ele>
        <time>2011-02-19T18:43:34Z</time>
      </trkpt>
      <trkpt lat="45.36271" lon="4.5177">
        <ele>1221</ele>
        <time>2011-02-19T18:43:37Z</time>
      </trkpt>
      <trkpt lat="45.36266" lon="4.51774">
        <ele>1221</ele>
        <time>2011-02-19T18:43:41Z</time>
      </trkpt>
      <trkpt lat="45.36261" lon="4.51776">
        <ele>1220</ele>
        <time>2011-02-19T18:43:44Z</time>
      </trkpt>
      <trkpt lat="45.36256" lon="4.51778">
        <ele>1220</ele>
        <time>2011-02-19T18:43:47Z</time>
      </trkpt>
      <trkpt lat="45.36252" lon="4.51781">
        <ele>1219</ele>
        <time>2011-02-19T18:43:50Z</time>
      </trkpt>
      <trkpt lat="45.36246" lon="4.51785">
        <ele>1218</ele>
        <time>2011-02-19T18:43:53Z</time>
      </trkpt>
      <trkpt lat="45.36242" lon="4.51789">
        <ele>1218</ele>
        <time>2011-02-19T18:43:57Z</time>
      </trkpt>
      <trkpt lat="45.36238" lon="4.51793">
        <ele>1217</ele>
        <time>2011-02-19T18:44:00Z</time>
      </trkpt>
      <trkpt lat="45.36233" lon="4.51796">
        <ele>1216</ele>
        <time>2011-02-19T18:44:03Z</time>
      </trkpt>
      <trkpt lat="45.36229" lon="4.518">
        <ele>1216</ele>
        <time>2011-02-19T18:44:06Z</time>
      </trkpt>
      <trkpt lat="45.36225" lon="4.51806">
        <ele>1215</ele>
        <time>2011-02-19T18:44:10Z</time>
      </trkpt>
      <trkpt lat="45.36221" lon="4.51811">
        <ele>1214</ele>
        <time>2011-02-19T18:44:14Z</time>
      </trkpt>
      <trkpt lat="45.36216" lon="4.51815">
        <ele>1214</ele>
        <time>2011-02-19T18:44:17Z</time>
      </trkpt>
      <trkpt lat="45.36212" lon="4.51821">
        <ele>1213</ele>
        <time>2011-02-19T18:44:21Z</time>
      </trkpt>
      <trkpt lat="45.36208" lon="4.51826">
        <ele>1212</ele>
        <time>2011-02-19T18:44:25Z</time>
      </trkpt>
      <trkpt lat="45.36203" lon="4.51832">
        <ele>1211</ele>
        <time>2011-02-19T18:44:29Z</time>
      </trkpt>
      <trkpt lat="45.36199" lon="4.51836">
        <ele>1210</ele>
        <time>2011-02-19T18:44:32Z</time>
      </trkpt>
      <trkpt lat="45.36194" lon="4.51841">
        <ele>1209</ele>
        <time>2011-02-19T18:44:36Z</time>
      </trkpt>
      <trkpt lat="45.36189" lon="4.51843">
        <ele>1209</ele>
        <time>2011-02-19T18:44:40Z</time>
      </trkpt>
      <trkpt lat="45.36185" lon="4.51847">
        <ele>1208</ele>
        <time>2011-02-19T18:44:43Z</time>
      </trkpt>
      <trkpt lat="45.3618" lon="4.51849">
        <ele>1208</ele>
        <time>2011-02-19T18:44:47Z</time>
      </trkpt>
      <trkpt lat="45.36173" lon="4.51854">
        <ele>1208</ele>
        <time>2011-02-19T18:44:52Z</time>
      </trkpt>
      <trkpt lat="45.36169" lon="4.51856">
        <ele>1208</ele>
        <time>2011-02-19T18:44:55Z</time>
      </trkpt>
      <trkpt lat="45.36169" lon="4.51856">
        <ele>1208</ele>
        <time>2011-02-19T18:44:55Z</time>
      </trkpt>
      <trkpt lat="45.36169" lon="4.51856">
        <ele>1208</ele>
        <time>2011-02-19T18:44:56Z</time>
      </trkpt>
      <trkpt lat="45.36164" lon="4.51858">
        <ele>1208</ele>
        <time>2011-02-19T18:45:00Z</time>
      </trkpt>
      <trkpt lat="45.36158" lon="4.5186">
        <ele>1208</ele>
        <time>2011-02-19T18:45:03Z</time>
      </trkpt>
      <trkpt lat="45.36154" lon="4.51862">
        <ele>1208</ele>
        <time>2011-02-19T18:45:05Z</time>
      </trkpt>
      <trkpt lat="45.36149" lon="4.51864">
        <ele>1209</ele>
        <time>2011-02-19T18:45:08Z</time>
      </trkpt>
      <trkpt lat="45.36143" lon="4.51866">
        <ele>1209</ele>
        <time>2011-02-19T18:45:11Z</time>
      </trkpt>
      <trkpt lat="45.36138" lon="4.51871">
        <ele>1210</ele>
        <time>2011-02-19T18:45:14Z</time>
      </trkpt>
      <trkpt lat="45.36134" lon="4.51875">
        <ele>1210</ele>
        <time>2011-02-19T18:45:17Z</time>
      </trkpt>
      <trkpt lat="45.3613" lon="4.51881">
        <ele>1210</ele>
        <time>2011-02-19T18:45:20Z</time>
      </trkpt>
      <trkpt lat="45.36129" lon="4.51888">
        <ele>1210</ele>
        <time>2011-02-19T18:45:22Z</time>
      </trkpt>
      <trkpt lat="45.36129" lon="4.51896">
        <ele>1210</ele>
        <time>2011-02-19T18:45:25Z</time>
      </trkpt>
      <trkpt lat="45.3613" lon="4.51905">
        <ele>1210</ele>
        <time>2011-02-19T18:45:28Z</time>
      </trkpt>
      <trkpt lat="45.36133" lon="4.51911">
        <ele>1210</ele>
        <time>2011-02-19T18:45:31Z</time>
      </trkpt>
      <trkpt lat="45.36136" lon="4.51918">
        <ele>1210</ele>
        <time>2011-02-19T18:45:35Z</time>
      </trkpt>
      <trkpt lat="45.36138" lon="4.51924">
        <ele>1210</ele>
        <time>2011-02-19T18:45:39Z</time>
      </trkpt>
      <trkpt lat="45.3614" lon="4.51931">
        <ele>1210</ele>
        <time>2011-02-19T18:45:43Z</time>
      </trkpt>
      <trkpt lat="45.36143" lon="4.51937">
        <ele>1210</ele>
        <time>2011-02-19T18:45:48Z</time>
      </trkpt>
      <trkpt lat="45.36147" lon="4.51944">
        <ele>1210</ele>
        <time>2011-02-19T18:45:52Z</time>
      </trkpt>
      <trkpt lat="45.36147" lon="4.51944">
        <ele>1210</ele>
        <time>2011-02-19T18:45:52Z</time>
      </trkpt>
      <trkpt lat="45.36147" lon="4.51944">
        <ele>1210</ele>
        <time>2011-02-19T18:45:53Z</time>
      </trkpt>
      <trkpt lat="45.36151" lon="4.5195">
        <ele>1210</ele>
        <time>2011-02-19T18:45:58Z</time>
      </trkpt>
      <trkpt lat="45.36155" lon="4.51952">
        <ele>1210</ele>
        <time>2011-02-19T18:46:02Z</time>
      </trkpt>
      <trkpt lat="45.36162" lon="4.51952">
        <ele>1211</ele>
        <time>2011-02-19T18:46:06Z</time>
      </trkpt>
      <trkpt lat="45.36166" lon="4.5195">
        <ele>1211</ele>
        <time>2011-02-19T18:46:08Z</time>
      </trkpt>
      <trkpt lat="45.36171" lon="4.51946">
        <ele>1211</ele>
        <time>2011-02-19T18:46:11Z</time>
      </trkpt>
      <trkpt lat="45.36175" lon="4.51941">
        <ele>1212</ele>
        <time>2011-02-19T18:46:13Z</time>
      </trkpt>
      <trkpt lat="45.36181" lon="4.51935">
        <ele>1212</ele>
        <time>2011-02-19T18:46:16Z</time>
      </trkpt>
      <trkpt lat="45.36185" lon="4.51929">
        <ele>1212</ele>
        <time>2011-02-19T18:46:18Z</time>
      </trkpt>
      <trkpt lat="45.36189" lon="4.51924">
        <ele>1212</ele>
        <time>2011-02-19T18:46:20Z</time>
      </trkpt>
      <trkpt lat="45.36194" lon="4.51918">
        <ele>1213</ele>
        <time>2011-02-19T18:46:22Z</time>
      </trkpt>
      <trkpt lat="45.36199" lon="4.51911">
        <ele>1213</ele>
        <time>2011-02-19T18:46:25Z</time>
      </trkpt>
      <trkpt lat="45.36203" lon="4.51907">
        <ele>1213</ele>
        <time>2011-02-19T18:46:27Z</time>
      </trkpt>
      <trkpt lat="45.36207" lon="4.51901">
        <ele>1213</ele>
        <time>2011-02-19T18:46:29Z</time>
      </trkpt>
      <trkpt lat="45.36211" lon="4.51899">
        <ele>1213</ele>
        <time>2011-02-19T18:46:31Z</time>
      </trkpt>
      <trkpt lat="45.36215" lon="4.51892">
        <ele>1214</ele>
        <time>2011-02-19T18:46:33Z</time>
      </trkpt>
      <trkpt lat="45.36221" lon="4.51884">
        <ele>1214</ele>
        <time>2011-02-19T18:46:36Z</time>
      </trkpt>
      <trkpt lat="45.36224" lon="4.51877">
        <ele>1214</ele>
        <time>2011-02-19T18:46:38Z</time>
      </trkpt>
      <trkpt lat="45.36227" lon="4.51871">
        <ele>1215</ele>
        <time>2011-02-19T18:46:40Z</time>
      </trkpt>
      <trkpt lat="45.36229" lon="4.51862">
        <ele>1215</ele>
        <time>2011-02-19T18:46:42Z</time>
      </trkpt>
      <trkpt lat="45.36232" lon="4.51856">
        <ele>1215</ele>
        <time>2011-02-19T18:46:44Z</time>
      </trkpt>
      <trkpt lat="45.36234" lon="4.51849">
        <ele>1215</ele>
        <time>2011-02-19T18:46:46Z</time>
      </trkpt>
      <trkpt lat="45.36239" lon="4.51843">
        <ele>1215</ele>
        <time>2011-02-19T18:46:48Z</time>
      </trkpt>
      <trkpt lat="45.36243" lon="4.51838">
        <ele>1215</ele>
        <time>2011-02-19T18:46:50Z</time>
      </trkpt>
      <trkpt lat="45.36247" lon="4.51834">
        <ele>1216</ele>
        <time>2011-02-19T18:46:52Z</time>
      </trkpt>
      <trkpt lat="45.36253" lon="4.5183">
        <ele>1216</ele>
        <time>2011-02-19T18:46:54Z</time>
      </trkpt>
      <trkpt lat="45.36257" lon="4.51823">
        <ele>1216</ele>
        <time>2011-02-19T18:46:56Z</time>
      </trkpt>
      <trkpt lat="45.36262" lon="4.51821">
        <ele>1216</ele>
        <time>2011-02-19T18:46:58Z</time>
      </trkpt>
      <trkpt lat="45.36268" lon="4.51817">
        <ele>1216</ele>
        <time>2011-02-19T18:47:00Z</time>
      </trkpt>
      <trkpt lat="45.36273" lon="4.51815">
        <ele>1216</ele>
        <time>2011-02-19T18:47:02Z</time>
      </trkpt>
      <trkpt lat="45.3628" lon="4.51813">
        <ele>1216</ele>
        <time>2011-02-19T18:47:04Z</time>
      </trkpt>
      <trkpt lat="45.36285" lon="4.51808">
        <ele>1216</ele>
        <time>2011-02-19T18:47:06Z</time>
      </trkpt>
      <trkpt lat="45.3629" lon="4.51806">
        <ele>1216</ele>
        <time>2011-02-19T18:47:08Z</time>
      </trkpt>
      <trkpt lat="45.36297" lon="4.51804">
        <ele>1215</ele>
        <time>2011-02-19T18:47:10Z</time>
      </trkpt>
      <trkpt lat="45.36302" lon="4.51804">
        <ele>1215</ele>
        <time>2011-02-19T18:47:12Z</time>
      </trkpt>
      <trkpt lat="45.36307" lon="4.51802">
        <ele>1215</ele>
        <time>2011-02-19T18:47:14Z</time>
      </trkpt>
      <trkpt lat="45.36313" lon="4.518">
        <ele>1215</ele>
        <time>2011-02-19T18:47:16Z</time>
      </trkpt>
      <trkpt lat="45.36319" lon="4.51798">
        <ele>1215</ele>
        <time>2011-02-19T18:47:18Z</time>
      </trkpt>
      <trkpt lat="45.36325" lon="4.51796">
        <ele>1215</ele>
        <time>2011-02-19T18:47:20Z</time>
      </trkpt>
      <trkpt lat="45.3633" lon="4.51791">
        <ele>1215</ele>
        <time>2011-02-19T18:47:22Z</time>
      </trkpt>
      <trkpt lat="45.36335" lon="4.51787">
        <ele>1215</ele>
        <time>2011-02-19T18:47:24Z</time>
      </trkpt>
      <trkpt lat="45.3634" lon="4.51783">
        <ele>1215</ele>
        <time>2011-02-19T18:47:26Z</time>
      </trkpt>
      <trkpt lat="45.36344" lon="4.51776">
        <ele>1215</ele>
        <time>2011-02-19T18:47:28Z</time>
      </trkpt>
      <trkpt lat="45.36348" lon="4.51772">
        <ele>1215</ele>
        <time>2011-02-19T18:47:30Z</time>
      </trkpt>
      <trkpt lat="45.36354" lon="4.51766">
        <ele>1215</ele>
        <time>2011-02-19T18:47:33Z</time>
      </trkpt>
      <trkpt lat="45.36358" lon="4.51761">
        <ele>1214</ele>
        <time>2011-02-19T18:47:35Z</time>
      </trkpt>
      <trkpt lat="45.36363" lon="4.51755">
        <ele>1214</ele>
        <time>2011-02-19T18:47:38Z</time>
      </trkpt>
      <trkpt lat="45.36368" lon="4.51751">
        <ele>1214</ele>
        <time>2011-02-19T18:47:39Z</time>
      </trkpt>
      <trkpt lat="45.36372" lon="4.51746">
        <ele>1214</ele>
        <time>2011-02-19T18:47:41Z</time>
      </trkpt>
      <trkpt lat="45.36377" lon="4.51742">
        <ele>1214</ele>
        <time>2011-02-19T18:47:43Z</time>
      </trkpt>
      <trkpt lat="45.36381" lon="4.51735">
        <ele>1214</ele>
        <time>2011-02-19T18:47:45Z</time>
      </trkpt>
      <trkpt lat="45.36387" lon="4.51729">
        <ele>1213</ele>
        <time>2011-02-19T18:47:48Z</time>
      </trkpt>
      <trkpt lat="45.36392" lon="4.5172">
        <ele>1213</ele>
        <time>2011-02-19T18:47:51Z</time>
      </trkpt>
      <trkpt lat="45.36397" lon="4.51716">
        <ele>1213</ele>
        <time>2011-02-19T18:47:53Z</time>
      </trkpt>
      <trkpt lat="45.36402" lon="4.5171">
        <ele>1213</ele>
        <time>2011-02-19T18:47:56Z</time>
      </trkpt>
      <trkpt lat="45.36406" lon="4.51705">
        <ele>1213</ele>
        <time>2011-02-19T18:47:58Z</time>
      </trkpt>
      <trkpt lat="45.3641" lon="4.51701">
        <ele>1213</ele>
        <time>2011-02-19T18:48:00Z</time>
      </trkpt>
      <trkpt lat="45.36416" lon="4.51697">
        <ele>1213</ele>
        <time>2011-02-19T18:48:02Z</time>
      </trkpt>
      <trkpt lat="45.36421" lon="4.51695">
        <ele>1213</ele>
        <time>2011-02-19T18:48:04Z</time>
      </trkpt>
      <trkpt lat="45.36425" lon="4.5169">
        <ele>1213</ele>
        <time>2011-02-19T18:48:06Z</time>
      </trkpt>
      <trkpt lat="45.36431" lon="4.51688">
        <ele>1213</ele>
        <time>2011-02-19T18:48:08Z</time>
      </trkpt>
      <trkpt lat="45.36436" lon="4.51684">
        <ele>1213</ele>
        <time>2011-02-19T18:48:10Z</time>
      </trkpt>
      <trkpt lat="45.36442" lon="4.51682">
        <ele>1212</ele>
        <time>2011-02-19T18:48:12Z</time>
      </trkpt>
      <trkpt lat="45.36447" lon="4.51678">
        <ele>1212</ele>
        <time>2011-02-19T18:48:14Z</time>
      </trkpt>
      <trkpt lat="45.36451" lon="4.51675">
        <ele>1212</ele>
        <time>2011-02-19T18:48:16Z</time>
      </trkpt>
      <trkpt lat="45.36457" lon="4.51675">
        <ele>1212</ele>
        <time>2011-02-19T18:48:18Z</time>
      </trkpt>
      <trkpt lat="45.36461" lon="4.51673">
        <ele>1212</ele>
        <time>2011-02-19T18:48:20Z</time>
      </trkpt>
      <trkpt lat="45.36466" lon="4.51673">
        <ele>1212</ele>
        <time>2011-02-19T18:48:22Z</time>
      </trkpt>
      <trkpt lat="45.36472" lon="4.51673">
        <ele>1212</ele>
        <time>2011-02-19T18:48:25Z</time>
      </trkpt>
      <trkpt lat="45.36477" lon="4.51673">
        <ele>1212</ele>
        <time>2011-02-19T18:48:28Z</time>
      </trkpt>
      <trkpt lat="45.36482" lon="4.51675">
        <ele>1212</ele>
        <time>2011-02-19T18:48:31Z</time>
      </trkpt>
      <trkpt lat="45.36488" lon="4.51675">
        <ele>1212</ele>
        <time>2011-02-19T18:48:35Z</time>
      </trkpt>
      <trkpt lat="45.36494" lon="4.51675">
        <ele>1212</ele>
        <time>2011-02-19T18:48:40Z</time>
      </trkpt>
      <trkpt lat="45.365" lon="4.51675">
        <ele>1212</ele>
        <time>2011-02-19T18:48:45Z</time>
      </trkpt>
      <trkpt lat="45.36504" lon="4.51673">
        <ele>1212</ele>
        <time>2011-02-19T18:48:48Z</time>
      </trkpt>
      <trkpt lat="45.3651" lon="4.51671">
        <ele>1213</ele>
        <time>2011-02-19T18:48:52Z</time>
      </trkpt>
      <trkpt lat="45.36516" lon="4.51671">
        <ele>1213</ele>
        <time>2011-02-19T18:48:56Z</time>
      </trkpt>
      <trkpt lat="45.36521" lon="4.51667">
        <ele>1213</ele>
        <time>2011-02-19T18:49:00Z</time>
      </trkpt>
      <trkpt lat="45.36525" lon="4.51665">
        <ele>1213</ele>
        <time>2011-02-19T18:49:03Z</time>
      </trkpt>
      <trkpt lat="45.3653" lon="4.51663">
        <ele>1213</ele>
        <time>2011-02-19T18:49:06Z</time>
      </trkpt>
      <trkpt lat="45.36535" lon="4.51663">
        <ele>1214</ele>
        <time>2011-02-19T18:49:09Z</time>
      </trkpt>
      <trkpt lat="45.3654" lon="4.5166">
        <ele>1214</ele>
        <time>2011-02-19T18:49:13Z</time>
      </trkpt>
      <trkpt lat="45.36545" lon="4.51658">
        <ele>1214</ele>
        <time>2011-02-19T18:49:17Z</time>
      </trkpt>
      <trkpt lat="45.3655" lon="4.51658">
        <ele>1214</ele>
        <time>2011-02-19T18:49:21Z</time>
      </trkpt>
      <trkpt lat="45.36555" lon="4.51656">
        <ele>1214</ele>
        <time>2011-02-19T18:49:24Z</time>
      </trkpt>
      <trkpt lat="45.36562" lon="4.51656">
        <ele>1214</ele>
        <time>2011-02-19T18:49:27Z</time>
      </trkpt>
      <trkpt lat="45.36567" lon="4.51654">
        <ele>1214</ele>
        <time>2011-02-19T18:49:29Z</time>
      </trkpt>
      <trkpt lat="45.36572" lon="4.51654">
        <ele>1214</ele>
        <time>2011-02-19T18:49:31Z</time>
      </trkpt>
      <trkpt lat="45.3658" lon="4.51652">
        <ele>1214</ele>
        <time>2011-02-19T18:49:34Z</time>
      </trkpt>
      <trkpt lat="45.36585" lon="4.51654">
        <ele>1214</ele>
        <time>2011-02-19T18:49:36Z</time>
      </trkpt>
      <trkpt lat="45.36593" lon="4.51654">
        <ele>1214</ele>
        <time>2011-02-19T18:49:39Z</time>
      </trkpt>
      <trkpt lat="45.36598" lon="4.51654">
        <ele>1214</ele>
        <time>2011-02-19T18:49:41Z</time>
      </trkpt>
      <trkpt lat="45.36605" lon="4.51654">
        <ele>1214</ele>
        <time>2011-02-19T18:49:43Z</time>
      </trkpt>
      <trkpt lat="45.3661" lon="4.51654">
        <ele>1214</ele>
        <time>2011-02-19T18:49:45Z</time>
      </trkpt>
      <trkpt lat="45.36615" lon="4.51654">
        <ele>1213</ele>
        <time>2011-02-19T18:49:47Z</time>
      </trkpt>
      <trkpt lat="45.36621" lon="4.51654">
        <ele>1213</ele>
        <time>2011-02-19T18:49:49Z</time>
      </trkpt>
      <trkpt lat="45.36627" lon="4.51654">
        <ele>1214</ele>
        <time>2011-02-19T18:49:51Z</time>
      </trkpt>
      <trkpt lat="45.36633" lon="4.51656">
        <ele>1214</ele>
        <time>2011-02-19T18:49:53Z</time>
      </trkpt>
      <trkpt lat="45.36639" lon="4.51656">
        <ele>1214</ele>
        <time>2011-02-19T18:49:55Z</time>
      </trkpt>
      <trkpt lat="45.36644" lon="4.51656">
        <ele>1214</ele>
        <time>2011-02-19T18:49:57Z</time>
      </trkpt>
      <trkpt lat="45.3665" lon="4.51656">
        <ele>1214</ele>
        <time>2011-02-19T18:49:59Z</time>
      </trkpt>
      <trkpt lat="45.36655" lon="4.51654">
        <ele>1214</ele>
        <time>2011-02-19T18:50:01Z</time>
      </trkpt>
      <trkpt lat="45.36662" lon="4.51654">
        <ele>1214</ele>
        <time>2011-02-19T18:50:03Z</time>
      </trkpt>
      <trkpt lat="45.36667" lon="4.51652">
        <ele>1215</ele>
        <time>2011-02-19T18:50:05Z</time>
      </trkpt>
      <trkpt lat="45.36673" lon="4.51652">
        <ele>1215</ele>
        <time>2011-02-19T18:50:07Z</time>
      </trkpt>
      <trkpt lat="45.36679" lon="4.51652">
        <ele>1215</ele>
        <time>2011-02-19T18:50:09Z</time>
      </trkpt>
      <trkpt lat="45.36684" lon="4.51652">
        <ele>1215</ele>
        <time>2011-02-19T18:50:11Z</time>
      </trkpt>
      <trkpt lat="45.36689" lon="4.51652">
        <ele>1215</ele>
        <time>2011-02-19T18:50:13Z</time>
      </trkpt>
      <trkpt lat="45.36695" lon="4.51652">
        <ele>1216</ele>
        <time>2011-02-19T18:50:15Z</time>
      </trkpt>
      <trkpt lat="45.36701" lon="4.51652">
        <ele>1216</ele>
        <time>2011-02-19T18:50:17Z</time>
      </trkpt>
      <trkpt lat="45.36707" lon="4.51652">
        <ele>1216</ele>
        <time>2011-02-19T18:50:19Z</time>
      </trkpt>
      <trkpt lat="45.36712" lon="4.51652">
        <ele>1216</ele>
        <time>2011-02-19T18:50:21Z</time>
      </trkpt>
      <trkpt lat="45.36717" lon="4.51652">
        <ele>1216</ele>
        <time>2011-02-19T18:50:23Z</time>
      </trkpt>
      <trkpt lat="45.36724" lon="4.51652">
        <ele>1216</ele>
        <time>2011-02-19T18:50:25Z</time>
      </trkpt>
      <trkpt lat="45.36729" lon="4.51654">
        <ele>1215</ele>
        <time>2011-02-19T18:50:27Z</time>
      </trkpt>
      <trkpt lat="45.36734" lon="4.51654">
        <ele>1215</ele>
        <time>2011-02-19T18:50:29Z</time>
      </trkpt>
      <trkpt lat="45.3674" lon="4.51654">
        <ele>1216</ele>
        <time>2011-02-19T18:50:31Z</time>
      </trkpt>
      <trkpt lat="45.36745" lon="4.51654">
        <ele>1216</ele>
        <time>2011-02-19T18:50:33Z</time>
      </trkpt>
      <trkpt lat="45.36751" lon="4.51654">
        <ele>1216</ele>
        <time>2011-02-19T18:50:35Z</time>
      </trkpt>
      <trkpt lat="45.36756" lon="4.51654">
        <ele>1216</ele>
        <time>2011-02-19T18:50:37Z</time>
      </trkpt>
      <trkpt lat="45.36761" lon="4.51654">
        <ele>1216</ele>
        <time>2011-02-19T18:50:39Z</time>
      </trkpt>
      <trkpt lat="45.36767" lon="4.51654">
        <ele>1216</ele>
        <time>2011-02-19T18:50:41Z</time>
      </trkpt>
      <trkpt lat="45.36773" lon="4.51654">
        <ele>1216</ele>
        <time>2011-02-19T18:50:43Z</time>
      </trkpt>
      <trkpt lat="45.3678" lon="4.51652">
        <ele>1216</ele>
        <time>2011-02-19T18:50:45Z</time>
      </trkpt>
      <trkpt lat="45.36786" lon="4.51652">
        <ele>1217</ele>
        <time>2011-02-19T18:50:47Z</time>
      </trkpt>
      <trkpt lat="45.36792" lon="4.51652">
        <ele>1217</ele>
        <time>2011-02-19T18:50:49Z</time>
      </trkpt>
      <trkpt lat="45.36799" lon="4.5165">
        <ele>1217</ele>
        <time>2011-02-19T18:50:51Z</time>
      </trkpt>
      <trkpt lat="45.36805" lon="4.5165">
        <ele>1218</ele>
        <time>2011-02-19T18:50:53Z</time>
      </trkpt>
      <trkpt lat="45.36812" lon="4.51648">
        <ele>1218</ele>
        <time>2011-02-19T18:50:55Z</time>
      </trkpt>
      <trkpt lat="45.36817" lon="4.51645">
        <ele>1218</ele>
        <time>2011-02-19T18:50:57Z</time>
      </trkpt>
      <trkpt lat="45.36824" lon="4.51643">
        <ele>1219</ele>
        <time>2011-02-19T18:50:59Z</time>
      </trkpt>
      <trkpt lat="45.36829" lon="4.51641">
        <ele>1219</ele>
        <time>2011-02-19T18:51:01Z</time>
      </trkpt>
      <trkpt lat="45.36834" lon="4.51637">
        <ele>1219</ele>
        <time>2011-02-19T18:51:03Z</time>
      </trkpt>
      <trkpt lat="45.36839" lon="4.5163">
        <ele>1219</ele>
        <time>2011-02-19T18:51:05Z</time>
      </trkpt>
      <trkpt lat="45.36843" lon="4.51624">
        <ele>1220</ele>
        <time>2011-02-19T18:51:07Z</time>
      </trkpt>
      <trkpt lat="45.36847" lon="4.5162">
        <ele>1220</ele>
        <time>2011-02-19T18:51:09Z</time>
      </trkpt>
      <trkpt lat="45.36852" lon="4.51613">
        <ele>1220</ele>
        <time>2011-02-19T18:51:11Z</time>
      </trkpt>
      <trkpt lat="45.36857" lon="4.51607">
        <ele>1220</ele>
        <time>2011-02-19T18:51:13Z</time>
      </trkpt>
      <trkpt lat="45.36861" lon="4.51598">
        <ele>1220</ele>
        <time>2011-02-19T18:51:15Z</time>
      </trkpt>
      <trkpt lat="45.36866" lon="4.5159">
        <ele>1221</ele>
        <time>2011-02-19T18:51:18Z</time>
      </trkpt>
      <trkpt lat="45.36873" lon="4.51585">
        <ele>1221</ele>
        <time>2011-02-19T18:51:21Z</time>
      </trkpt>
      <trkpt lat="45.36879" lon="4.51585">
        <ele>1221</ele>
        <time>2011-02-19T18:51:24Z</time>
      </trkpt>
      <trkpt lat="45.36883" lon="4.51592">
        <ele>1221</ele>
        <time>2011-02-19T18:51:29Z</time>
      </trkpt>
      <trkpt lat="45.36887" lon="4.51598">
        <ele>1222</ele>
        <time>2011-02-19T18:51:36Z</time>
      </trkpt>
    </trkseg>
  </trk>
</gpx>